[[{"header":{"parameterUnit":"m.s-1","parameterCategory":1,"la1":30.6,"la2":29.2853,"lo1":-89.7004,"lo2":-87.6739,"dy":0.0162,"dx":0.0183,"nx":112,"ny":82,"refTime":"2024-09-16T12:00:00:Z","depth":0,"parameterNumber":2,"parameterNumberName":"U-component_of_WINDS"},"data":[0.0,0.0,0.0,0.0,0.0,0.0,0.0,0.0,0.0,0.0,0.0,0.0,0.0,0.0,0.0,0.0,0.0,0.0,0.0,0.0,0.0,0.0,0.0,0.0,0.0,0.0,0.0,0.0,0.0,0.0,0.0,0.0,0.0,0.0,0.0,0.0,0.0,0.0,0.0,0.0,0.0,0.0,0.0,0.0,0.0,0.0,0.0,0.0,0.0,0.0,0.0,0.0,0.0,0.0,0.0,0.0,0.0,0.0,0.0,0.0,0.0,0.0,0.0,0.0,0.0,0.0,0.0,0.0,0.0,0.0,0.0,0.0,0.0,0.0,0.0,0.0,0.0,0.0,0.0,0.0,0.0,0.0,0.0,0.0,0.0,0.0,0.0,0.0,0.0,0.0,0.2437,0.2863,0.3705,0.4257,0.4257,0.4187,0.3703,0.2599,0.0,0.0,0.0,0.0,0.0,0.0,0.0,0.0,0.0,0.0,0.0,0.0,0.0,0.0,0.0,0.0,0.0,0.0,0.0,0.0,0.0,0.0,0.0,0.0,0.0,0.0,0.0,0.0,0.0,0.0,0.0,0.0,0.0,0.0,0.0,0.0,0.0,0.0,0.0,0.0,0.0,0.0,0.0,0.0,0.0,0.0,0.0,0.0,0.0,0.0,0.0,0.0,0.0,0.0,0.0,0.0,0.0,0.0,0.0,0.0,0.0,0.0,0.0,0.0,0.0,0.0,0.0,0.0,0.0,0.0,0.0,0.0,0.0,0.0,0.0,0.0,0.0,0.0,0.0,0.0,0.0,0.0,0.0,0.0,0.0,0.0,0.0,0.0,0.0,0.0,0.0,0.0,0.0,0.0,0.0,0.0,0.0,0.0,0.0,0.0,0.0,0.0,0.0,0.0,0.2932,0.3728,0.4186,0.4457,0.4457,0.4199,0.3638,0.2726,0.0,0.0,0.0,0.0,0.0,0.0,0.0,0.0,0.0,0.0,0.0,0.0,0.0,0.0,0.0,0.0,0.0,0.0,0.0,0.0,0.0,0.0,0.0,0.0,0.0,0.0,0.0,0.0,0.0,0.0,0.0,0.0,0.0,0.0,0.0,0.0,0.0,0.0,0.0,0.0,0.0,0.0,0.0,0.0,0.0,0.0,0.0,0.0,0.0,0.0,0.0,0.0,0.0,0.0,0.0,0.0,0.0,0.0,0.0,0.0,0.0,0.0,0.0,0.0,0.0,0.0,0.0,0.0,0.0,0.0,0.0,0.0,0.0,0.0,0.0,0.0,0.0,0.0,0.0,0.0,0.0,0.0,0.0,0.0,0.0,0.0,0.0,0.0,0.0,0.0,0.0,0.0,0.0,0.0,0.0,0.0,0.0,0.0,0.0,0.0,0.0,0.0,0.0,0.2685,0.3273,0.3923,0.431,0.4491,0.4491,0.4189,0.3691,0.2965,0.2727,0.0,0.0,0.0,0.0,0.0,0.0,0.0,0.0,0.0,0.0,0.0,0.0,0.0,0.0,0.0,0.0,0.0,0.0,0.0,0.0,0.0,0.0,0.0,0.0,0.0,0.0,0.0,0.0,0.0,0.0,0.0,0.0,0.0,0.0,0.0,0.0,0.0,0.0,0.0,0.0,0.0,0.0,0.0,0.0,0.0,0.0,0.0,0.0,0.0,0.0,0.0,0.0,0.0,0.0,0.0,0.0,0.0,0.0,0.0,0.0,0.0,0.0,0.0,0.0,0.0,0.0,0.0,0.0,0.0,0.0,0.0,0.0,0.0,0.0,0.0,0.0,0.0,0.0,0.0,0.0,0.0,0.0,0.0,0.0,0.0,0.0,0.0,0.0,0.0,0.0,0.0,0.0,0.0,0.0,0.0,0.0,0.0,0.0,0.0,0.0,0.0,0.0,0.307,0.3576,0.3954,0.431,0.4474,0.444,0.4107,0.365,0.3087,0.2761,0.0,0.0,0.0,0.0,0.0,0.0,0.0,0.0,0.0,0.0,0.0,0.0,0.0,0.0,0.0,0.0,0.0,0.0,0.0,0.0,0.0,0.0,0.0,0.0,0.0,0.0,0.0,0.0,0.0,0.0,0.0,0.0,0.0,0.0,0.0,0.0,0.0,0.0,0.0,0.0,0.0,0.0,0.0,0.0,0.0,0.0,0.0,0.0,0.0,0.0,0.0,0.0,0.0,0.0,0.0,0.0,0.0,0.0,0.0,0.0,0.0,0.0,0.0,0.0,0.0,0.0,0.0,0.0,0.0,0.0,0.0,0.0,0.0,0.0,0.0,0.0,0.0,0.0,0.0,0.0,0.0,0.0,0.0,0.0,0.0,0.0,0.0,0.0,0.0,0.0,0.0,0.0,0.0,0.0,0.0,0.0,0.0,0.0,0.0,0.0,0.0,0.0,0.3135,0.3826,0.3974,0.431,0.4436,0.4247,0.3863,0.3415,0.2936,0.2482,0.0,0.0,0.0,0.0,0.0,0.0,0.0,0.0,0.0,0.0,0.0,0.0,0.0,0.0,0.0,0.0,0.0,0.0,0.0,0.0,0.0,0.0,0.0,0.0,0.0,0.0,0.0,0.0,0.0,0.0,0.0,0.0,0.0,0.0,0.0,0.0,0.0,0.0,0.0,0.0,0.0,0.0,0.0,0.0,0.0,0.0,0.0,0.0,0.0,0.0,0.0,0.0,0.0,0.0,0.0,0.0,0.0,0.0,0.0,0.0,0.0,0.0,0.0,0.0,0.0,0.0,0.0,0.0,0.0,0.0,0.0,0.0,0.0,0.0,0.0,0.0,0.0,0.0,0.0,0.0,0.0,0.0,0.0,0.0,0.0,0.0,0.0,0.0,0.0,0.0,0.0,0.0,0.0,0.0,0.0,0.0,0.0,0.0,0.0,0.0,0.0,0.0,0.2967,0.3751,0.3967,0.431,0.4429,0.4207,0.3981,0.3585,0.2932,0.0,0.0,0.0,0.0,0.0,0.0,0.0,0.0,0.0,0.0,0.0,0.0,0.0,0.0,0.0,0.0,0.0,0.0,0.0,0.0,0.0,0.0,0.0,0.0,0.0,0.0,0.0,0.0,0.0,0.0,0.0,0.0,0.0,0.0,0.0,0.0,0.0,0.0,0.0,0.0,0.0,0.0,0.0,0.0,0.0,0.0,0.0,0.0,0.0,0.0,0.0,0.0,0.0,0.0,0.0,0.0,0.0,0.0,0.0,0.0,0.0,0.0,0.0,0.0,0.0,0.0,0.0,0.0,0.0,0.0,0.0,0.0,0.0,0.0,0.0,0.0,0.0,0.0,0.0,0.0,0.0,0.0,0.0,0.0,0.0,0.0,0.0,0.0,0.0,0.0,0.0,0.0,0.0,0.0,0.0,0.0,0.0,0.0,0.0,0.0,0.0,0.0,0.1793,0.292,0.3795,0.3974,0.431,0.4412,0.4166,0.3923,0.3509,0.2876,0.0,0.0,0.0,0.0,0.0,0.0,0.0,0.0,0.0,0.0,0.0,0.0,0.0,0.0,0.0,0.0,0.0,0.0,0.0,0.0,0.0,0.0,0.0,0.0,0.0,0.0,0.0,0.0,0.0,0.0,0.0,0.0,0.0,0.0,0.0,0.0,0.0,0.0,0.0,0.0,0.0,0.0,0.0,0.0,0.0,0.0,0.0,0.0,0.0,0.0,0.0,0.0,0.0,0.0,0.0,0.0,0.0,0.0,0.0,0.0,0.0,0.0,0.0,0.0,0.0,0.0,0.0,0.0,0.0,0.0,0.0,0.0,0.0,0.0,0.0,0.0,0.0,0.0,0.0,0.0,0.0,0.0,0.0,0.0,0.0,0.0,0.0,0.0,0.0,0.0,0.0,0.0,0.0,0.0,0.0,0.0,0.0,0.0,0.0,0.0,0.0,0.0,0.1795,0.3095,0.3994,0.3994,0.431,0.4368,0.4018,0.3564,0.3138,0.0,0.0,0.0,0.0,0.0,0.0,0.0,0.0,0.0,0.0,0.0,0.0,0.0,0.0,0.0,0.0,0.0,0.0,0.0,0.0,0.0,0.0,0.0,0.0,0.0,0.0,0.0,0.0,0.0,0.0,0.0,0.0,0.0,0.0,0.0,0.0,0.0,0.0,0.0,0.0,0.0,0.0,0.0,0.0,0.0,0.0,0.0,0.0,0.0,0.0,0.0,0.0,0.0,0.0,0.0,0.0,0.0,0.0,0.0,0.0,0.0,0.0,0.0,0.0,0.0,0.0,0.0,0.0,0.0,0.0,0.0,0.0,0.0,0.0,0.0,0.0,0.0,0.0,0.0,0.0,0.0,0.0,0.0,0.0,0.0,0.0,0.0,0.0,0.0,0.0,0.0,0.0,0.0,0.0,0.0,0.0,0.0,0.0,0.0,0.0,0.0,0.0,0.0,0.1795,0.3095,0.3994,0.3994,0.4169,0.4206,0.4011,0.3707,0.3273,0.2733,0.0,0.0,0.0,0.0,0.0,0.0,0.0,0.0,0.0,0.0,0.0,0.0,0.0,0.0,0.0,0.0,0.0,0.0,0.0,0.0,0.0,0.0,0.0,0.0,0.0,0.0,0.0,0.0,0.0,0.0,0.0,0.0,0.0,0.0,0.0,0.0,0.0,0.0,0.0,0.0,0.0,0.0,0.0,0.0,0.0,0.0,0.0,0.0,0.0,0.0,0.0,0.0,0.0,0.0,0.0,0.0,0.0,0.0,0.0,0.0,0.0,0.0,0.0,0.0,0.0,0.0,0.0,0.0,0.0,0.0,0.0,0.0,0.0,0.0,0.0,0.0,0.0,0.0,0.0,0.0,0.0,0.0,0.0,0.0,0.0,0.0,0.0,0.0,0.0,0.0,0.0,0.0,0.0,0.0,0.0,0.0,0.0,0.0,0.0,0.0,0.0,0.0,0.1881,0.3128,0.4018,0.4078,0.4217,0.4223,0.4011,0.3802,0.343,0.2826,0.0,0.0,0.0,0.0,0.0,0.0,0.0,0.0,0.0,0.0,0.0,0.0,0.0,0.0,0.0,0.0,0.0,0.0,0.0,0.0,0.0,0.0,0.0,0.0,0.0,0.0,0.0,0.0,0.0,0.0,0.0,0.0,0.0,0.0,0.0,0.0,0.0,0.0,0.0,0.0,0.0,0.0,0.0,0.0,0.0,0.0,0.0,0.0,0.0,0.0,0.0,0.0,0.0,0.0,0.0,0.0,0.0,0.0,0.0,0.0,0.0,0.0,0.0,0.0,0.0,0.0,0.0,0.0,0.0,0.0,0.0,0.0,0.0,0.0,0.0,0.0,0.0,0.0,0.0,0.0,0.0,0.0,0.0,0.0,0.0,0.0,0.0,0.0,0.0,0.0,0.0,0.0,0.0,0.0,0.0,0.0,0.0,0.0,0.0,0.0,0.0,0.0,0.1978,0.3064,0.39,0.4072,0.4254,0.4247,0.3918,0.3819,0.3531,0.2964,0.0,0.0,0.0,0.0,0.0,0.0,0.0,0.0,0.0,0.0,0.0,0.0,0.0,0.0,0.0,0.0,0.0,0.0,0.0,0.0,0.0,0.0,0.0,0.0,0.0,0.0,0.0,0.0,0.0,0.0,0.0,0.0,0.0,0.0,0.0,0.0,0.0,0.0,0.0,0.0,0.0,0.0,0.0,0.0,0.0,0.0,0.0,0.0,0.0,0.0,0.0,0.0,0.0,0.0,0.0,0.0,0.0,0.0,0.0,0.0,-0.1448,-0.1792,0.0,0.0,0.0,0.0,0.0,0.0,0.0,0.0,0.0,0.0,0.0,0.0,0.0,0.0,0.0,0.0,0.0,0.0,0.0,0.0,0.0,0.0,0.0,0.0,0.0,0.0,0.0,0.0,0.0,0.0,0.0,0.0,0.0,0.0,0.0,0.0,0.0,0.0,0.0,0.0,0.1922,0.2244,0.2651,0.3279,0.3366,0.3321,0.3151,0.3444,0.347,0.3081,0.2815,0.0,0.0,0.0,0.0,0.0,0.0,0.0,0.0,0.0,0.0,0.0,0.0,0.0,0.0,0.0,0.0,0.0,0.0,0.0,0.0,0.0,0.0,0.0,0.0,0.0,0.0,0.0,0.0,0.0,0.0,0.0,0.0,0.0,0.0,0.0,0.0,0.0,0.0,0.0,0.0,0.0,0.0,0.0,0.0,0.0,0.0,0.0,0.0,0.0,0.0,0.0,0.0,0.0,0.0,0.0,0.0,0.0,0.0,0.0,-0.1355,-0.1229,0.0,0.0,0.0,0.0,0.0,0.0,0.0,0.0,0.0,0.0,0.0,0.0,0.0,0.0,0.0,0.0,0.0,0.0,0.0,0.0,0.0,0.0,0.0,0.0,0.0,0.0,0.0,0.0,0.0,0.0,0.0,0.0,0.0,0.0,0.0,0.0,0.0,0.0,0.0,0.0,0.152,0.1823,0.2183,0.2622,0.2663,0.2599,0.2485,0.2964,0.3135,0.2834,0.2867,0.0,0.0,0.0,0.0,0.0,0.0,0.0,0.0,0.0,0.0,0.0,0.0,0.0,0.0,0.0,0.0,0.0,0.0,0.0,0.0,0.0,0.0,0.0,0.0,0.0,0.0,0.0,0.0,0.0,0.0,0.0,0.0,0.0,0.0,0.0,0.0,0.0,0.0,0.0,0.0,0.0,0.0,0.0,0.0,0.0,0.0,0.0,0.0,0.0,0.0,0.0,0.0,0.0,-0.3158,-0.2948,-0.2948,-0.2948,-0.2816,-0.2556,-0.156,-0.1009,-0.0878,-0.151,0.0,0.0,0.0,0.0,0.0,0.0,0.0,0.0,0.0,0.0,0.0,0.0,0.0,0.0,0.0,0.0,0.0,0.0,0.0,0.0,0.0,0.0,0.0607,0.0108,0.038,0.0617,0.0114,0.0,0.0,0.0,0.0,0.0,0.0,0.0,0.0,0.0,0.0,0.0,0.1064,0.1419,0.1744,0.1995,0.2009,0.1955,0.1812,0.2376,0.2685,0.2571,0.2843,0.2946,0.0,0.0,0.0,0.0,0.0,0.0,0.0,0.0,0.0,0.0,0.0,0.0,0.0,0.0,0.0,0.0,0.0,0.0,0.0,0.0,0.0,0.0,0.0,0.0,0.0,0.0,0.0,0.0,0.0,0.0,0.0,0.0,-0.415,-0.397,0.0,0.0,0.0,0.0,0.0,0.0,0.0,0.0,0.0,0.0,0.0,0.0,0.0,-0.424,-0.438,-0.3584,-0.3318,-0.3592,-0.273,-0.2319,-0.2319,-0.2319,-0.2291,-0.2265,-0.2088,0.0,-0.2556,-0.2436,0.0,0.0,0.0,0.0,0.0,0.0,0.0,0.0,0.0,0.0,0.0,0.0,0.0,0.0,0.0,0.0,0.0,0.0,0.0,0.0,0.0,0.0,0.0102,0.0025,0.005,0.0099,0.0024,0.0,0.0,0.0,0.0,-0.013,0.0,0.0,0.0,0.0,0.0,0.0,0.1009,0.0617,0.0509,0.1168,0.1257,0.1186,0.1068,0.1693,0.2332,0.2805,0.2669,0.2796,0.329,0.2867,0.0,0.0,0.0,0.0,0.0,0.0,0.0,0.0,0.0,0.0,0.0,0.0,0.0,0.0,0.0,0.0,0.0,0.0,0.0,0.0,0.0,0.0,0.0,0.0,0.0,0.0,0.0,0.0,0.0,-0.455,-0.5242,-0.4969,-0.5634,-0.6074,0.0,0.0,0.0,0.0,0.0,0.0,0.0,0.0,0.0,-0.5549,-0.5544,-0.554,-0.5531,-0.4742,-0.4451,-0.466,-0.3856,-0.3494,-0.3494,-0.3494,-0.3495,-0.3487,-0.3487,-0.3612,-0.3749,-0.3032,-0.2865,-0.3113,0.0,0.0,0.0,0.0,-0.2985,-0.2858,-0.2321,-0.2093,-0.1983,-0.1711,0.0,0.0,0.0,0.0,0.0,0.0,0.0,-0.1864,-0.167,-0.1441,-0.1245,-0.1223,-0.1229,-0.1229,-0.1228,-0.0913,-0.0494,-0.0084,-0.0331,-0.0633,-0.0685,-0.0307,0.0,0.0,0.0,0.011,0.0452,0.0204,0.0135,0.0446,0.0476,0.0445,0.0412,0.0995,0.1505,0.1766,0.2366,0.2768,0.29,0.3026,0.2863,0.0,0.0,0.0,0.0,0.0,0.0,0.0,0.0,0.0,0.0,0.0,0.0,0.0,0.0,0.0,0.0,0.0,0.0,0.0,0.0,0.0,0.0,0.0,0.0,0.0,0.0,0.0,0.0,-0.5152,-0.5852,-0.5741,-0.6101,-0.6465,0.0,0.0,0.0,0.0,0.0,0.0,-0.6524,-0.6766,-0.671,-0.6287,-0.6256,-0.6239,-0.6171,-0.5448,-0.5229,-0.5487,-0.4814,-0.4491,-0.4491,-0.4491,-0.4491,-0.4491,-0.4491,-0.4491,-0.4443,-0.3583,-0.33,-0.3415,-0.3729,-0.3918,-0.3978,-0.3836,-0.37,-0.3546,-0.3039,-0.2814,-0.2665,-0.232,-0.2447,-0.2746,-0.2743,0.0,0.0,0.0,0.0,-0.2796,-0.2725,-0.2455,-0.22,-0.2204,-0.2202,-0.2202,-0.2202,-0.1915,-0.1388,-0.0455,-0.0573,-0.0804,-0.0712,-0.0316,0.0,-0.0633,-0.0303,0.0,0.0,0.0,0.0,0.0,0.0,0.0,0.0,0.0411,0.0756,0.0944,0.1848,0.245,0.259,0.296,0.3053,0.2801,0.0,0.0,0.0,0.0,0.0,0.0,0.0,0.0,0.0,0.0,0.0,0.0,0.0,0.0,0.0,0.0,0.0,0.0,0.0,0.0,0.0,0.0,0.0,0.0,0.0,0.0,0.0,0.0,0.0,-0.6043,-0.633,0.0,0.0,0.0,0.0,-0.6877,-0.6924,-0.6852,-0.6615,-0.6608,-0.6233,-0.54,-0.5371,-0.5418,-0.5552,-0.4882,-0.4862,-0.5487,-0.4814,-0.4491,-0.4491,-0.4491,-0.4491,-0.4491,-0.4491,-0.4491,-0.4477,-0.4244,-0.4147,-0.4147,-0.4021,-0.3982,-0.3926,-0.3367,-0.314,-0.3049,-0.2457,-0.2248,-0.2229,-0.222,-0.2515,-0.2901,-0.2886,-0.3291,0.0,0.0,-0.2991,-0.2939,-0.2391,-0.222,-0.2194,-0.22,-0.2202,-0.2202,-0.2202,-0.2728,-0.2777,-0.1325,-0.0513,-0.0198,-0.0614,0.0,-0.0166,-0.0635,-0.0293,0.0,0.0,0.0,0.0,0.0,0.0,0.0,0.0,0.0028,0.0335,0.1059,0.1028,0.1564,0.2826,0.2673,0.2713,0.3065,0.2801,0.0,0.0,0.0,0.0,0.0,0.0,0.0,0.0,0.0,0.0,0.0,0.0,0.0,0.0,0.0,0.0,0.0,0.0,0.0,0.0,0.0,0.0,0.0,0.0,0.0,0.0,0.0,0.0,-0.7141,-0.7395,0.0,-0.7709,-0.7505,-0.7434,-0.7651,-0.7624,-0.7643,-0.7751,-0.7918,-0.786,-0.755,-0.7556,-0.7571,-0.7631,-0.6902,-0.6691,-0.6902,-0.6204,-0.5855,-0.5855,-0.5855,-0.5855,-0.5823,-0.5355,-0.5136,-0.5105,-0.4593,-0.4385,-0.4379,-0.4351,-0.4331,-0.4304,-0.4091,-0.4012,-0.3972,-0.3751,-0.3667,-0.3675,-0.3691,-0.3784,-0.3924,-0.3924,-0.4078,-0.421,-0.3992,-0.3962,-0.3957,-0.3724,-0.368,-0.368,-0.368,-0.368,-0.368,-0.368,-0.3483,-0.3136,-0.2606,-0.1925,-0.1427,-0.142,-0.0617,-0.0157,-0.0622,-0.0313,0.0,0.0,0.0,0.0,0.0,0.0,0.0,0.0,0.0,0.0111,0.038,0.0803,0.1215,0.1604,0.2358,0.2749,0.2722,0.2876,0.274,0.0,0.0,0.0,0.0,0.0,0.0,0.0,0.0,0.0,0.0,0.0,0.0,0.0,0.0,0.0,0.0,0.0,0.0,0.0,0.0,0.0,0.0,0.0,0.0,0.0,-0.6721,-0.7296,-0.7909,-0.8017,-0.809,-0.8213,-0.8019,-0.7975,-0.8179,-0.8201,-0.831,-0.851,-0.8704,-0.8699,-0.8427,-0.8427,-0.8472,-0.8595,-0.7852,-0.7675,-0.7982,-0.7255,-0.6893,-0.6893,-0.6893,-0.6893,-0.6865,-0.6379,-0.6178,-0.615,-0.568,-0.5515,-0.5446,-0.4779,-0.4491,-0.4491,-0.4491,-0.4525,-0.4576,-0.4627,-0.4644,-0.4644,-0.4644,-0.4644,-0.4644,-0.4644,-0.4644,-0.4644,-0.4644,-0.4644,-0.4644,-0.4644,-0.4607,-0.4566,-0.4566,-0.4528,-0.4491,-0.4491,-0.407,-0.3707,-0.3707,-0.2899,-0.2144,-0.197,-0.1274,-0.0854,-0.1156,-0.0734,-0.0364,-0.0364,-0.014,0.0,0.0,0.0,0.0,0.0,0.0,0.0,0.0,0.0449,0.0792,0.09,0.1747,0.2244,0.2271,0.262,0.2769,0.2692,0.0,0.0,0.0,0.0,0.0,0.0,0.0,0.0,0.0,0.0,0.0,0.0,0.0,0.0,0.0,0.0,0.0,0.0,0.0,0.0,0.0,0.0,0.0,-0.7016,-0.7277,-0.7638,-0.8242,-0.8087,-0.7983,-0.8111,-0.8307,-0.8415,-0.8415,-0.8651,-0.8804,-0.8804,-0.8804,-0.8487,-0.7762,-0.7735,-0.7913,-0.8235,-0.7525,-0.7668,-0.8639,-0.7898,-0.7572,-0.7572,-0.7572,-0.7572,-0.7572,-0.7542,-0.7542,-0.7542,-0.7512,-0.7512,-0.7318,-0.5345,-0.4588,-0.4588,-0.4588,-0.4653,-0.4776,-0.4867,-0.4887,-0.4887,-0.4887,-0.4887,-0.4887,-0.4887,-0.4887,-0.4887,-0.4887,-0.4887,-0.4887,-0.4887,-0.4809,-0.4697,-0.4697,-0.4607,-0.4498,-0.4498,-0.4494,-0.4491,-0.4491,-0.3287,-0.2258,-0.2232,-0.2204,-0.2202,-0.2202,-0.1591,0.0,-0.1146,-0.0504,-0.0056,-0.0056,-0.0056,-0.0056,-0.0028,-0.0027,-0.0027,0.0,0.0,0.0252,0.0855,0.0889,0.1187,0.1789,0.2054,0.2467,0.3088,0.0,0.0,0.0,0.0,0.0,0.0,0.0,0.0,0.0,0.0,0.0,0.0,0.0,0.0,0.0,0.0,0.0,0.0,0.0,0.0,0.0,-0.6602,-0.6884,-0.7256,-0.7567,-0.7914,-0.832,-0.8486,-0.8556,-0.8595,-0.8668,-0.8691,-0.8691,-0.8758,-0.8804,-0.8804,-0.8804,-0.8791,-0.8777,-0.8783,-0.8953,-0.9294,-0.9093,-0.9131,-0.9382,-0.9207,-0.9084,-0.9084,-0.9084,-0.9084,-0.9055,-0.8522,-0.831,-0.8251,-0.772,-0.7512,-0.7438,-0.69,-0.6682,-0.6682,-0.6682,-0.6309,-0.5709,-0.5113,-0.4887,-0.4887,-0.4887,-0.4887,-0.4887,-0.4887,-0.4887,-0.4887,-0.4887,-0.4887,-0.4887,-0.4887,-0.4887,-0.4857,-0.4857,-0.4741,-0.4655,-0.4655,-0.4569,-0.4491,-0.4491,-0.4153,-0.368,-0.3093,-0.2565,-0.2202,-0.2202,-0.2037,-0.1898,-0.1898,-0.173,-0.1591,-0.1591,-0.1591,-0.1368,-0.0838,-0.0804,-0.057,-0.0026,0.0,0.0075,0.0243,0.0664,0.1192,0.1796,0.1643,0.1912,0.0,0.0,0.0,0.0,0.0,0.0,0.0,0.0,0.0,0.0,0.0,0.0,0.0,0.0,0.0,0.0,0.0,0.0,0.0,0.0,0.0,0.0,-0.7303,-0.7528,-0.7932,-0.8058,-0.8223,-0.8524,-0.8704,-0.8804,-0.8804,-0.8804,-0.8804,-0.8804,-0.8804,-0.8804,-0.8804,-0.8898,-0.9038,-0.9211,-0.9331,-0.9566,-0.986,-0.9866,-0.9927,-1.0084,-1.0084,-1.0084,-1.0084,-1.0084,-1.0084,-1.0047,-0.9618,-0.943,-0.9399,-0.8968,-0.881,-0.8701,0.0,0.0,0.0,0.0,-0.6707,-0.6174,-0.5391,-0.5104,-0.5104,-0.5104,-0.5104,-0.5104,-0.5104,-0.5104,-0.5104,-0.5104,-0.5104,-0.5104,-0.5104,-0.5057,-0.4975,-0.4975,-0.4894,-0.4785,-0.4785,-0.4667,-0.4586,-0.4586,-0.4535,0.0,-0.3873,-0.3456,-0.3178,-0.3178,-0.2899,-0.2704,-0.2704,-0.2397,-0.2202,-0.2202,-0.2202,-0.1898,-0.1174,-0.1103,0.0,0.0,0.0,0.0,0.0,0.0339,0.0,0.0,0.0,0.0,0.0,0.2092,0.0,0.0,0.3356,0.3602,0.0,0.0,0.0,0.0,0.0,0.0,0.0,0.0,0.0,0.0,0.0,0.0,0.0,0.0,0.0,0.0,-0.7969,-0.8152,-0.8731,-0.8661,-0.8619,-0.8778,-0.8804,-0.8804,-0.8804,-0.8804,-0.8824,-0.8851,-0.8858,-0.8871,-0.8905,-0.9124,0.0,0.0,0.0,-0.9873,-1.0167,-1.0167,-1.0301,-1.0593,-1.0593,-1.0593,-1.0593,-1.0593,-1.0593,-1.0593,-1.0593,-1.0593,-1.0593,-1.0593,-1.0593,-1.0407,-0.8569,-0.7855,-0.7761,-0.7008,-0.6732,-0.6633,-0.593,0.0,0.0,-0.569,-0.5624,-0.5557,-0.5557,-0.5495,-0.5395,-0.5395,-0.5395,-0.5395,-0.5395,-0.526,-0.5123,-0.5123,-0.5015,-0.4914,-0.4914,-0.4823,-0.4718,-0.4718,-0.4621,-0.4515,-0.4515,-0.4501,-0.4491,-0.4491,-0.3932,-0.3511,-0.3511,-0.2899,-0.2454,-0.2454,-0.2454,0.0,-0.1424,-0.1358,-0.1026,-0.0306,-0.0158,-0.0075,0.0,0.0,0.0251,0.0796,0.0802,0.1163,0.1886,0.1901,0.1992,0.2207,0.3044,0.3668,0.0,0.0,0.0,0.0,0.0,0.0,0.0,0.0,0.0,0.0,0.0,0.0,0.0,0.0,0.0,-0.8261,-0.8325,-0.841,-0.8758,-0.9207,-0.9341,-0.885,-0.8804,-0.8804,-0.8804,-0.8804,-0.8878,-0.9111,-0.9131,-0.9231,-0.9499,-0.9566,-0.9706,-0.991,-1.0007,-1.0174,-1.0506,-1.0506,-1.0539,-1.0593,-1.0593,0.0,-1.0593,-1.0593,-1.0593,-1.0593,-1.0593,-1.0593,-1.0593,-1.0593,-1.0593,-1.0548,-1.0177,-1.0007,-0.9881,-0.9047,-0.874,-0.8623,-0.779,-0.7507,-0.7507,-0.7507,-0.7018,-0.6461,-0.6461,-0.5947,0.0,-0.5395,-0.5395,-0.5395,-0.5395,-0.5371,-0.5351,-0.5351,-0.5199,-0.5059,-0.5059,-0.4945,-0.4874,-0.4874,-0.4752,-0.4646,-0.4646,-0.4573,-0.4491,-0.4491,-0.4377,-0.4294,-0.4294,-0.4153,-0.4042,-0.4042,-0.4042,-0.3763,-0.301,-0.2909,-0.2571,-0.1822,-0.1217,-0.0629,-0.0026,0.0,0.0054,0.0183,0.0162,0.0543,0.1274,0.1263,0.1589,0.2233,0.3147,0.3621,0.0,0.0,0.0,0.0,0.0,0.0,0.0,0.0,0.0,0.0,0.0,-0.7378,-0.7769,0.0,-0.8112,-0.8577,-0.8907,-0.9036,-0.8837,-0.9387,-0.9562,-0.8883,-0.908,-0.9159,-0.8831,-0.8911,-0.9058,-0.9204,-0.9351,-0.9526,-0.9708,-0.982,-0.9967,-1.0114,-1.0261,-1.0439,-1.0593,-1.0593,-1.0593,-1.0593,-1.0593,-1.0593,-1.0593,-1.0593,-1.0593,-1.0593,-1.0593,-1.0593,-1.0593,-1.0593,-1.0593,-1.0593,-1.0593,-1.0593,-1.0491,-0.9626,-0.9306,-0.9172,-0.8285,-0.7994,-0.7994,-0.7994,-0.7697,-0.734,-0.734,-0.7051,-0.6695,-0.6695,-0.6695,-0.6695,-0.6695,-0.6367,-0.6042,-0.6042,-0.5654,-0.5247,-0.5247,-0.5128,-0.4992,-0.4992,-0.4904,-0.4806,-0.4806,-0.4741,-0.4668,-0.4511,-0.4491,-0.4491,-0.4491,-0.4491,-0.4491,-0.4491,-0.4491,-0.4211,-0.3456,-0.301,-0.2601,-0.2231,-0.1497,-0.0926,-0.0573,-0.0194,0.0,0.0,0.0,0.0171,0.056,0.0559,0.0753,0.1113,0.2015,0.2673,0.0,0.0,0.0,0.0,0.0,0.0,0.0,-0.7636,-0.7826,-0.7677,-0.7713,-0.7899,-0.8379,-0.8642,-0.8794,-0.8959,-0.9439,-0.9614,-0.9054,-0.9465,-0.9588,-0.9061,-0.9361,-0.9387,-0.8857,-0.9044,-0.9237,-0.9291,-0.9599,-0.9793,-0.9883,-1.0074,-1.02,-1.02,-1.0466,-1.0593,-1.0593,-1.0593,-1.0593,-1.0593,-1.0593,-1.0593,-1.0593,-1.0593,-1.0593,-1.0593,-1.0593,-1.0593,-1.0593,-1.0593,-1.0593,-1.0593,-1.0593,-1.0593,-1.0498,-0.9817,-0.9562,-0.9466,-0.8742,-0.8511,-0.8511,-0.8511,-0.8382,-0.8253,-0.8253,-0.8124,-0.7962,-0.78,-0.773,-0.7697,-0.754,-0.6985,-0.6461,-0.6461,-0.5914,-0.5395,-0.5395,-0.5264,-0.5143,-0.5143,-0.5026,-0.4928,-0.4928,-0.4908,-0.4833,-0.4617,-0.458,-0.458,-0.458,-0.4552,-0.4535,-0.4535,-0.4508,-0.4267,-0.3652,-0.301,-0.2593,-0.2425,-0.187,-0.1396,-0.1118,-0.0535,-0.0141,0.0,0.0,0.0,0.0,0.0,0.0,0.0031,0.0705,0.1489,-1.0361,-0.978,-0.9373,-1.007,-0.9487,-0.8957,0.0,-0.9167,-0.8311,-0.7946,-0.8109,-0.8326,-0.8403,-0.9094,-0.9655,-0.9677,-0.9762,-0.9762,-0.9684,-0.9762,-0.9762,-0.9684,-0.9237,-0.8883,-0.8811,-0.9044,-0.9324,-0.9613,-0.99,-1.0187,-1.0479,-1.0526,-1.0546,-1.0546,-1.0573,-1.0593,-1.0593,-1.0593,-1.0593,-1.0593,-1.0593,-1.0593,-1.0593,-1.0593,-1.0593,-1.0593,-1.0593,-1.0593,-1.0593,-1.0593,-1.0593,-1.0593,-1.0593,-1.0593,-1.0593,-1.0491,-1.046,-1.0428,-1.0333,-1.0301,-1.0301,-1.0301,-0.9786,-0.9139,-0.9139,-0.8613,-0.7832,-0.7079,-0.685,-0.6654,-0.5881,-0.5624,-0.5557,-0.5557,-0.5458,-0.5395,-0.5395,-0.5382,-0.5368,-0.5368,-0.5213,-0.5076,-0.5076,-0.4972,-0.4877,-0.4874,-0.4867,-0.4867,-0.4867,-0.4748,-0.4663,-0.4663,-0.4573,-0.446,-0.4377,-0.4294,-0.3929,-0.3231,-0.3093,-0.2454,-0.1146,-0.1035,-0.0672,0.0,0.0,0.0,0.0,0.0,0.0,0.0,0.0099,0.0595,-1.1849,-1.1367,-1.0868,-1.0497,-1.0574,-1.0699,-1.0543,-1.0282,-0.9984,-0.9647,-0.9707,-0.9789,-0.9789,-1.0124,-1.0236,-0.9865,-1.0141,-1.0244,-0.9865,-1.0141,-1.0244,-0.984,-0.9562,-0.9387,-0.9387,-0.9439,-0.9552,-0.9702,-1.0144,-1.0459,-1.0586,-1.0593,-1.0593,-1.0593,-1.0593,-1.0593,-1.0593,-1.0593,-1.0593,-1.0593,-1.0593,-1.0593,-1.0593,-1.0593,-1.0687,-1.0847,-1.0847,-1.0909,-1.1062,-1.1062,-1.1062,-1.1049,-1.0875,-1.0847,-1.0821,-1.0653,-1.0593,-1.0593,-1.0593,-1.0593,-1.0593,-1.0593,-1.0333,-1.0047,-1.0047,-0.946,-0.8678,-0.8323,-0.7864,-0.7372,-0.7018,-0.6531,-0.6174,-0.6174,-0.5785,-0.5395,-0.5395,-0.5395,-0.5395,-0.5395,-0.5344,-0.5267,-0.5267,-0.5216,-0.5176,-0.5176,-0.503,-0.4887,-0.4887,-0.4863,-0.4823,-0.4823,-0.4765,-0.4728,-0.4728,-0.4728,-0.4582,-0.4253,-0.384,-0.3309,-0.2689,-0.2246,-0.1629,-0.0786,-0.0747,-0.0507,0.0,0.0,0.0,0.0,0.0,0.0203,-1.2747,-1.2362,-1.2014,-1.1035,-1.15,-1.1984,-1.1113,-1.1154,-1.1263,-1.0889,-1.0788,-1.0788,-1.0788,-1.0939,-1.0914,-1.044,-1.0887,-1.0988,-1.0182,-1.0451,-1.05,-0.988,-0.964,-0.9666,-1.0038,-0.9847,-0.9715,-0.9715,-1.0258,-1.0593,-1.0593,-1.0593,-1.0593,-1.0593,-1.0593,-1.0633,-1.0713,-1.0713,-1.0754,-1.0827,-1.0827,-1.0827,-1.0827,-1.0827,-1.0915,-1.1109,-1.1109,-1.1229,-1.1389,-1.1389,-1.1389,-1.1369,-1.1196,-1.1109,-1.1076,-1.0821,-1.066,-1.0593,-1.0593,-1.0593,-1.0593,-1.0593,-1.0593,-1.0593,-1.0593,-1.0174,-0.9594,-0.937,-0.8844,-0.8285,-0.8059,-0.7535,-0.7046,-0.7046,-0.64,-0.5752,-0.5752,-0.5557,-0.5395,-0.5395,-0.5395,-0.5395,-0.5395,-0.5395,-0.5395,-0.5395,-0.5179,-0.504,-0.504,-0.5003,-0.4931,-0.4891,-0.4887,-0.4887,-0.4887,-0.4887,-0.4887,-0.4887,-0.4397,-0.4025,-0.3811,-0.3283,-0.2582,-0.1712,-0.1443,-0.0977,-0.0359,-0.0133,0.0,0.0,0.0,0.0,-1.2715,-1.2253,-1.2346,-1.2089,-1.2121,-1.2104,-1.1819,-1.178,-1.1609,-1.0948,-1.0788,-1.0788,-1.0788,-1.1341,-1.1765,-1.174,-1.214,-1.2051,-1.0922,-1.063,-1.0333,-0.9851,-0.9237,-0.9335,-1.0644,-1.0117,-0.9715,-0.9715,-1.0258,-1.0593,-1.0593,-1.0593,-1.0593,-1.0593,-1.0593,-1.0727,-1.0982,-1.0982,-1.1122,-1.1369,-1.1369,-1.1369,-1.1369,-1.1369,-1.1369,-1.1375,-1.1375,-1.1382,-1.1389,-1.1389,-1.1389,-1.1389,-1.1382,-1.1375,-1.1342,-1.1089,-1.0834,-1.0593,-1.0593,-1.0593,-1.0593,-1.0593,-1.0593,-1.0593,-1.0593,-1.0593,-1.0364,-0.953,-0.9274,-0.9075,-0.8221,-0.7994,-0.7962,-0.7962,-0.7307,-0.6654,-0.6654,-0.6009,-0.5395,-0.5395,-0.5395,-0.5395,-0.5395,-0.5395,-0.5395,-0.5395,-0.5388,-0.5382,-0.5382,-0.5216,-0.5039,-0.4904,-0.4887,-0.4887,-0.4887,-0.4887,-0.4887,-0.4887,-0.4887,-0.4549,-0.3842,-0.3786,-0.3423,-0.2658,-0.178,-0.1272,-0.1272,-0.0403,0.0,0.0,0.0,0.0,-1.3925,-1.3655,-1.3299,-1.2879,-1.2708,-1.2647,-1.2555,-1.2535,-1.2471,-1.223,-1.2521,-1.2672,-1.227,-1.2691,-1.2841,-1.1938,-1.1748,-1.1563,-1.1201,-1.0849,-1.0667,-1.0777,-1.0357,-1.0163,-1.0451,-0.9804,-0.9629,-1.0301,-1.0304,-1.0385,-1.0579,-1.0593,-1.0593,-1.0593,-1.078,-1.0895,-1.0995,-1.1182,-1.1295,-1.1389,-1.1389,-1.1389,-1.1389,-1.1389,-1.153,-1.1724,-1.1724,-1.183,-1.2004,-1.2004,-1.2004,-1.1991,-1.179,-1.1724,-1.1683,-1.139,-1.1216,-1.1082,-1.0727,-1.0593,-1.0593,-1.0593,-1.0593,-1.0593,-1.0593,-1.0206,-0.969,-0.937,-0.8877,-0.8382,-0.8091,-0.7567,-0.7274,-0.7864,-0.6892,-0.6009,-0.6588,-0.6009,-0.5395,-0.5395,-0.5395,-0.5395,-0.5395,-0.5395,-0.5395,-0.5395,-0.5395,-0.5395,-0.5395,-0.5347,-0.53,-0.5252,-0.5245,-0.5245,-0.5245,-0.5245,-0.5245,-0.5245,-0.5245,-0.5116,-0.4884,-0.486,-0.4453,-0.3593,-0.2697,-0.1909,-0.1307,-0.0411,0.0,0.0,0.0,0.0,-1.4968,-1.4644,-1.4123,-1.3749,-1.3605,-1.3549,-1.3549,-1.3549,-1.3549,-1.3549,-1.37,-1.3676,-1.3091,-1.3124,-1.296,-1.2081,-1.2025,-1.1904,-1.1366,-1.136,-1.1215,-1.0793,-1.0504,-1.0386,-1.0453,-0.9806,-0.9683,-1.0436,-1.0372,-1.0354,-1.0579,-1.0687,-1.0747,-1.0747,-1.0995,-1.1202,-1.1303,-1.149,-1.1637,-1.1702,-1.1702,-1.1702,-1.1702,-1.1702,-1.1844,-1.2024,-1.2024,-1.2131,-1.2305,-1.2305,-1.2305,-1.2285,-1.2098,-1.2024,-1.2027,-1.1697,-1.1583,-1.1516,-1.1035,-1.0834,-1.0747,-1.0747,-1.0673,-1.0593,-1.0593,-1.0206,-0.9754,-0.9754,-0.9134,-0.8452,-0.8452,-0.7827,-0.7307,-0.7864,-0.6892,-0.6009,-0.6593,-0.6009,-0.5395,-0.5395,-0.5395,-0.5395,-0.5395,-0.5395,-0.5395,-0.5395,-0.5395,-0.5395,-0.5395,-0.5395,-0.5395,-0.5395,-0.5395,-0.5395,-0.5395,-0.5395,-0.5395,-0.5395,-0.5395,-0.5395,-0.5395,-0.5395,-0.4957,-0.4015,-0.3145,-0.2255,-0.1293,-0.0417,0.0,0.0,0.0,0.0,-1.5769,-1.5149,-1.4834,-1.4767,-1.4721,-1.4698,-1.4698,-1.4687,-1.4653,-1.4631,-1.4216,-1.3685,-1.3126,-1.2645,-1.2303,-1.2211,-1.29,-1.2976,-1.1585,-1.2063,-1.1871,-1.0053,-0.9778,-1.001,-1.0674,-1.0162,-0.9873,-1.016,-1.0452,-1.06,-1.0613,-1.0855,-1.1015,-1.1015,-1.1296,-1.1583,-1.1899,-1.1919,-1.2067,-1.2305,-1.2305,-1.2305,-1.2305,-1.2305,-1.2305,-1.2305,-1.2305,-1.2305,-1.2305,-1.2305,-1.2305,-1.2305,-1.2305,-1.2305,-1.2271,-1.2027,-1.1926,-1.1886,-1.157,-1.1269,-1.1015,-1.1015,-1.0861,-1.0633,-1.0588,-1.055,-1.055,-1.0466,-0.9881,-0.9242,-0.9242,-0.8581,-0.7962,-0.7994,-0.7307,-0.6654,-0.6687,-0.6009,-0.5395,-0.5395,-0.5395,-0.5395,-0.5395,-0.5395,-0.5395,-0.5395,-0.5395,-0.5395,-0.5395,-0.5395,-0.5395,-0.5395,-0.5395,-0.5395,-0.5395,-0.5395,-0.5395,-0.5395,-0.5395,-0.5395,-0.5395,-0.5395,-0.4994,-0.4092,-0.3186,-0.2279,-0.1365,-0.0457,0.0,0.0,0.0,0.0,-1.6048,-1.5744,-1.5389,-1.5374,-1.5028,-1.4698,-1.4698,-1.4395,-1.3982,-1.3539,-1.3361,-1.3006,-1.2019,-1.2372,-1.2679,-1.2214,-1.2658,-1.2914,-1.2545,-1.2194,-1.1919,-1.1741,-1.0916,-1.0636,-1.1313,-1.0954,-1.0782,-1.1036,-1.0794,-1.0687,-1.0901,-1.1156,-1.1316,-1.1316,-1.1603,-1.1826,-1.1906,-1.2084,-1.2231,-1.2305,-1.2305,-1.2305,-1.2305,-1.2305,-1.2305,-1.2305,-1.2305,-1.2305,-1.2305,-1.2305,-1.2305,-1.2305,-1.2305,-1.2305,-1.2291,-1.2218,-1.2191,-1.2178,-1.2104,-1.1744,-1.1316,-1.1316,-1.1269,-1.1028,-1.0178,-0.9919,-0.9745,-0.8889,-0.8511,-0.8318,-0.8318,-0.7697,-0.7209,-0.7832,-0.6826,-0.5914,-0.6556,-0.6009,-0.5395,-0.5395,-0.5395,-0.5395,-0.5395,-0.5395,-0.5395,-0.5395,-0.5395,-0.5395,-0.5395,-0.5395,-0.5395,-0.5395,-0.5395,-0.5395,-0.5395,-0.5395,-0.5395,-0.5395,-0.5395,-0.5395,-0.5395,-0.5395,-0.5346,-0.5183,-0.3556,-0.2624,-0.2481,-0.0808,0.0,0.0,0.0,0.0,-1.6677,-1.6591,-1.6396,-1.6396,-1.6149,-1.5688,-1.4959,-1.4549,-1.4014,-1.2964,-1.2775,-1.2371,-1.103,-1.1671,-1.2186,-1.1573,-1.2276,-1.2776,-1.2422,-1.2194,-1.1942,-1.1639,-1.1129,-1.0934,-1.1305,-1.1233,-1.1249,-1.1382,-1.1122,-1.1009,-1.1176,-1.1463,-1.1623,-1.1623,-1.1904,-1.2094,-1.2094,-1.2218,-1.2305,-1.2305,-1.2305,-1.2305,-1.2305,-1.2305,-1.2305,-1.2305,-1.2305,-1.2305,-1.2305,-1.2305,-1.2305,-1.2305,-1.2305,-1.2305,-1.2305,-1.2305,-1.2305,-1.2305,-1.2305,-1.2084,-1.179,-1.1663,-1.153,-1.1287,-1.0649,-1.0153,-0.9654,-0.8937,-0.8179,-0.7591,-0.7536,-0.6881,-0.634,-0.692,-0.6244,-0.5647,-0.6177,-0.5926,-0.559,-0.559,-0.559,-0.559,-0.559,-0.559,-0.559,-0.559,-0.559,-0.5566,-0.5504,-0.5436,-0.5395,-0.5395,-0.5395,-0.5395,-0.5395,-0.5395,-0.5395,-0.5395,-0.5395,-0.5426,-0.5491,-0.5494,-0.5357,-0.5109,-0.3584,-0.2626,-0.2328,-0.0751,0.0,0.0,0.0,0.0,-1.7371,-1.7461,-1.7498,-1.7423,-1.741,-1.6983,-1.5361,-1.4833,-1.423,-1.263,-1.2162,-1.1628,-1.0161,-1.0757,-1.1336,-1.0869,-1.1991,-1.2654,-1.1969,-1.2176,-1.2005,-1.0947,-1.0932,-1.1022,-1.1102,-1.1336,-1.1462,-1.1502,-1.1509,-1.1489,-1.1483,-1.1764,-1.196,-1.196,-1.2171,-1.2305,-1.2305,-1.2305,-1.2305,-1.2305,-1.2305,-1.2305,-1.2305,-1.2305,-1.2305,-1.2305,-1.2305,-1.2305,-1.2305,-1.2305,-1.2305,-1.2305,-1.2305,-1.2305,-1.2305,-1.2305,-1.2305,-1.2305,-1.2305,-1.2305,-1.2258,-1.2047,-1.175,-1.1502,-1.1352,-1.0669,-0.991,-0.9496,-0.8305,-0.7076,-0.681,-0.6195,-0.565,-0.5772,-0.5708,-0.565,-0.5776,-0.58,-0.58,-0.58,-0.58,-0.58,-0.58,-0.58,-0.58,-0.58,-0.58,-0.5755,-0.5633,-0.5521,-0.5419,-0.5395,-0.5412,-0.5426,-0.5426,-0.5443,-0.5453,-0.5453,-0.5453,-0.5515,-0.5613,-0.5616,-0.5329,-0.4695,-0.3644,-0.2734,-0.201,-0.0798,-0.0231,-0.0196,-0.0079,0.0,-1.7395,-1.7714,-1.7953,-1.7524,-1.741,-1.7084,-1.5831,-1.45,-1.3165,-1.1977,-1.0985,-1.0105,-0.9392,-1.0133,-1.0941,-1.1225,-1.2191,-1.2839,-1.2725,-1.2527,-1.2272,-1.1941,-1.1367,-1.1182,-1.1705,-1.1799,-1.1891,-1.2131,-1.2151,-1.2044,-1.1839,-1.2064,-1.2225,-1.2225,-1.2278,-1.2305,-1.2305,-1.2305,-1.2305,-1.2305,-1.2305,-1.2305,-1.2305,-1.2305,-1.2305,-1.2305,-1.2305,-1.2305,-1.2305,-1.2305,-1.2305,-1.2305,-1.2305,-1.2305,-1.2305,-1.2305,-1.2305,-1.2305,-1.2305,-1.2305,-1.2291,-1.2245,-1.2191,-1.1959,-1.1036,-1.0605,-1.0082,-0.8237,-0.7504,-0.7062,-0.6225,-0.5869,-0.5772,-0.5796,-0.5783,-0.5772,-0.5796,-0.58,-0.58,-0.58,-0.58,-0.58,-0.58,-0.58,-0.58,-0.58,-0.58,-0.5793,-0.5769,-0.564,-0.5535,-0.5409,-0.5508,-0.5549,-0.5549,-0.5657,-0.5725,-0.5725,-0.5725,-0.5735,-0.5766,-0.5766,-0.5761,-0.5723,-0.475,-0.4202,-0.4153,-0.2256,-0.1327,-0.1293,-0.0432,0.0,-1.7739,-1.8216,-1.8481,-1.7953,-1.7815,-1.7212,-1.492,-1.3566,-1.2237,-1.0282,-0.9453,-0.8901,-0.8325,-0.9179,-1.0113,-1.0552,-1.1074,-1.1559,-1.191,-1.1566,-1.1357,-1.1542,-1.1349,-1.139,-1.1859,-1.204,-1.2151,-1.2291,-1.2305,-1.2238,-1.2104,-1.2225,-1.2305,-1.2305,-1.2305,-1.2305,-1.2305,-1.2305,-1.2305,-1.2305,-1.2305,-1.2305,-1.2305,-1.2305,-1.2305,-1.2305,-1.2305,-1.2305,-1.2305,-1.2305,-1.2305,-1.2305,-1.2305,-1.2305,-1.2305,-1.2305,-1.2305,-1.2305,-1.2305,-1.2305,-1.2305,-1.2305,-1.2305,-1.2198,-1.1651,-1.0765,-0.968,-0.8568,-0.7541,-0.6645,-0.6049,-0.5922,-0.5939,-0.6023,-0.6078,-0.6078,-0.6078,-0.6078,-0.6078,-0.6078,-0.6078,-0.6078,-0.6078,-0.6078,-0.6078,-0.6078,-0.6078,-0.601,-0.5928,-0.5861,-0.5759,-0.5606,-0.5657,-0.5698,-0.5698,-0.5762,-0.58,-0.58,-0.58,-0.5837,-0.5918,-0.5922,-0.5993,-0.6146,-0.5143,-0.4632,-0.4688,-0.3125,-0.2113,-0.1607,-0.1058,-0.0549,-1.8053,-1.8581,-1.887,-1.8318,-1.8204,-1.7363,-1.413,-1.2789,-1.1512,-0.8989,-0.8275,-0.7968,-0.755,-0.8391,-0.9336,-0.9868,-1.0146,-1.0445,-1.0923,-1.0774,-1.0703,-1.0953,-1.1249,-1.1563,-1.196,-1.2171,-1.2305,-1.2305,-1.2305,-1.2305,-1.2305,-1.2305,-1.2305,-1.2305,-1.2305,-1.2305,-1.2305,-1.2305,-1.2305,-1.2305,-1.2305,-1.2305,-1.2305,-1.2305,-1.2305,-1.2305,-1.2305,-1.2305,-1.2305,-1.2305,-1.2305,-1.2305,-1.2305,-1.2305,-1.2305,-1.2305,-1.2305,-1.2305,-1.2305,-1.2305,-1.2305,-1.2305,-1.2305,-1.2305,-1.2305,-1.1062,-0.9557,-0.9227,-0.7928,-0.6538,-0.6146,-0.6078,-0.6108,-0.6272,-0.63,-0.63,-0.63,-0.63,-0.63,-0.63,-0.63,-0.63,-0.63,-0.63,-0.63,-0.63,-0.63,-0.6255,-0.6095,-0.6078,-0.6034,-0.5911,-0.5871,-0.585,-0.585,-0.5881,-0.5901,-0.5901,-0.5901,-0.5952,-0.6074,-0.6078,-0.6135,-0.6296,-0.5473,-0.504,-0.504,-0.3984,-0.3047,-0.2271,-0.1802,-0.114,-1.8053,-1.8581,-1.887,-1.8318,-1.8204,-1.7476,-1.4664,-1.2793,-1.1175,-0.939,-0.82,-0.7526,-0.7644,-0.822,-0.8998,-1.0002,-1.0545,-1.0786,-1.0656,-1.1164,-1.1435,-1.1045,-1.1249,-1.1643,-1.2204,-1.2285,-1.2305,-1.2305,-1.2305,-1.2305,-1.2305,-1.2305,-1.2305,-1.2305,-1.2305,-1.2305,-1.2305,-1.2305,-1.2305,-1.2305,-1.2305,-1.2305,-1.2305,-1.2305,-1.2305,-1.2305,-1.2305,-1.2305,-1.2305,-1.2305,-1.2305,-1.2305,-1.2305,-1.2305,-1.2305,-1.2305,-1.2305,-1.2305,-1.2305,-1.2305,-1.2305,-1.2305,-1.2305,-1.2305,-1.2305,-1.1545,-1.0484,-0.9535,-0.849,-0.7437,-0.6511,-0.6279,-0.6282,-0.6296,-0.63,-0.63,-0.63,-0.63,-0.63,-0.63,-0.63,-0.63,-0.63,-0.63,-0.63,-0.63,-0.63,-0.6293,-0.6279,-0.6279,-0.6272,-0.6259,-0.6091,-0.5973,-0.5973,-0.6139,-0.6255,-0.6255,-0.6255,-0.6265,-0.6279,-0.6279,-0.6286,-0.63,-0.6222,-0.6141,-0.6141,-0.5079,-0.4491,-0.4375,-0.2465,-0.1547,-1.7551,-1.8116,-1.8405,-1.7852,-1.7714,-1.6942,-1.3951,-1.2395,-1.0967,-0.8729,-0.7634,-0.7224,-0.7627,-0.7799,-0.8315,-0.963,-0.9521,-0.9556,-1.0368,-1.0656,-1.0903,-1.1192,-1.1558,-1.1895,-1.2261,-1.2305,-1.2305,-1.2305,-1.2305,-1.2305,-1.2305,-1.2305,-1.2305,-1.2305,-1.2305,-1.2305,-1.2305,-1.2305,-1.2305,-1.2305,-1.2305,-1.2305,-1.2305,-1.2305,-1.2305,-1.2305,-1.2305,-1.2305,-1.2305,-1.2305,-1.2305,-1.2305,-1.2305,-1.2305,-1.2305,-1.2305,-1.2305,-1.2305,-1.2305,-1.2305,-1.2305,-1.2305,-1.1885,-1.1391,-1.1391,-1.0683,-0.9707,-0.8689,-0.7668,-0.6795,-0.6412,-0.63,-0.63,-0.63,-0.63,-0.63,-0.63,-0.63,-0.63,-0.63,-0.63,-0.63,-0.63,-0.63,-0.63,-0.63,-0.63,-0.63,-0.63,-0.63,-0.63,-0.63,-0.6245,-0.6169,-0.6169,-0.6265,-0.63,-0.63,-0.63,-0.63,-0.63,-0.63,-0.63,-0.63,-0.63,-0.63,-0.63,-0.5867,-0.5355,-0.479,-0.3235,-0.2225,-1.6923,-1.7539,-1.7865,-1.7498,-1.716,-1.6185,-1.3338,-1.181,-1.0389,-0.8238,-0.7254,-0.696,-0.7508,-0.7496,-0.7794,-0.9033,-0.8894,-0.9003,-1.0096,-1.0454,-1.084,-1.1405,-1.1826,-1.2127,-1.2344,-1.2307,-1.2305,-1.2305,-1.2305,-1.2305,-1.2305,-1.2305,-1.2305,-1.2305,-1.2305,-1.2305,-1.2305,-1.2305,-1.2305,-1.2305,-1.2305,-1.2305,-1.2305,-1.2305,-1.2305,-1.2305,-1.2305,-1.2305,-1.2305,-1.2305,-1.2305,-1.2305,-1.2305,-1.2305,-1.2305,-1.2305,-1.2305,-1.2305,-1.2305,-1.2114,-1.1848,-1.1848,-1.1168,-1.0303,-0.9997,-0.9399,-0.8694,-0.8012,-0.7061,-0.63,-0.63,-0.63,-0.63,-0.63,-0.63,-0.63,-0.63,-0.63,-0.63,-0.63,-0.63,-0.63,-0.63,-0.63,-0.63,-0.63,-0.63,-0.63,-0.63,-0.63,-0.63,-0.63,-0.63,-0.63,-0.63,-0.63,-0.63,-0.63,-0.63,-0.63,-0.63,-0.63,-0.63,-0.63,-0.63,-0.632,-0.6361,-0.6361,-0.604,-0.5398,-0.425,-0.302,-1.6233,-1.6948,-1.741,-1.741,-1.6603,-1.5256,-1.318,-1.1099,-0.9319,-0.8227,-0.7202,-0.6684,-0.7297,-0.7397,-0.7619,-0.8304,-0.9065,-0.9658,-0.9873,-1.088,-1.1618,-1.1682,-1.193,-1.221,-1.2468,-1.2379,-1.2305,-1.2305,-1.2305,-1.2305,-1.2305,-1.2305,-1.2305,-1.2305,-1.2305,-1.2305,-1.2305,-1.2305,-1.2305,-1.2305,-1.2305,-1.2305,-1.2305,-1.2305,-1.2305,-1.2305,-1.2305,-1.2305,-1.2305,-1.2305,-1.2305,-1.2305,-1.2305,-1.2305,-1.2305,-1.2305,-1.2305,-1.2305,-1.2305,-1.1657,-1.0826,-1.0826,-1.0153,-0.9145,-0.8122,-0.7821,-0.7821,-0.7821,-0.7061,-0.63,-0.63,-0.63,-0.63,-0.63,-0.63,-0.63,-0.63,-0.63,-0.63,-0.63,-0.63,-0.63,-0.63,-0.63,-0.63,-0.63,-0.63,-0.63,-0.63,-0.63,-0.63,-0.63,-0.63,-0.63,-0.63,-0.63,-0.63,-0.63,-0.63,-0.63,-0.63,-0.63,-0.63,-0.63,-0.63,-0.6368,-0.6511,-0.6511,-0.6549,-0.6657,-0.5563,-0.3892,-1.3773,-1.4511,-1.4983,-1.4353,-1.3928,-1.3245,-1.1579,-1.0156,-0.8886,-0.7821,-0.7118,-0.6841,-0.7307,-0.7511,-0.7965,-0.9043,-0.9445,-0.9934,-1.0927,-1.1364,-1.1662,-1.1829,-1.2069,-1.2256,-1.2349,-1.2337,-1.2305,-1.2305,-1.2305,-1.2305,-1.2305,-1.2305,-1.2305,-1.2305,-1.2305,-1.2305,-1.2305,-1.2305,-1.2305,-1.2305,-1.2305,-1.2305,-1.2305,-1.2305,-1.2305,-1.2305,-1.2305,-1.2305,-1.2305,-1.2305,-1.2305,-1.2305,-1.2305,-1.2305,-1.2305,-1.2305,-1.2305,-1.2187,-1.1502,-1.1087,-1.0677,-1.0008,-0.9107,-0.8199,-0.7897,-0.7783,-0.7668,-0.6984,-0.6528,-0.63,-0.63,-0.63,-0.63,-0.63,-0.63,-0.63,-0.63,-0.63,-0.63,-0.63,-0.63,-0.63,-0.63,-0.63,-0.63,-0.63,-0.63,-0.63,-0.63,-0.63,-0.63,-0.63,-0.63,-0.63,-0.63,-0.63,-0.63,-0.63,-0.63,-0.63,-0.63,-0.63,-0.6344,-0.6443,-0.6446,-0.6518,-0.6627,-0.6627,-0.6284,-0.5607,-0.5389,-0.4041,-1.1834,-1.2805,-1.3402,-1.2663,-1.2189,-1.1572,-1.0319,-0.9134,-0.8093,-0.7426,-0.6946,-0.6827,-0.7414,-0.7624,-0.7958,-0.8746,-0.9281,-0.9876,-1.0626,-1.1231,-1.1679,-1.1953,-1.2215,-1.2393,-1.2393,-1.231,-1.2305,-1.2305,-1.2305,-1.2305,-1.2305,-1.2305,-1.2305,-1.2305,-1.2305,-1.2305,-1.2305,-1.2305,-1.2305,-1.2305,-1.2305,-1.2305,-1.2305,-1.2305,-1.2365,-1.2465,-1.2351,-1.2365,0.0,-1.2351,-1.2305,-1.2305,-1.2305,-1.2305,-1.2261,-1.1879,-1.1731,-1.1583,-1.0565,-0.9997,-0.9545,-0.8955,-0.8046,-0.7249,-0.7249,-0.7249,-0.7099,-0.649,-0.63,-0.63,-0.63,-0.63,-0.63,-0.63,-0.63,-0.63,-0.63,-0.63,-0.63,-0.63,-0.63,-0.63,-0.63,-0.63,-0.63,-0.63,-0.63,-0.63,-0.63,-0.63,-0.632,-0.6375,-0.6378,-0.6405,-0.6463,-0.6364,-0.6323,-0.6375,-0.6378,-0.6405,-0.6463,-0.6467,-0.6508,-0.6556,-0.6559,-0.6634,-0.6787,-0.6841,-0.6524,-0.5863,-0.5546,-0.4601,0.0,-1.1528,-1.232,-1.1844,-1.1033,-1.0138,-0.9314,-0.8035,0.0,-0.7041,-0.6709,-0.6677,-0.7593,-0.7744,-0.7783,-0.7909,-0.8921,-0.9639,-0.9462,-1.0675,-1.1702,-1.2006,-1.2324,-1.2487,-1.2487,-1.2364,-1.2305,-1.2305,-1.2305,-1.2305,-1.2305,-1.2305,-1.2305,-1.2305,-1.2305,-1.2305,-1.2305,-1.2305,-1.2305,-1.2305,-1.2305,-1.2311,-1.2338,-1.2338,-1.2536,-1.2804,-1.2485,-1.2525,-1.2797,-1.2478,-1.2328,-1.2247,-1.2227,-1.2183,-1.1992,-1.1043,-1.07,-1.0556,-0.9559,-0.8622,-0.7821,-0.7744,-0.7095,-0.633,-0.633,-0.6317,-0.63,-0.63,-0.63,-0.63,-0.63,-0.63,-0.63,-0.63,-0.63,-0.63,-0.63,-0.63,-0.63,-0.63,-0.63,-0.63,-0.63,-0.63,-0.6303,-0.6313,-0.6317,-0.632,-0.633,-0.633,-0.6381,-0.6515,-0.6528,-0.6546,-0.6688,-0.6487,-0.6388,-0.6521,-0.6528,-0.6552,-0.6695,-0.6702,-0.6705,-0.6715,-0.6725,-0.6803,-0.6903,-0.7034,-0.7095,-0.7095,-0.6027,-0.5447,-0.7531,0.0,-0.9405,-0.8439,-0.8023,-0.7791,0.0,-0.6792,-0.6193,-0.6504,-0.6484,-0.6777,-0.8013,-0.8238,-0.8652,-0.9932,-1.039,-1.0633,-1.0745,-1.1249,-1.1578,-1.1582,-1.2033,-1.2344,-1.2344,-1.2328,-1.2305,-1.2305,-1.2305,-1.2305,-1.2305,-1.2305,-1.2305,-1.2305,-1.2305,-1.2305,-1.2305,-1.2305,-1.2305,-1.2305,-1.2305,-1.2418,-1.2683,-1.2683,-1.2844,-1.3093,-1.3026,-1.3039,-1.3093,-1.3026,-1.2466,-1.1685,-1.1524,-1.0941,-1.0115,-0.9883,-0.9805,-0.9676,-0.8782,-0.8322,-0.7959,-0.72,-0.6797,-0.6597,-0.6597,-0.648,-0.63,-0.63,-0.63,-0.63,-0.63,-0.63,-0.63,-0.63,-0.63,-0.63,-0.63,-0.63,-0.63,-0.63,-0.63,-0.63,-0.63,-0.63,-0.6337,-0.6446,-0.6463,-0.6504,-0.6583,-0.6597,-0.661,-0.6644,-0.6647,-0.6661,-0.6698,-0.6637,-0.661,-0.6644,-0.6647,-0.6664,-0.6698,-0.6702,-0.6756,-0.6829,-0.694,-0.7011,-0.7048,-0.7082,-0.7095,-0.7095,-0.6827,-0.5755,-0.6156,-0.7246,-0.8329,-0.753,-0.7487,-0.7589,-0.7375,-0.6851,-0.6467,-0.668,-0.6729,-0.7061,-0.8189,-0.8299,-0.8577,-0.9674,-1.0079,-1.0636,-1.1687,-1.1537,-1.1544,-1.2205,-1.2276,-1.2305,-1.2305,-1.2305,-1.2305,-1.2305,-1.2305,-1.2305,-1.2305,-1.2305,-1.2305,-1.2305,-1.2305,-1.2305,-1.2305,-1.2305,-1.2305,-1.2305,-1.2305,-1.2496,-1.2784,-1.2784,-1.3025,-1.336,-1.3267,-1.2955,-1.2609,-1.2483,-1.1736,-1.0665,-1.054,-1.0129,-0.9528,-0.9089,-0.8894,-0.8787,-0.7849,-0.7514,-0.7435,-0.6864,-0.6702,-0.6702,-0.6702,-0.659,-0.6504,-0.6504,-0.6453,-0.6399,-0.6399,-0.6399,-0.6399,-0.6399,-0.6453,-0.6504,-0.6504,-0.6504,-0.6504,-0.6504,-0.6504,-0.6504,-0.6504,-0.6504,-0.6528,-0.6566,-0.6576,-0.6607,-0.6692,-0.6702,-0.6725,-0.6797,-0.6807,-0.6831,-0.6898,-0.6902,-0.6875,-0.681,-0.6807,-0.6834,-0.6898,-0.6902,-0.69,-0.698,-0.7058,-0.7095,-0.7095,-0.7095,-0.7095,-0.7095,-0.7095,-0.6425,-0.5841,-0.6937,-0.8035,-0.7533,-0.7812,-0.8101,-0.77,-0.734,-0.7119,-0.7178,-0.7246,-0.7549,-0.8383,-0.8347,-0.8357,-0.8826,-0.9286,-1.0267,-1.2171,-1.1616,-1.1504,-1.2906,-1.2625,-1.2305,-1.2305,-1.2305,-1.2305,-1.2305,-1.2305,-1.2305,-1.2305,-1.2305,-1.2305,-1.2305,-1.2305,-1.2305,-1.2305,-1.2305,-1.2305,-1.2305,-1.2305,-1.2485,-1.2857,-1.2857,-1.3061,-1.34,-1.3158,-1.2557,-1.1696,-1.1444,-1.0662,-0.9558,-0.9565,-0.9433,-0.9187,-0.8333,-0.8003,-0.7887,-0.7048,-0.6766,-0.6766,-0.6766,-0.6766,-0.6766,-0.6766,-0.6766,-0.6766,-0.6766,-0.6644,-0.6549,-0.6549,-0.6549,-0.6549,-0.6549,-0.6607,-0.6702,-0.6702,-0.6702,-0.6702,-0.6702,-0.6702,-0.6702,-0.6702,-0.6702,-0.6709,-0.6732,-0.6736,-0.6742,-0.6766,-0.6766,-0.6817,-0.6903,-0.6916,-0.6967,-0.7085,-0.7095,-0.7045,-0.6927,-0.6916,-0.697,-0.7092,-0.7095,-0.7095,-0.7095,-0.7095,-0.7095,-0.7095,-0.7095,-0.7095,-0.7095,-0.7095,-0.702,-0.684,-0.7272,-0.7241,-0.6314,-0.6702,-0.7285,-0.7207,-0.7148,-0.7207,-0.7544,-0.793,-0.8399,-0.9047,-0.9117,-0.9359,-1.017,-1.0126,-1.0409,-1.1578,-1.1308,-1.1276,-1.2044,-1.2233,-1.2305,-1.2305,-1.2305,-1.2305,-1.2305,-1.2305,-1.2305,-1.2305,-1.2305,-1.2305,-1.2305,-1.2305,-1.2305,-1.2305,-1.2305,-1.2305,-1.2305,-1.2305,-1.2599,-1.314,-1.314,-1.2915,-1.2487,-1.2445,-1.1804,-1.0813,-1.0781,-1.0043,-0.9,-0.8878,-0.8231,-0.7314,-0.7144,-0.7105,-0.7079,-0.7074,-0.7031,-0.7031,-0.7031,-0.7031,-0.7031,-0.7031,-0.7031,-0.7031,-0.7031,-0.6875,-0.6664,-0.6664,-0.6664,-0.6664,-0.6664,-0.6681,-0.6702,-0.6702,-0.6702,-0.6702,-0.6702,-0.6702,-0.6702,-0.6702,-0.6702,-0.6746,-0.6832,-0.6852,-0.6896,-0.7014,-0.7031,-0.7038,-0.7061,-0.7065,-0.7071,-0.7095,-0.7095,-0.7088,-0.7065,-0.7065,-0.7071,-0.7095,-0.7095,-0.7095,-0.7095,-0.7095,-0.7095,-0.7095,-0.7095,-0.7095,-0.7095,-0.7095,-0.6627,-0.6036,-0.6661,-0.7055,-0.6439,-0.7182,-0.8034,-0.7887,-0.7809,-0.7904,-0.8448,-0.8451,-0.8601,-0.9467,-0.9206,-0.9074,-0.9739,-1.013,-1.0769,-1.1881,-1.1729,-1.1832,-1.2756,-1.254,-1.2305,-1.2305,-1.2305,-1.2305,-1.2305,-1.2305,-1.2305,-1.2305,-1.2305,-1.2305,-1.2305,-1.2305,-1.2305,-1.2305,-1.2496,-1.2583,-1.2583,-1.2583,-1.2859,-1.34,-1.2622,-1.2308,-1.2285,-1.1638,-1.074,-0.9666,-0.9666,-0.8973,-0.7921,-0.7842,-0.7512,-0.7001,-0.7001,-0.7001,-0.7007,-0.7071,-0.7095,-0.7095,-0.7095,-0.7095,-0.7095,-0.7095,-0.7095,-0.7095,-0.7095,-0.6943,-0.6824,-0.6824,-0.6824,-0.6824,-0.6824,-0.6881,-0.6896,-0.6896,-0.6896,-0.6896,-0.6896,-0.6896,-0.6896,-0.6896,-0.6896,-0.692,-0.6991,-0.7001,-0.7021,-0.7088,-0.7095,-0.7095,-0.7095,-0.7095,-0.7095,-0.7095,-0.7095,-0.7095,-0.7095,-0.7095,-0.7095,-0.7095,-0.7095,-0.7095,-0.7095,-0.7095,-0.7095,-0.7095,-0.7095,-0.7139,-0.7265,-0.7265,-0.707,-0.5539,-0.6275,-0.7018,-0.7037,-0.7861,-0.8643,-0.8605,-0.8475,-0.8565,-0.9312,-0.9055,-0.8934,-0.9695,-0.9251,-0.8901,-0.926,-1.0087,-1.1044,-1.2032,-1.2005,-1.2257,-1.3237,-1.2732,-1.2305,-1.2305,-1.2305,-1.2305,-1.2305,-1.2305,-1.2305,-1.2305,-1.2305,-1.2305,-1.2305,-1.2305,-1.2305,-1.2305,-1.2636,-1.275,-1.2683,-1.2521,-1.2668,-1.3067,-1.1739,-1.126,-1.1466,-1.0567,-0.9536,-0.8496,-0.8496,-0.7925,-0.7095,-0.7095,-0.7095,-0.7095,-0.7095,-0.7095,-0.7095,-0.7095,-0.7095,-0.7095,-0.7095,-0.7095,-0.7095,-0.7095,-0.7095,-0.7095,-0.7095,-0.7018,-0.6933,-0.6933,-0.6933,-0.6933,-0.6933,-0.7018,-0.7095,-0.7095,-0.7095,-0.7095,-0.7095,-0.7095,-0.7095,-0.7095,-0.7095,-0.7095,-0.7095,-0.7095,-0.7095,-0.7095,-0.7095,-0.7095,-0.7095,-0.7095,-0.7095,-0.7095,-0.7095,-0.7095,-0.7095,-0.7095,-0.7095,-0.7095,-0.7095,-0.7095,-0.7095,-0.7095,-0.7095,-0.7095,-0.7132,-0.7255,-0.7415,-0.7453,-0.7506,-0.6631,-0.684,-0.6943,-0.7866,-0.7986,-0.8053,-0.8728,-0.8672,-0.8754,-0.9761,-0.9915,-0.9825,-0.9649,-0.9623,-0.963,-0.9668,-1.0388,-1.1095,-1.1417,-1.1733,-1.2013,-1.2375,-1.2335,-1.2305,-1.2305,-1.2305,-1.2305,-1.2305,-1.2305,-1.2305,-1.2305,-1.2305,-1.2305,-1.2305,-1.2305,-1.2305,-1.2305,-1.2636,-1.2643,-1.2338,-1.1656,-1.1414,-1.1594,-1.0514,-0.9687,-0.9148,-0.9061,-0.8321,-0.7228,-0.7228,-0.7183,-0.7095,-0.7095,-0.7095,-0.7095,-0.7095,-0.7095,-0.7095,-0.7095,-0.7095,-0.7095,-0.7095,-0.7095,-0.7095,-0.7095,-0.7095,-0.7095,-0.7095,-0.7088,-0.7082,-0.7082,-0.7082,-0.7082,-0.7082,-0.7088,-0.7095,-0.7095,-0.7095,-0.7095,-0.7095,-0.7095,-0.7095,-0.7095,-0.7095,-0.7095,-0.7095,-0.7095,-0.7095,-0.7095,-0.7095,-0.7095,-0.7095,-0.7095,-0.7095,-0.7095,-0.7095,-0.7095,-0.7095,-0.7095,-0.7095,-0.7095,-0.7095,-0.7095,-0.7095,-0.7095,-0.7095,-0.7095,-0.7285,-0.7405,-0.7419,-0.7516,-0.7658,-0.572,-0.6271,-0.6773,-0.7065,-0.7408,-0.7804,-0.83,-0.8683,-0.9174,-1.0014,-0.9999,-0.9718,-0.9404,-0.954,-0.9715,-0.9715,-1.0421,-1.1096,-1.1349,-1.1683,-1.2013,-1.2265,-1.2305,-1.2305,-1.2305,-1.2305,-1.2305,-1.2305,-1.2305,-1.2305,-1.2305,-1.2305,-1.2305,-1.2305,-1.2305,-1.1996,-1.1354,-1.167,-1.1327,-1.0426,-1.095,-1.101,-1.064,-0.9421,-0.8837,-0.8721,-0.8055,-0.7536,-0.7095,-0.7095,-0.7095,-0.7095,-0.7095,-0.7095,-0.7095,-0.7095,-0.7095,-0.7095,-0.7095,-0.7095,-0.7095,-0.7095,-0.7095,-0.7095,-0.7095,-0.7095,-0.7095,-0.7095,-0.7095,-0.7095,-0.7095,-0.7095,-0.7095,-0.7095,-0.7095,-0.7095,-0.7095,-0.7095,-0.7095,-0.7095,-0.7095,-0.7095,-0.7095,-0.7095,-0.7095,-0.7095,-0.7095,-0.7095,-0.7095,-0.7095,-0.7095,-0.7095,-0.7095,-0.7095,-0.7095,-0.7095,-0.7095,-0.7095,-0.7095,-0.7095,-0.7095,-0.7095,-0.7095,-0.7095,-0.7095,-0.7142,-0.7285,-0.7343,-0.7465,-0.7645,-0.7702,-0.7811,-0.5264,-0.5965,-0.6704,-0.6722,-0.7242,-0.7831,-0.8156,-0.8659,-0.9261,-0.9965,-0.9903,-0.9619,-0.9391,-0.9546,-0.9742,-0.9806,-1.0481,-1.1062,-1.1263,-1.1623,-1.198,-1.2144,-1.2245,-1.2305,-1.2305,-1.2305,-1.2305,-1.2305,-1.2305,-1.2305,-1.2305,-1.2305,-1.2305,-1.2305,-1.1996,-1.1502,-1.082,-1.0673,-0.9985,-0.8846,-0.9722,-0.9911,-0.9512,-0.8287,-0.7883,-0.8146,-0.7399,-0.7095,-0.7095,-0.7095,-0.7095,-0.7095,-0.7095,-0.7095,-0.7095,-0.7095,-0.7095,-0.7095,-0.7095,-0.7095,-0.7095,-0.7095,-0.7095,-0.7095,-0.7095,-0.7095,-0.7095,-0.7095,-0.7095,-0.7095,-0.7095,-0.7095,-0.7095,-0.7095,-0.7095,-0.7095,-0.7095,-0.7095,-0.7095,-0.7095,-0.7095,-0.7095,-0.7095,-0.7095,-0.7095,-0.7095,-0.7095,-0.7095,-0.7095,-0.7095,-0.7095,-0.7095,-0.7095,-0.7095,-0.7095,-0.7095,-0.7095,-0.7095,-0.7095,-0.7095,-0.7095,-0.7095,-0.7095,-0.7095,-0.7142,-0.7265,-0.7415,-0.7465,-0.7614,-0.7814,-0.7862,-0.7891,-0.5599,-0.6133,-0.6773,-0.7109,-0.7656,-0.8163,-0.8427,-0.8652,-0.8985,-0.9573,-0.9722,-0.9715,-0.9715,-0.9715,-0.978,-1.0067,-1.0608,-1.0989,-1.0995,-1.1531,-1.1899,-1.1906,-1.2124,-1.2305,-1.2305,-1.2305,-1.2305,-1.2305,-1.2305,-1.2305,-1.2305,-1.2305,-1.2305,-1.2298,-1.1316,-1.0783,-1.0783,-0.9782,-0.877,-0.7783,-0.7783,-0.7934,-0.8164,-0.715,-0.6861,-0.7095,-0.7095,-0.7095,-0.7095,-0.7095,-0.7095,-0.7095,-0.7095,-0.7095,-0.7095,-0.7095,-0.7095,-0.7095,-0.7095,-0.7095,-0.7095,-0.7095,-0.7095,-0.7095,-0.7095,-0.7095,-0.7095,-0.7095,-0.7095,-0.7095,-0.7095,-0.7095,-0.7095,-0.7095,-0.7095,-0.7095,-0.7095,-0.7095,-0.7095,-0.7095,-0.7095,-0.7095,-0.7095,-0.7095,-0.7095,-0.7095,-0.7095,-0.7095,-0.7095,-0.7095,-0.7095,-0.7095,-0.7095,-0.7095,-0.7095,-0.7095,-0.7095,-0.7095,-0.7095,-0.7095,-0.7095,-0.7098,-0.7098,-0.7098,-0.7295,-0.7419,-0.7422,-0.7668,-0.7811,-0.7818,-0.7921,-0.7988,-0.5351,-0.5797,-0.6365,-0.669,-0.7553,-0.8324,-0.8413,-0.8957,-0.9615,-1.0211,-1.0134,-0.9987,-0.9987,-0.9987,-1.0013,-1.01,-1.0441,-1.0787,-1.0962,-1.1323,-1.1637,-1.1879,-1.2124,-1.2305,-1.2305,-1.2305,-1.2305,-1.2305,-1.2305,-1.2305,-1.2305,-1.2305,-1.1959,-1.1279,-1.0975,-1.011,-0.8685,-0.8385,-0.7744,-0.6756,-0.6756,-0.6823,-0.698,-0.6812,-0.6807,-0.6953,-0.7051,-0.7095,-0.7095,-0.7095,-0.7095,-0.7095,-0.7095,-0.7095,-0.7095,-0.7095,-0.7095,-0.7095,-0.7095,-0.7095,-0.7095,-0.7095,-0.7095,-0.7095,-0.7095,-0.7095,-0.7095,-0.7095,-0.7095,-0.7095,-0.7095,-0.7095,-0.7095,-0.7095,-0.7095,-0.7095,-0.7095,-0.7095,-0.7095,-0.7095,-0.7095,-0.7095,-0.7095,-0.7095,-0.7095,-0.7095,-0.7095,-0.7095,-0.7095,-0.7095,-0.7095,-0.7095,-0.7095,-0.7095,-0.7095,-0.7095,-0.7095,-0.7095,-0.7095,-0.7095,-0.7095,-0.7244,-0.7302,-0.7302,-0.7455,-0.758,-0.7682,-0.777,-0.7868,-0.7921,-0.7015,-0.6581,-0.5705,-0.6103,-0.66,-0.7162,-0.787,-0.8489,-0.8844,-0.9333,-0.9883,-1.0472,-1.0321,-1.0154,-1.0274,-1.02,-1.0154,-1.0274,-1.019,-1.0136,-1.0302,-1.025,-1.0311,-1.0549,-1.0852,-1.1058,-1.1087,-1.1471,-1.1694,-1.1694,-1.207,-1.2114,-1.1731,-1.1694,-1.1242,-1.0228,-0.9814,-0.9021,-0.7821,-0.7403,-0.6911,-0.63,-0.63,-0.6375,-0.6518,-0.663,-0.6814,-0.6974,-0.7058,-0.7095,-0.7095,-0.7095,-0.7095,-0.7095,-0.7095,-0.7095,-0.7095,-0.7095,-0.7095,-0.7095,-0.7095,-0.7095,-0.7095,-0.7095,-0.7095,-0.7095,-0.7095,-0.7095,-0.7095,-0.7095,-0.7095,-0.7095,-0.7095,-0.7095,-0.7095,-0.7095,-0.7095,-0.7095,-0.7095,-0.7095,-0.7095,-0.7095,-0.7095,-0.7095,-0.7095,-0.7095,-0.7095,-0.7095,-0.7095,-0.7095,-0.7095,-0.7095,-0.7095,-0.7095,-0.7095,-0.7095,-0.7095,-0.7095,-0.7122,-0.7227,-0.7231,-0.6985,-0.6536,-0.7077,-0.7446,-0.7461,-0.7083,-0.6903,-0.6979,-0.6537,-0.6352,-0.6376,-0.5572,-0.5222,-0.637,-0.6726,-0.7168,-0.8127,-0.8402,-0.8657,-0.9452,-0.9666,-0.9883,-1.0472,-1.0347,-1.0241,-1.0546,-1.0341,-1.0217,-1.0451,-0.9817,-0.9274,-0.9204,-0.8717,-0.8429,-0.8573,-0.8862,-0.9128,-0.9283,-1.0119,-1.0648,-1.0671,-1.1508,-1.162,-1.0708,-1.0677,-1.019,-0.9183,-0.8275,-0.7744,-0.7668,-0.6756,-0.63,-0.63,-0.63,-0.6375,-0.6518,-0.6617,-0.6841,-0.7078,-0.7092,-0.7095,-0.7095,-0.7095,-0.7095,-0.7095,-0.7095,-0.7095,-0.7095,-0.7095,-0.7095,-0.7095,-0.7095,-0.7095,-0.7095,-0.7095,-0.7095,-0.7095,-0.7095,-0.7095,-0.7095,-0.7095,-0.7095,-0.7095,-0.7095,-0.7095,-0.7095,-0.7095,-0.7095,-0.7095,-0.7095,-0.7095,-0.7095,-0.7095,-0.7095,-0.7095,-0.7095,-0.7095,-0.7095,-0.7095,-0.7095,-0.7095,-0.7095,-0.7095,-0.7095,-0.7095,-0.7095,-0.7102,-0.7115,-0.7119,-0.7135,-0.724,-0.7253,-0.6707,-0.5509,-0.6592,-0.724,-0.7234,-0.6206,-0.5628,-0.5628,-0.4529,-0.4016,-0.4016,-0.3865,-0.3815,-0.5819,-0.6138,-0.6633,-0.7742,-0.8377,-0.8824,-0.9211,-0.9519,-0.9883,-1.0472,-1.0539,-1.0512,-1.0579,-1.0539,-1.0292,-0.9678,-0.9434,-0.9075,-0.8388,-0.8353,-0.8407,-0.8424,-0.8692,-0.8924,-0.9123,-0.9322,-0.9511,-0.9621,-0.9825,-0.9857,-0.9631,-0.9631,-0.9183,-0.8161,-0.7897,-0.7403,-0.6641,-0.6412,-0.63,-0.63,-0.63,-0.6375,-0.6515,-0.6545,-0.6685,-0.6937,-0.7048,-0.7095,-0.7095,-0.7095,-0.7095,-0.7095,-0.7095,-0.7095,-0.7095,-0.7095,-0.7095,-0.7095,-0.7095,-0.7095,-0.7095,-0.7095,-0.7095,-0.7095,-0.7095,-0.7095,-0.7095,-0.7095,-0.7095,-0.7095,-0.7095,-0.7095,-0.7095,-0.7095,-0.7095,-0.7095,-0.7095,-0.7095,-0.7095,-0.7095,-0.7095,-0.7095,-0.7095,-0.7095,-0.7095,-0.7095,-0.7095,-0.7095,-0.7095,-0.7095,-0.7095,-0.7095,-0.7095,-0.7146,-0.7312,-0.7322,-0.6966,-0.6021,-0.5982,-0.5464,-0.4222,-0.5461,-0.5653,-0.4661,-0.4449,-0.439,-0.439,-0.4107,-0.4016,-0.3966,-0.2914,-0.2414,-0.5825,-0.6247,-0.686,-0.8025,-0.8287,-0.8364,-0.8641,-0.8846,-0.9018,-0.9179,-0.9945,-1.0593,-1.0593,-1.0269,-0.9817,-0.937,-0.8613,-0.7892,-0.7437,-0.714,-0.6974,-0.7065,-0.7199,-0.7333,-0.7487,-0.797,-0.8311,-0.8407,-0.8911,-0.9035,-0.8609,-0.858,-0.8122,-0.7099,-0.7099,-0.6834,-0.63,-0.63,-0.63,-0.63,-0.63,-0.6337,-0.6419,-0.6593,-0.6776,-0.6893,-0.7034,-0.7095,-0.7095,-0.7095,-0.7095,-0.7095,-0.7095,-0.7095,-0.7095,-0.7095,-0.7095,-0.7095,-0.7095,-0.7095,-0.7095,-0.7095,-0.7095,-0.7095,-0.7095,-0.7095,-0.7095,-0.7095,-0.7095,-0.7095,-0.7095,-0.7095,-0.7095,-0.7095,-0.7095,-0.7095,-0.7095,-0.7095,-0.7095,-0.7095,-0.7095,-0.7095,-0.7095,-0.7095,-0.7095,-0.7095,-0.7095,-0.7095,-0.7095,-0.7095,-0.7125,-0.7244,-0.7251,-0.7037,-0.6571,-0.6537,-0.6026,-0.4803,-0.4762,-0.4173,-0.2971,-0.3615,-0.3961,-0.391,-0.335,-0.3065,-0.3065,-0.2413,-0.2063,-0.2063,-0.136,-0.1058,-0.58,-0.65,-0.7361,-0.8457,-0.8204,-0.7776,-0.8049,-0.8053,-0.7943,-0.7642,-0.9166,-1.0431,-1.0193,-0.969,-0.9204,-0.8909,-0.7632,-0.6654,-0.6494,-0.5848,-0.5443,-0.5535,-0.5552,-0.5606,-0.5749,-0.6537,-0.708,-0.722,-0.8079,-0.8245,-0.7583,-0.7557,-0.7176,-0.6338,-0.63,-0.63,-0.63,-0.63,-0.63,-0.63,-0.63,-0.63,-0.6313,-0.6671,-0.6865,-0.6856,-0.7024,-0.7095,-0.7095,-0.7095,-0.7095,-0.7095,-0.7095,-0.7095,-0.7095,-0.7095,-0.7095,-0.7095,-0.7095,-0.7095,-0.7095,-0.7095,-0.7095,-0.7095,-0.7095,-0.7095,-0.7095,-0.7095,-0.7095,-0.7095,-0.7095,-0.7095,-0.7095,-0.7095,-0.7095,-0.7095,-0.7095,-0.7095,-0.7095,-0.7095,-0.7095,-0.7095,-0.7095,-0.7095,-0.7095,-0.7095,-0.7095,-0.7095,-0.7095,-0.6856,-0.6789,-0.6953,-0.6841,-0.6345,-0.5374,-0.5289,-0.4758,-0.3581,-0.3488,-0.2919,-0.1711,-0.1661,-0.2163,-0.3265,-0.2213,-0.1661,-0.1661,-0.0555,0.0,0.0,0.0,0.0,-0.4902,-0.6186,-0.7591,-0.8288,-0.8066,-0.7708,-0.777,-0.7505,-0.7219,-0.719,-0.8771,-0.9779,-0.857,-0.8877,-0.8812,-0.7307,-0.685,-0.6429,-0.5686,-0.5458,-0.5402,-0.5423,-0.5426,-0.5484,-0.5603,-0.5755,-0.5941,-0.6192,-0.6321,-0.643,-0.6483,-0.649,-0.6451,-0.63,-0.63,-0.63,-0.63,-0.63,-0.63,-0.63,-0.63,-0.63,-0.6306,-0.6491,-0.6607,-0.6746,-0.6977,-0.7095,-0.7095,-0.7095,-0.7095,-0.7095,-0.7095,-0.7095,-0.7095,-0.7095,-0.7095,-0.7095,-0.7095,-0.7095,-0.7095,-0.7095,-0.7095,-0.7095,-0.7095,-0.7095,-0.7095,-0.7095,-0.7095,-0.7095,-0.7095,-0.7095,-0.7095,-0.7095,-0.7095,-0.7095,-0.7095,-0.7095,-0.7095,-0.7095,-0.7095,-0.7095,-0.7095,-0.7095,-0.7095,-0.7095,-0.7095,-0.7095,-0.7095,-0.5927,-0.5099,-0.5157,-0.4506,-0.4096,-0.4033,-0.404,-0.3534,-0.2303,-0.2255,-0.1657,-0.0303,-0.0252,-0.0353,-0.0555,-0.0353,-0.0252,-0.0252,-0.0101,0.0,0.0,0.0,0.0,-0.5379,-0.6278,-0.713,-0.7665,-0.7315,-0.6791,-0.6521,-0.632,-0.6118,-0.5813,-0.7186,-0.8296,-0.7892,-0.7743,-0.7469,-0.68,-0.6301,-0.5848,-0.5458,-0.5395,-0.5395,-0.5395,-0.5395,-0.5423,-0.5487,-0.5494,-0.5552,-0.5769,-0.5857,-0.5969,-0.6125,-0.6252,-0.63,-0.63,-0.63,-0.63,-0.63,-0.63,-0.63,-0.63,-0.63,-0.63,-0.6306,-0.6446,-0.6556,-0.6712,-0.6886,-0.7021,-0.7095,-0.7095,-0.7095,-0.7095,-0.7095,-0.7095,-0.7095,-0.7095,-0.7095,-0.7095,-0.7095,-0.7095,-0.7095,-0.7095,-0.7095,-0.7095,-0.7095,-0.7095,-0.7095,-0.7095,-0.7095,-0.7095,-0.7095,-0.7095,-0.7095,-0.7095,-0.7095,-0.7095,-0.7095,-0.7095,-0.7095,-0.7095,-0.7095,-0.7095,-0.7095,-0.721,-0.7272,-0.7272,-0.6694,-0.6279,-0.6279,-0.4995,-0.416,-0.4254,-0.3943,-0.3453,-0.2828,-0.2782,-0.2244,-0.0957,-0.0857,-0.0605,0.0,0.0,0.0,0.0,0.0,0.0,0.0,0.0,0.0,0.0,0.0,0.0,-0.5451,-0.5997,-0.6363,-0.68,-0.6487,-0.5987,-0.5539,-0.5345,-0.512,-0.472,-0.5592,-0.6549,-0.6868,-0.6657,-0.6366,-0.6306,-0.5785,-0.5395,-0.5395,-0.5395,-0.5395,-0.5395,-0.5395,-0.5395,-0.5395,-0.5395,-0.5457,-0.5579,-0.5688,-0.583,-0.5983,-0.6139,-0.6259,-0.6296,-0.63,-0.63,-0.63,-0.63,-0.63,-0.63,-0.63,-0.63,-0.6303,-0.6409,-0.6542,-0.6654,-0.6848,-0.6947,-0.7045,-0.7082,-0.7095,-0.7095,-0.7095,-0.7095,-0.7095,-0.7095,-0.7095,-0.7095,-0.7095,-0.7095,-0.7095,-0.7095,-0.7095,-0.7095,-0.7095,-0.7095,-0.7095,-0.7095,-0.7095,-0.7095,-0.7095,-0.7095,-0.7095,-0.7095,-0.7095,-0.7095,-0.7095,-0.7095,-0.7095,-0.7095,-0.7129,-0.7063,-0.6748,-0.682,-0.6922,-0.6851,-0.604,-0.5156,-0.4279,-0.3324,-0.2715,-0.2805,-0.2858,-0.2478,-0.1559,-0.1511,-0.1058,-0.005,0.0,0.0,0.0,0.0,0.0,0.0,0.0,0.0,0.0,0.0,0.0,0.0,0.0,0.0,-0.4322,-0.4925,-0.5431,-0.5713,-0.5812,-0.572,-0.5401,-0.4919,-0.4546,-0.4529,-0.4584,-0.4689,-0.4829,-0.5696,-0.614,-0.5329,-0.5296,-0.5395,-0.5395,-0.5395,-0.5395,-0.5395,-0.5395,-0.5395,-0.5395,-0.5395,-0.5457,-0.5579,-0.5596,-0.5728,-0.5976,-0.6,-0.6108,-0.6293,-0.63,-0.63,-0.63,-0.63,-0.63,-0.63,-0.63,-0.63,-0.63,-0.6306,-0.6388,-0.6542,-0.68,-0.6889,-0.6906,-0.7041,-0.7095,-0.7095,-0.7095,-0.7095,-0.7095,-0.7095,-0.7095,-0.7095,-0.7095,-0.7095,-0.7095,-0.7095,-0.7095,-0.7095,-0.7095,-0.7095,-0.7095,-0.7095,-0.7095,-0.7095,-0.7095,-0.7095,-0.7095,-0.7095,-0.7095,-0.7095,-0.7095,-0.7095,-0.7095,-0.7095,-0.7258,-0.6989,-0.5702,-0.5606,-0.5606,-0.5243,-0.5161,-0.3947,-0.0702,-0.0252,-0.0201,-0.0202,-0.0202,-0.0151,-0.0101,-0.0101,-0.005,0.0,0.0,0.0,0.0,0.0,0.0,0.0,0.0,0.0,0.0,0.0,0.0,0.0,0.0,0.0,-0.4229,-0.4556,-0.4821,-0.5212,-0.5261,-0.5176,-0.4952,-0.4707,-0.4491,-0.4491,-0.4491,-0.4508,-0.4563,-0.4969,-0.5271,-0.5129,-0.5143,-0.5247,-0.5382,-0.5395,-0.5395,-0.5395,-0.5395,-0.5395,-0.5395,-0.5395,-0.5419,-0.5474,-0.5569,-0.5677,-0.5874,-0.5939,-0.6101,-0.6293,-0.63,-0.63,-0.63,-0.63,-0.63,-0.63,-0.63,-0.63,-0.63,-0.63,-0.6327,-0.6385,-0.6549,-0.6749,-0.6889,-0.694,-0.7014,-0.7095,-0.7095,-0.7095,-0.7095,-0.7095,-0.7095,-0.7095,-0.7095,-0.7095,-0.7095,-0.7095,-0.7095,-0.7095,-0.7095,-0.7095,-0.7095,-0.7095,-0.7095,-0.7095,-0.7095,-0.7095,-0.7095,-0.7095,-0.7095,-0.7095,-0.7095,-0.7095,-0.69,-0.6133,-0.6048,-0.5904,-0.5145,-0.4699,-0.4207,-0.3485,-0.324,-0.2687,-0.1459,-0.0555,0.0,0.0,0.0,0.0,0.0,0.0,0.0,0.0,0.0,0.0,0.0,0.0,0.0,0.0,0.0,0.0,0.0,0.0,0.0,0.0,0.0,0.0,-0.3989,-0.4182,-0.436,-0.4762,-0.4773,-0.4665,-0.4706,-0.4545,-0.4395,-0.4395,-0.4457,-0.4491,-0.4491,-0.4573,-0.4694,-0.4942,-0.4995,-0.5094,-0.5199,-0.5286,-0.5284,-0.5284,-0.5361,-0.5395,-0.5395,-0.5395,-0.5395,-0.5395,-0.5491,-0.5576,-0.5722,-0.5871,-0.6047,-0.6293,-0.63,-0.63,-0.63,-0.63,-0.63,-0.63,-0.63,-0.63,-0.63,-0.63,-0.63,-0.6306,-0.6402,-0.6542,-0.6783,-0.6846,-0.694,-0.7031,-0.7078,-0.7095,-0.7095,-0.7095,-0.7095,-0.7095,-0.7095,-0.7095,-0.7095,-0.7095,-0.7095,-0.7095,-0.7095,-0.7095,-0.7095,-0.7095,-0.7095,-0.7095,-0.7095,-0.7095,-0.7095,-0.7095,-0.6827,-0.6517,-0.6517,-0.651,-0.6296,-0.5557,-0.5122,-0.4659,-0.4103,-0.3533,-0.2811,-0.177,-0.1446,-0.131,-0.131,-0.0555,0.0,0.0,0.0,0.0,0.0,0.0,0.0,0.0,0.0,0.0,0.0,0.0,0.0,0.0,0.0,0.0,0.0,0.0,0.0,0.0,0.0,0.0,0.0,0.0,0.0,-0.4308,-0.4279,-0.4256,-0.4591,-0.4415,-0.4193,-0.4201,-0.4348,-0.4501,-0.4487,-0.4491,-0.4539,-0.466,-0.4813,-0.4884,-0.4887,-0.5005,-0.5093,-0.51,-0.5264,-0.5388,-0.5395,-0.5395,-0.5395,-0.5395,-0.5395,-0.5463,-0.5583,-0.5728,-0.5945,-0.6282,-0.6296,-0.63,-0.63,-0.63,-0.63,-0.63,-0.63,-0.63,-0.63,-0.63,-0.63,-0.63,-0.63,-0.6378,-0.6528,-0.6793,-0.6876,-0.69,-0.7038,-0.7092,-0.7095,-0.7095,-0.7095,-0.7095,-0.7095,-0.7095,-0.7095,-0.7095,-0.7095,-0.7095,-0.7095,-0.7095,-0.7095,-0.7095,-0.7095,-0.7095,-0.7095,-0.7095,-0.7095,-0.7051,-0.6204,-0.5406,-0.5364,-0.5317,-0.5303,-0.5303,-0.4474,-0.3416,-0.2477,-0.2129,-0.1511,-0.0202,0.0,0.0,0.0,0.0,0.0,0.0,0.0,0.0,0.0,0.0,0.0,0.0,0.0,0.0,0.0,0.0,0.0,0.0,0.0,0.0,0.0,0.0,0.0,0.0,0.0,0.0,-0.3566,0.0,0.0,0.0,0.0,0.0,-0.3852,-0.3826,-0.3815,-0.4024,-0.4175,-0.4325,-0.4484,-0.4491,-0.4505,-0.4545,-0.4653,-0.4792,-0.4874,-0.4921,-0.4985,-0.5086,-0.5137,-0.524,-0.5385,-0.5395,-0.5395,-0.5395,-0.5395,-0.5463,-0.5583,-0.583,-0.6006,-0.6091,-0.6242,-0.63,-0.63,-0.63,-0.63,-0.63,-0.63,-0.63,-0.63,-0.63,-0.63,-0.63,-0.63,-0.6323,-0.6371,-0.6522,-0.6729,-0.6889,-0.693,-0.7007,-0.7095,-0.7095,-0.7095,-0.7095,-0.7095,-0.7095,-0.7095,-0.7095,-0.7095,-0.7095,-0.7095,-0.7095,-0.7095,-0.7095,-0.7095,-0.7095,-0.7095,-0.7095,-0.6871,-0.6071,-0.5625,-0.5156,-0.4278,-0.3388,-0.2781,-0.2781,-0.2551,-0.2015,-0.0847,-0.0603,-0.0404,-0.005,0.0,0.0,0.0,0.0,0.0,0.0,0.0,0.0,0.0,0.0,0.0,0.0,0.0,0.0,0.0,0.0,0.0,0.0,0.0,0.0,0.0,0.0,0.0,0.0,0.0,0.0,-0.3903,-0.387,-0.3885,-0.3946,0.0,0.0,-0.3677,-0.3581,-0.3471,-0.3779,-0.393,-0.4082,-0.4268,-0.4328,-0.4372,-0.4372,-0.4497,-0.4655,-0.4714,-0.4782,-0.4853,-0.4938,-0.4972,-0.5101,-0.525,-0.5267,-0.5324,-0.5388,-0.5395,-0.5463,-0.5583,-0.5806,-0.5925,-0.599,-0.6179,-0.63,-0.63,-0.63,-0.63,-0.63,-0.63,-0.63,-0.63,-0.63,-0.63,-0.63,-0.63,-0.63,-0.6306,-0.6388,-0.6525,-0.6753,-0.6836,-0.6937,-0.7014,-0.7075,-0.7095,-0.7095,-0.7095,-0.7095,-0.7095,-0.7095,-0.7095,-0.7095,-0.7095,-0.7095,-0.7095,-0.7095,-0.7095,-0.7007,-0.6517,-0.6381,-0.6115,-0.491,-0.4285,-0.3683,-0.2982,-0.1922,-0.1193,-0.1684,-0.1371,-0.0847,-0.0101,0.0,0.0,0.0,0.0,0.0,0.0,0.0,0.0,0.0,0.0,0.0,0.0,0.0,0.0,0.0,0.0,0.0,0.0,0.0,0.0,0.0,0.0,0.0,0.0,0.0,0.0,0.0,0.0,0.0,-0.4251,-0.4029,0.0,-0.4306,-0.3689,0.0,-0.3682,-0.3421,-0.3155,-0.3448,-0.3612,-0.3749,-0.3907,-0.4045,-0.4123,-0.4123,-0.4324,-0.447,-0.4487,-0.4607,-0.467,-0.4687,-0.4809,-0.4918,-0.5063,-0.509,-0.5186,-0.5358,-0.5385,-0.5453,-0.5555,-0.5701,-0.5847,-0.5963,-0.6156,-0.6282,-0.63,-0.63,-0.63,-0.63,-0.63,-0.63,-0.63,-0.63,-0.63,-0.63,-0.63,-0.63,-0.63,-0.63,-0.6381,-0.6542,-0.679,-0.6869,-0.6903,-0.7045,-0.7095,-0.7095,-0.7095,-0.7095,-0.7095,-0.7095,-0.7095,-0.7095,-0.7095,-0.7095,-0.7095,-0.6962,-0.6918,-0.665,-0.5492,-0.5179,-0.491,-0.3703,-0.2592,-0.1757,-0.1613,-0.0753,-0.0336,-0.1371,-0.0748,0.0,0.0,0.0,0.0,0.0,0.0,0.0,0.0,0.0,0.0,0.0,0.0,0.0,0.0,0.0,0.0,0.0,0.0,0.0,0.0,0.0,0.0,0.0,0.0,0.0,0.0,0.0,0.0,0.0,0.0,0.0,-0.3769,-0.3892,-0.3953,-0.3384,-0.3344,0.0,-0.2682,-0.2755,-0.2924,-0.2874,-0.2984,-0.3171,-0.3469,-0.3628,-0.371,-0.371,-0.4011,-0.4304,-0.4474,-0.4515,-0.458,-0.4677,-0.4718,-0.4796,-0.4914,-0.5032,-0.511,-0.514,-0.5324,-0.5405,-0.5436,-0.5549,-0.5698,-0.584,-0.5996,-0.6135,-0.6296,-0.63,-0.63,-0.63,-0.63,-0.63,-0.63,-0.63,-0.63,-0.63,-0.63,-0.63,-0.63,-0.63,-0.6381,-0.6528,-0.6675,-0.682,-0.6903,-0.7045,-0.7095,-0.7095,-0.7095,-0.7095,-0.7095,-0.7095,-0.7095,-0.7095,-0.7095,-0.7095,-0.6918,-0.5983,-0.5714,-0.5445,-0.4239,-0.3972,-0.366,-0.2458,-0.1969,-0.1538,-0.0564,-0.0143,-0.0048,-0.0299,-0.0151,0.0,0.0,0.0,0.0,0.0,0.0,0.0,0.0,0.0,0.0,0.0,0.0,0.0,0.0,0.0,0.0,0.0,0.0,0.0,0.0,0.0,0.0,0.0,0.0,0.0,0.0,0.0,0.0,0.0,0.0,0.0,-0.3999,-0.398,-0.3918,-0.3545,-0.3308,0.0,0.0,-0.2671,-0.2763,-0.2992,-0.2911,-0.2951,-0.3416,-0.3466,-0.349,-0.359,-0.389,-0.4105,-0.4153,-0.4348,-0.4518,-0.4597,-0.4604,-0.4665,-0.4792,-0.487,-0.4941,-0.509,-0.5203,-0.5281,-0.5392,-0.5542,-0.5623,-0.5694,-0.5878,-0.603,-0.6146,-0.6259,-0.63,-0.63,-0.63,-0.63,-0.63,-0.63,-0.63,-0.63,-0.63,-0.63,-0.63,-0.63,-0.634,-0.6429,-0.6614,-0.6749,-0.6841,-0.7014,-0.7095,-0.7095,-0.7095,-0.7095,-0.7095,-0.7095,-0.7095,-0.7095,-0.7095,-0.6694,-0.6115,-0.5581,-0.4954,-0.4241,-0.3037,-0.2681,-0.2413,-0.121,-0.0897,-0.0726,-0.0142,0.0,0.0,0.0,0.0,0.0,0.0,0.0,0.0,0.0,0.0,0.0,0.0,0.0,0.0,0.0,0.0,0.0,0.0,0.0,0.0,0.0,0.0,0.0,0.0,0.0,0.0,0.0,0.0,0.0,0.0,0.0,0.0,0.0,0.0,0.0,-0.4292,-0.411,-0.3877,-0.3877,-0.3409,-0.2947,0.0,0.0,0.0,-0.3128,-0.2925,-0.2822,-0.3372,-0.3327,-0.3273,-0.3413,-0.3704,-0.3863,-0.3653,-0.4058,-0.4361,-0.4361,-0.4412,-0.4498,-0.4592,-0.4606,-0.4738,-0.5032,-0.5029,-0.5125,-0.5341,-0.5498,-0.5559,-0.5589,-0.5847,-0.5963,-0.5993,-0.6183,-0.63,-0.63,-0.63,-0.63,-0.63,-0.63,-0.63,-0.63,-0.63,-0.63,-0.63,-0.63,-0.63,-0.633,-0.6586,-0.6702,-0.6736,-0.6987,-0.7095,-0.7095,-0.7095,-0.7095,-0.7095,-0.7095,-0.7095,-0.7051,-0.6827,-0.6115,-0.5314,-0.4823,-0.4018,-0.2992,-0.1745,-0.1433,-0.121,-0.0225,0.0,0.0,0.0,0.0,0.0,0.0,0.0,0.0,0.0,0.0,0.0,0.0,0.0,0.0,0.0,0.0,0.0,0.0,0.0,0.0,0.0,0.0,0.0,0.0,0.0,0.0,0.0,0.0,0.0,0.0,0.0,0.0,0.0,0.0,0.0,0.0,0.0,0.0,-0.4084,-0.409,-0.402,-0.3519,-0.3609,-0.3632,-0.2767,0.0,-0.2801,-0.2646,0.0,-0.2613,-0.2924,0.0,0.0,-0.2819,-0.3279,-0.3483,-0.3069,-0.3507,-0.389,-0.389,-0.4082,-0.4227,-0.4244,-0.4244,-0.4449,-0.4881,-0.4816,-0.4863,-0.511,-0.5301,-0.5484,-0.5586,-0.5745,-0.5891,-0.599,-0.6183,-0.63,-0.63,-0.63,-0.63,-0.63,-0.63,-0.63,-0.63,-0.63,-0.63,-0.63,-0.63,-0.63,-0.633,-0.6586,-0.6702,-0.6736,-0.6987,-0.7095,-0.7095,-0.7095,-0.7095,-0.7095,-0.7095,-0.7095,-0.6918,-0.5894,-0.5492,-0.4956,-0.2816,-0.2102,-0.1746,-0.0539,-0.0225,-0.018,-0.0045,0.0,0.0,0.0,0.0,0.0,0.0,0.0,0.0,0.0,0.0,0.0,0.0,0.0,0.0,0.0,0.0,0.0,0.0,0.0,0.0,0.0,0.0,0.0,0.0,0.0,0.0,0.0,0.0,0.0,0.0,0.0,0.0,0.0,0.0,0.0,0.0,0.0,0.0,-0.4038,-0.4041,-0.4008,-0.3667,-0.3596,-0.3472,-0.2961,-0.2876,-0.2902,-0.2964,0.0,0.0,0.0,0.0,0.0,0.0,-0.308,-0.3093,-0.2815,-0.3066,-0.3378,-0.3662,-0.3782,-0.3903,-0.4072,-0.4092,-0.4274,-0.4752,-0.454,-0.4611,-0.5073,-0.5192,-0.5298,-0.5487,-0.5681,-0.5833,-0.5895,-0.6177,-0.63,-0.63,-0.63,-0.63,-0.63,-0.63,-0.63,-0.63,-0.63,-0.63,-0.63,-0.63,-0.63,-0.633,-0.6586,-0.6702,-0.6736,-0.6987,-0.7095,-0.7095,-0.7095,-0.7095,-0.7095,-0.7095,-0.665,-0.6027,-0.5536,-0.4421,-0.3084,-0.2103,-0.1299,-0.0628,-0.0135,0.0,0.0,0.0,0.0,0.0,0.0,0.0,0.0,0.0,0.0,0.0,0.0,0.0,0.0,0.0,0.0,0.0,0.0,0.0,0.0,0.0,0.0,0.0,0.0,0.0,0.0,0.0,0.0,0.0,0.0,0.0,0.0,0.0,0.0,0.0,0.0,0.0,0.0,0.0,0.0,0.0,-0.4172,-0.4141,-0.4073,-0.3802,-0.3571,-0.332,-0.3044,-0.2966,-0.301,-0.3202,-0.3165,0.0,0.0,0.0,-0.2907,-0.3023,0.0,-0.2886,-0.2669,-0.2768,-0.2968,-0.3314,-0.3442,-0.3619,-0.3873,-0.3799,-0.3954,-0.447,-0.424,-0.4355,-0.4945,-0.5056,-0.5182,-0.5327,-0.5589,-0.5762,-0.58,-0.6064,-0.6255,-0.63,-0.63,-0.63,-0.63,-0.63,-0.63,-0.63,-0.63,-0.63,-0.63,-0.63,-0.63,-0.633,-0.6586,-0.6702,-0.6736,-0.6987,-0.7095,-0.7095,-0.7095,-0.7095,-0.7095,-0.7095,-0.6337,-0.5359,-0.5001,-0.3439,-0.1746,-0.1388,-0.0673,0.0,0.0,0.0,0.0,0.0,0.0,0.0,0.0,0.0,0.0,0.0,0.0,0.0,0.0,0.0,0.0,0.0,0.0,0.0,0.0,0.0,0.0,0.0,0.0,0.0,0.0,0.0,0.0,0.0,0.0,0.0,0.0,0.0,0.0,0.0,0.0,0.0,0.0,0.0,0.0,0.0,0.0,0.0,-0.4477,-0.4477,-0.4334,-0.3754,-0.3604,-0.344,-0.2846,-0.2913,-0.3098,-0.3108,-0.3358,-0.3583,-0.36,-0.3421,-0.3196,-0.2943,-0.301,0.0,0.0,-0.2623,-0.271,-0.2723,-0.3074,-0.3398,-0.36,-0.3324,-0.3377,-0.3971,-0.3894,-0.4066,-0.4674,-0.4945,-0.51,-0.5106,-0.5437,-0.5661,-0.58,-0.5922,-0.6112,-0.63,-0.63,-0.63,-0.63,-0.63,-0.63,-0.63,-0.63,-0.63,-0.63,-0.63,-0.63,-0.633,-0.6586,-0.6702,-0.6736,-0.6987,-0.7095,-0.7095,-0.7095,-0.7095,-0.7095,-0.7095,-0.6337,-0.5179,-0.4016,-0.2769,-0.1567,-0.0404,-0.0045,0.0,0.0,0.0,0.0,0.0,0.0,0.0,0.0,0.0,0.0,0.0,0.0,0.0,0.0,0.0,0.0,0.0,0.0,0.0,0.0,0.0,0.0,0.0,0.0,0.0,0.0,0.0,0.0,0.0,0.0,0.0,0.0,0.0,0.0,0.0,0.0,0.0,0.0,0.0,0.0,0.0,0.0,0.0,-0.4491,-0.4491,-0.4395,-0.3968,-0.3724,-0.3494,-0.3066,-0.3108,-0.3202,-0.3121,-0.3439,-0.3713,-0.3621,-0.3371,-0.3145,-0.3047,-0.2652,-0.2354,0.0,-0.2269,-0.2276,-0.2363,-0.2767,-0.306,-0.313,-0.2875,-0.2829,-0.3111,-0.317,-0.3431,-0.3952,-0.4605,-0.5002,-0.5096,-0.543,-0.5657,-0.58,-0.5915,-0.6108,-0.63,-0.63,-0.63,-0.63,-0.63,-0.63,-0.63,-0.63,-0.63,-0.63,-0.63,-0.63,-0.633,-0.6586,-0.6702,-0.6736,-0.6987,-0.7095,-0.7095,-0.7095,-0.7095,-0.6962,-0.6204,-0.5176,-0.3972,-0.2771,-0.1567,-0.0539,-0.0135,0.0,0.0,0.0,0.0,0.0,0.0,0.0,0.0,0.0,0.0,0.0,0.0,0.0,0.0,0.0,0.0,0.0,0.0,0.0,0.0,0.0,0.0,0.0,0.0,0.0,0.0,0.0,0.0,0.0,0.0,0.0,0.0,0.0,0.0,0.0,0.0,0.0,0.0,0.0,0.0,0.0,0.0,0.0,0.0,-0.4491,-0.4491,-0.4419,-0.4094,-0.3877,-0.3643,-0.3263,-0.334,-0.3441,-0.3314,-0.3554,-0.3782,-0.3744,-0.3315,-0.2964,-0.2964,-0.2346,-0.1847,0.0,-0.1729,-0.1772,-0.2035,-0.2474,-0.2719,-0.2585,-0.2531,-0.2473,-0.2386,-0.2546,-0.2892,-0.3451,-0.4148,-0.4679,-0.5022,-0.5348,-0.5603,-0.58,-0.5898,-0.6054,-0.63,-0.63,-0.63,-0.63,-0.63,-0.63,-0.63,-0.63,-0.63,-0.63,-0.63,-0.63,-0.633,-0.6586,-0.6702,-0.6736,-0.6987,-0.7095,-0.7095,-0.7095,-0.7095,-0.6918,-0.5761,-0.4599,-0.3393,-0.2147,-0.0941,0.0,0.0,0.0,0.0,0.0,0.0,0.0,0.0,0.0,0.0,0.0,0.0,0.0,0.0,0.0,0.0,0.0,0.0,0.0,0.0,0.0,0.0,0.0,0.0,0.0,0.0,0.0,0.0,0.0,0.0,0.0,0.0,0.0,0.0,0.0,0.0,0.0,0.0,0.0,0.0,0.0,0.0,0.0,0.0,0.0,0.0]},{"header":{"parameterUnit":"m.s-1","parameterCategory":1,"la1":30.6,"la2":29.2853,"lo1":-89.7004,"lo2":-87.6739,"dy":0.0162,"dx":0.0183,"nx":112,"ny":82,"refTime":"2024-09-16T12:00:00:Z","depth":0,"parameterNumber":3,"parameterNumberName":"V-component_of_WINDS"},"data":[0.0,0.0,0.0,0.0,0.0,0.0,0.0,0.0,0.0,0.0,0.0,0.0,0.0,0.0,0.0,0.0,0.0,0.0,0.0,0.0,0.0,0.0,0.0,0.0,0.0,0.0,0.0,0.0,0.0,0.0,0.0,0.0,0.0,0.0,0.0,0.0,0.0,0.0,0.0,0.0,0.0,0.0,0.0,0.0,0.0,0.0,0.0,0.0,0.0,0.0,0.0,0.0,0.0,0.0,0.0,0.0,0.0,0.0,0.0,0.0,0.0,0.0,0.0,0.0,0.0,0.0,0.0,0.0,0.0,0.0,0.0,0.0,0.0,0.0,0.0,0.0,0.0,0.0,0.0,0.0,0.0,0.0,0.0,0.0,0.0,0.0,0.0,0.0,0.0,0.0,1.6066,1.8332,2.1995,2.4298,2.4298,2.4052,2.1837,1.701,0.0,0.0,0.0,0.0,0.0,0.0,0.0,0.0,0.0,0.0,0.0,0.0,0.0,0.0,0.0,0.0,0.0,0.0,0.0,0.0,0.0,0.0,0.0,0.0,0.0,0.0,0.0,0.0,0.0,0.0,0.0,0.0,0.0,0.0,0.0,0.0,0.0,0.0,0.0,0.0,0.0,0.0,0.0,0.0,0.0,0.0,0.0,0.0,0.0,0.0,0.0,0.0,0.0,0.0,0.0,0.0,0.0,0.0,0.0,0.0,0.0,0.0,0.0,0.0,0.0,0.0,0.0,0.0,0.0,0.0,0.0,0.0,0.0,0.0,0.0,0.0,0.0,0.0,0.0,0.0,0.0,0.0,0.0,0.0,0.0,0.0,0.0,0.0,0.0,0.0,0.0,0.0,0.0,0.0,0.0,0.0,0.0,0.0,0.0,0.0,0.0,0.0,0.0,0.0,1.6955,2.1555,2.3894,2.5115,2.5115,2.3812,2.1451,1.784,0.0,0.0,0.0,0.0,0.0,0.0,0.0,0.0,0.0,0.0,0.0,0.0,0.0,0.0,0.0,0.0,0.0,0.0,0.0,0.0,0.0,0.0,0.0,0.0,0.0,0.0,0.0,0.0,0.0,0.0,0.0,0.0,0.0,0.0,0.0,0.0,0.0,0.0,0.0,0.0,0.0,0.0,0.0,0.0,0.0,0.0,0.0,0.0,0.0,0.0,0.0,0.0,0.0,0.0,0.0,0.0,0.0,0.0,0.0,0.0,0.0,0.0,0.0,0.0,0.0,0.0,0.0,0.0,0.0,0.0,0.0,0.0,0.0,0.0,0.0,0.0,0.0,0.0,0.0,0.0,0.0,0.0,0.0,0.0,0.0,0.0,0.0,0.0,0.0,0.0,0.0,0.0,0.0,0.0,0.0,0.0,0.0,0.0,0.0,0.0,0.0,0.0,0.0,1.6264,1.868,2.2393,2.4288,2.5308,2.5308,2.3755,2.1343,1.796,1.6515,0.0,0.0,0.0,0.0,0.0,0.0,0.0,0.0,0.0,0.0,0.0,0.0,0.0,0.0,0.0,0.0,0.0,0.0,0.0,0.0,0.0,0.0,0.0,0.0,0.0,0.0,0.0,0.0,0.0,0.0,0.0,0.0,0.0,0.0,0.0,0.0,0.0,0.0,0.0,0.0,0.0,0.0,0.0,0.0,0.0,0.0,0.0,0.0,0.0,0.0,0.0,0.0,0.0,0.0,0.0,0.0,0.0,0.0,0.0,0.0,0.0,0.0,0.0,0.0,0.0,0.0,0.0,0.0,0.0,0.0,0.0,0.0,0.0,0.0,0.0,0.0,0.0,0.0,0.0,0.0,0.0,0.0,0.0,0.0,0.0,0.0,0.0,0.0,0.0,0.0,0.0,0.0,0.0,0.0,0.0,0.0,0.0,0.0,0.0,0.0,0.0,0.0,1.8596,2.0412,2.2566,2.4288,2.5212,2.5019,2.3293,2.0835,1.7622,1.5657,0.0,0.0,0.0,0.0,0.0,0.0,0.0,0.0,0.0,0.0,0.0,0.0,0.0,0.0,0.0,0.0,0.0,0.0,0.0,0.0,0.0,0.0,0.0,0.0,0.0,0.0,0.0,0.0,0.0,0.0,0.0,0.0,0.0,0.0,0.0,0.0,0.0,0.0,0.0,0.0,0.0,0.0,0.0,0.0,0.0,0.0,0.0,0.0,0.0,0.0,0.0,0.0,0.0,0.0,0.0,0.0,0.0,0.0,0.0,0.0,0.0,0.0,0.0,0.0,0.0,0.0,0.0,0.0,0.0,0.0,0.0,0.0,0.0,0.0,0.0,0.0,0.0,0.0,0.0,0.0,0.0,0.0,0.0,0.0,0.0,0.0,0.0,0.0,0.0,0.0,0.0,0.0,0.0,0.0,0.0,0.0,0.0,0.0,0.0,0.0,0.0,0.0,1.8862,2.1696,2.2682,2.4288,2.5,2.424,2.1908,1.9369,1.6756,1.4258,0.0,0.0,0.0,0.0,0.0,0.0,0.0,0.0,0.0,0.0,0.0,0.0,0.0,0.0,0.0,0.0,0.0,0.0,0.0,0.0,0.0,0.0,0.0,0.0,0.0,0.0,0.0,0.0,0.0,0.0,0.0,0.0,0.0,0.0,0.0,0.0,0.0,0.0,0.0,0.0,0.0,0.0,0.0,0.0,0.0,0.0,0.0,0.0,0.0,0.0,0.0,0.0,0.0,0.0,0.0,0.0,0.0,0.0,0.0,0.0,0.0,0.0,0.0,0.0,0.0,0.0,0.0,0.0,0.0,0.0,0.0,0.0,0.0,0.0,0.0,0.0,0.0,0.0,0.0,0.0,0.0,0.0,0.0,0.0,0.0,0.0,0.0,0.0,0.0,0.0,0.0,0.0,0.0,0.0,0.0,0.0,0.0,0.0,0.0,0.0,0.0,0.0,1.8474,2.1273,2.2643,2.4288,2.4962,2.4168,2.272,2.0331,1.6737,0.0,0.0,0.0,0.0,0.0,0.0,0.0,0.0,0.0,0.0,0.0,0.0,0.0,0.0,0.0,0.0,0.0,0.0,0.0,0.0,0.0,0.0,0.0,0.0,0.0,0.0,0.0,0.0,0.0,0.0,0.0,0.0,0.0,0.0,0.0,0.0,0.0,0.0,0.0,0.0,0.0,0.0,0.0,0.0,0.0,0.0,0.0,0.0,0.0,0.0,0.0,0.0,0.0,0.0,0.0,0.0,0.0,0.0,0.0,0.0,0.0,0.0,0.0,0.0,0.0,0.0,0.0,0.0,0.0,0.0,0.0,0.0,0.0,0.0,0.0,0.0,0.0,0.0,0.0,0.0,0.0,0.0,0.0,0.0,0.0,0.0,0.0,0.0,0.0,0.0,0.0,0.0,0.0,0.0,0.0,0.0,0.0,0.0,0.0,0.0,0.0,0.0,1.5148,1.8699,2.1523,2.2682,2.4288,2.4865,2.3778,2.2393,2.0027,1.6311,0.0,0.0,0.0,0.0,0.0,0.0,0.0,0.0,0.0,0.0,0.0,0.0,0.0,0.0,0.0,0.0,0.0,0.0,0.0,0.0,0.0,0.0,0.0,0.0,0.0,0.0,0.0,0.0,0.0,0.0,0.0,0.0,0.0,0.0,0.0,0.0,0.0,0.0,0.0,0.0,0.0,0.0,0.0,0.0,0.0,0.0,0.0,0.0,0.0,0.0,0.0,0.0,0.0,0.0,0.0,0.0,0.0,0.0,0.0,0.0,0.0,0.0,0.0,0.0,0.0,0.0,0.0,0.0,0.0,0.0,0.0,0.0,0.0,0.0,0.0,0.0,0.0,0.0,0.0,0.0,0.0,0.0,0.0,0.0,0.0,0.0,0.0,0.0,0.0,0.0,0.0,0.0,0.0,0.0,0.0,0.0,0.0,0.0,0.0,0.0,0.0,0.0,1.5305,1.968,2.2797,2.2797,2.4288,2.4615,2.2932,2.0473,1.7911,0.0,0.0,0.0,0.0,0.0,0.0,0.0,0.0,0.0,0.0,0.0,0.0,0.0,0.0,0.0,0.0,0.0,0.0,0.0,0.0,0.0,0.0,0.0,0.0,0.0,0.0,0.0,0.0,0.0,0.0,0.0,0.0,0.0,0.0,0.0,0.0,0.0,0.0,0.0,0.0,0.0,0.0,0.0,0.0,0.0,0.0,0.0,0.0,0.0,0.0,0.0,0.0,0.0,0.0,0.0,0.0,0.0,0.0,0.0,0.0,0.0,0.0,0.0,0.0,0.0,0.0,0.0,0.0,0.0,0.0,0.0,0.0,0.0,0.0,0.0,0.0,0.0,0.0,0.0,0.0,0.0,0.0,0.0,0.0,0.0,0.0,0.0,0.0,0.0,0.0,0.0,0.0,0.0,0.0,0.0,0.0,0.0,0.0,0.0,0.0,0.0,0.0,0.0,1.5305,1.968,2.2797,2.2797,2.3798,2.4009,2.2893,2.1023,1.8561,1.5404,0.0,0.0,0.0,0.0,0.0,0.0,0.0,0.0,0.0,0.0,0.0,0.0,0.0,0.0,0.0,0.0,0.0,0.0,0.0,0.0,0.0,0.0,0.0,0.0,0.0,0.0,0.0,0.0,0.0,0.0,0.0,0.0,0.0,0.0,0.0,0.0,0.0,0.0,0.0,0.0,0.0,0.0,0.0,0.0,0.0,0.0,0.0,0.0,0.0,0.0,0.0,0.0,0.0,0.0,0.0,0.0,0.0,0.0,0.0,0.0,0.0,0.0,0.0,0.0,0.0,0.0,0.0,0.0,0.0,0.0,0.0,0.0,0.0,0.0,0.0,0.0,0.0,0.0,0.0,0.0,0.0,0.0,0.0,0.0,0.0,0.0,0.0,0.0,0.0,0.0,0.0,0.0,0.0,0.0,0.0,0.0,0.0,0.0,0.0,0.0,0.0,0.0,1.5747,1.9892,2.2932,2.3278,2.4067,2.4105,2.2893,2.1562,1.9327,1.5923,0.0,0.0,0.0,0.0,0.0,0.0,0.0,0.0,0.0,0.0,0.0,0.0,0.0,0.0,0.0,0.0,0.0,0.0,0.0,0.0,0.0,0.0,0.0,0.0,0.0,0.0,0.0,0.0,0.0,0.0,0.0,0.0,0.0,0.0,0.0,0.0,0.0,0.0,0.0,0.0,0.0,0.0,0.0,0.0,0.0,0.0,0.0,0.0,0.0,0.0,0.0,0.0,0.0,0.0,0.0,0.0,0.0,0.0,0.0,0.0,0.0,0.0,0.0,0.0,0.0,0.0,0.0,0.0,0.0,0.0,0.0,0.0,0.0,0.0,0.0,0.0,0.0,0.0,0.0,0.0,0.0,0.0,0.0,0.0,0.0,0.0,0.0,0.0,0.0,0.0,0.0,0.0,0.0,0.0,0.0,0.0,0.0,0.0,0.0,0.0,0.0,0.0,1.6405,2.0199,2.315,2.4013,2.4754,2.4557,2.2949,2.1936,2.0023,1.6811,0.0,0.0,0.0,0.0,0.0,0.0,0.0,0.0,0.0,0.0,0.0,0.0,0.0,0.0,0.0,0.0,0.0,0.0,0.0,0.0,0.0,0.0,0.0,0.0,0.0,0.0,0.0,0.0,0.0,0.0,0.0,0.0,0.0,0.0,0.0,0.0,0.0,0.0,0.0,0.0,0.0,0.0,0.0,0.0,0.0,0.0,0.0,0.0,0.0,0.0,0.0,0.0,0.0,0.0,0.0,0.0,0.0,0.0,0.0,0.0,1.3359,1.2173,0.0,0.0,0.0,0.0,0.0,0.0,0.0,0.0,0.0,0.0,0.0,0.0,0.0,0.0,0.0,0.0,0.0,0.0,0.0,0.0,0.0,0.0,0.0,0.0,0.0,0.0,0.0,0.0,0.0,0.0,0.0,0.0,0.0,0.0,0.0,0.0,0.0,0.0,0.0,0.0,1.6392,2.0286,2.3267,2.4094,2.4339,2.401,2.2968,2.1444,1.9677,1.7584,1.5865,0.0,0.0,0.0,0.0,0.0,0.0,0.0,0.0,0.0,0.0,0.0,0.0,0.0,0.0,0.0,0.0,0.0,0.0,0.0,0.0,0.0,0.0,0.0,0.0,0.0,0.0,0.0,0.0,0.0,0.0,0.0,0.0,0.0,0.0,0.0,0.0,0.0,0.0,0.0,0.0,0.0,0.0,0.0,0.0,0.0,0.0,0.0,0.0,0.0,0.0,0.0,0.0,0.0,0.0,0.0,0.0,0.0,0.0,0.0,1.5684,1.4793,0.0,0.0,0.0,0.0,0.0,0.0,0.0,0.0,0.0,0.0,0.0,0.0,0.0,0.0,0.0,0.0,0.0,0.0,0.0,0.0,0.0,0.0,0.0,0.0,0.0,0.0,0.0,0.0,0.0,0.0,0.0,0.0,0.0,0.0,0.0,0.0,0.0,0.0,0.0,0.0,1.7591,2.0838,2.3473,2.4685,2.4818,2.4472,2.3639,2.2324,2.082,1.9107,1.7363,0.0,0.0,0.0,0.0,0.0,0.0,0.0,0.0,0.0,0.0,0.0,0.0,0.0,0.0,0.0,0.0,0.0,0.0,0.0,0.0,0.0,0.0,0.0,0.0,0.0,0.0,0.0,0.0,0.0,0.0,0.0,0.0,0.0,0.0,0.0,0.0,0.0,0.0,0.0,0.0,0.0,0.0,0.0,0.0,0.0,0.0,0.0,0.0,0.0,0.0,0.0,0.0,0.0,1.8502,1.8616,1.8616,1.8616,1.913,1.9915,1.8528,1.8116,1.828,1.6631,0.0,0.0,0.0,0.0,0.0,0.0,0.0,0.0,0.0,0.0,0.0,0.0,0.0,0.0,0.0,0.0,0.0,0.0,0.0,0.0,0.0,0.0,1.919,1.9824,2.0485,2.0186,1.7343,0.0,0.0,0.0,0.0,0.0,0.0,0.0,0.0,0.0,0.0,0.0,1.9111,2.1653,2.3823,2.5351,2.5526,2.5198,2.4386,2.3592,2.2477,2.0936,1.9165,1.7488,0.0,0.0,0.0,0.0,0.0,0.0,0.0,0.0,0.0,0.0,0.0,0.0,0.0,0.0,0.0,0.0,0.0,0.0,0.0,0.0,0.0,0.0,0.0,0.0,0.0,0.0,0.0,0.0,0.0,0.0,0.0,0.0,0.8775,0.905,0.0,0.0,0.0,0.0,0.0,0.0,0.0,0.0,0.0,0.0,0.0,0.0,0.0,1.6394,1.8332,1.9219,2.0099,2.0905,2.1842,2.2302,2.2302,2.2302,2.2756,2.3524,2.3285,0.0,1.9915,1.8985,0.0,0.0,0.0,0.0,0.0,0.0,0.0,0.0,0.0,0.0,0.0,0.0,0.0,0.0,0.0,0.0,0.0,0.0,0.0,0.0,0.0,0.0,2.3398,2.2812,2.2773,2.2695,2.2187,1.9258,1.6602,1.6269,1.5664,1.4843,0.0,0.0,0.0,0.0,0.0,0.0,2.0092,2.2609,2.4565,2.5481,2.5594,2.5265,2.4469,2.4218,2.3674,2.2639,2.0983,1.9587,1.8538,1.6154,0.0,0.0,0.0,0.0,0.0,0.0,0.0,0.0,0.0,0.0,0.0,0.0,0.0,0.0,0.0,0.0,0.0,0.0,0.0,0.0,0.0,0.0,0.0,0.0,0.0,0.0,0.0,0.0,0.0,0.8905,1.0372,1.0505,1.1027,1.1014,0.0,0.0,0.0,0.0,0.0,0.0,0.0,0.0,0.0,1.7869,1.8422,1.9563,2.1386,2.1955,2.2633,2.3428,2.4009,2.4281,2.4281,2.4281,2.4478,2.4815,2.4815,2.4165,2.3017,2.1743,2.0386,1.8985,0.0,0.0,0.0,0.0,1.7957,1.8175,2.0179,2.0558,2.0137,2.0064,0.0,0.0,0.0,0.0,0.0,0.0,0.0,2.005,2.1517,2.2747,2.3756,2.4344,2.4481,2.4481,2.4461,2.2618,2.056,1.916,1.8942,1.8114,1.5317,1.5641,0.0,0.0,0.0,2.0078,2.1792,2.3417,2.4726,2.5562,2.566,2.5504,2.5153,2.4648,2.4172,2.3763,2.2513,2.1207,1.9848,1.8207,1.6135,0.0,0.0,0.0,0.0,0.0,0.0,0.0,0.0,0.0,0.0,0.0,0.0,0.0,0.0,0.0,0.0,0.0,0.0,0.0,0.0,0.0,0.0,0.0,0.0,0.0,0.0,0.0,0.0,1.022,1.1705,1.1738,1.2648,1.2861,0.0,0.0,0.0,0.0,0.0,0.0,1.6301,1.78,1.9214,2.0483,2.1206,2.2308,2.3863,2.4079,2.4467,2.501,2.5208,2.5308,2.5308,2.5308,2.5308,2.5308,2.5308,2.5308,2.5197,2.3794,2.2415,2.1112,2.0245,1.9473,1.9022,2.0325,2.0588,2.0635,2.3279,2.3779,2.3167,2.2792,2.2347,2.1584,1.9673,0.0,0.0,0.0,0.0,2.0888,2.3023,2.3603,2.3942,2.5197,2.5491,2.5491,2.5491,2.5024,2.3983,2.1948,2.1867,2.1059,1.7622,1.8122,0.0,1.8114,1.9861,2.1816,2.3301,2.4219,2.498,2.5625,2.5703,2.5703,2.5703,2.5114,2.4734,2.4708,2.3815,2.2602,2.1092,1.9957,1.8242,1.5888,0.0,0.0,0.0,0.0,0.0,0.0,0.0,0.0,0.0,0.0,0.0,0.0,0.0,0.0,0.0,0.0,0.0,0.0,0.0,0.0,0.0,0.0,0.0,0.0,0.0,0.0,0.0,0.0,0.0,1.2633,1.4135,0.0,0.0,0.0,0.0,1.496,1.6666,1.8144,1.9143,2.0114,2.1558,2.3509,2.3616,2.4066,2.4916,2.5116,2.5159,2.501,2.5208,2.5308,2.5308,2.5308,2.5308,2.5308,2.5308,2.5308,2.5231,2.4379,2.398,2.3821,2.2951,2.2581,2.2551,2.2701,2.3266,2.3967,2.4133,2.4173,2.4253,2.5058,2.4186,2.2804,2.2688,2.2021,0.0,0.0,2.3305,2.4158,2.5121,2.5372,2.5394,2.5471,2.5491,2.5491,2.5491,2.542,2.5101,2.4261,2.353,2.2694,2.1651,0.0,2.1679,2.1553,2.24,2.3379,2.4238,2.5098,2.5644,2.5703,2.5703,2.5703,2.5703,2.5664,2.5603,2.5544,2.4783,2.3855,2.2814,2.1199,1.946,1.7606,1.5888,0.0,0.0,0.0,0.0,0.0,0.0,0.0,0.0,0.0,0.0,0.0,0.0,0.0,0.0,0.0,0.0,0.0,0.0,0.0,0.0,0.0,0.0,0.0,0.0,0.0,0.0,0.0,0.0,1.5806,1.7421,0.0,1.7113,1.7417,1.7892,1.8415,1.9668,2.0788,2.1663,2.2515,2.3321,2.4037,2.4056,2.4195,2.4483,2.4678,2.4756,2.4678,2.4883,2.4987,2.4987,2.4987,2.4987,2.4975,2.5059,2.5105,2.5091,2.4932,2.487,2.4832,2.4519,2.4404,2.4409,2.4445,2.4636,2.49,2.4914,2.4907,2.4965,2.5259,2.4949,2.4433,2.4433,2.421,2.4028,2.4343,2.4664,2.4982,2.5294,2.5379,2.5379,2.5379,2.5379,2.5379,2.5379,2.5387,2.5314,2.506,2.4808,2.4196,2.2807,2.3566,2.3964,2.2804,2.3885,2.4902,2.5195,2.5508,2.5703,2.5703,2.5703,2.5703,2.5703,2.5703,2.5449,2.486,2.4518,2.368,2.2247,2.1531,2.0362,1.863,1.742,1.5541,0.0,0.0,0.0,0.0,0.0,0.0,0.0,0.0,0.0,0.0,0.0,0.0,0.0,0.0,0.0,0.0,0.0,0.0,0.0,0.0,0.0,0.0,0.0,0.0,0.0,1.5095,1.7188,1.7922,1.9658,2.0408,1.9408,1.9974,2.0642,2.117,2.2081,2.2832,2.3382,2.3914,2.4228,2.4303,2.4303,2.4432,2.4699,2.4905,2.5103,2.5314,2.5512,2.5612,2.5612,2.5612,2.5612,2.562,2.5705,2.5734,2.574,2.5888,2.5944,2.5898,2.5474,2.5308,2.5308,2.5308,2.55,2.5788,2.6077,2.6173,2.6173,2.6173,2.6173,2.6173,2.6173,2.6173,2.6173,2.6173,2.6173,2.6173,2.6173,2.5962,2.5731,2.5731,2.5519,2.5308,2.5308,2.5339,2.5375,2.5375,2.5441,2.5143,2.4021,2.4831,2.5239,2.4074,2.4911,2.5661,2.5661,2.5683,2.5703,2.5703,2.5703,2.5703,2.5703,2.543,2.5137,2.4863,2.4234,2.3405,2.2286,2.159,2.0699,1.9556,1.8349,1.6884,1.5173,0.0,0.0,0.0,0.0,0.0,0.0,0.0,0.0,0.0,0.0,0.0,0.0,0.0,0.0,0.0,0.0,0.0,0.0,0.0,0.0,0.0,0.0,0.0,1.5175,1.6685,1.8103,1.8843,2.0661,2.1495,2.0526,2.1999,2.3043,2.3043,2.3768,2.419,2.419,2.419,2.4303,2.4524,2.4532,2.4906,2.5726,2.5922,2.6308,2.6888,2.7095,2.7188,2.7188,2.7188,2.7188,2.7188,2.7196,2.7196,2.7196,2.7204,2.7204,2.7075,2.584,2.537,2.537,2.537,2.5894,2.6745,2.7601,2.7895,2.7895,2.7895,2.7895,2.7895,2.7895,2.7895,2.7895,2.7895,2.7895,2.7895,2.7895,2.7274,2.664,2.664,2.5962,2.5346,2.5346,2.5327,2.5308,2.5308,2.5394,2.5486,2.5508,2.551,2.5491,2.5491,2.5556,0.0,2.5599,2.5659,2.5683,2.5683,2.5683,2.5683,2.5703,2.4922,2.4785,2.5566,2.4043,2.3085,2.305,2.1446,2.0512,2.0449,1.8755,1.7838,1.7741,0.0,0.0,0.0,0.0,0.0,0.0,0.0,0.0,0.0,0.0,0.0,0.0,0.0,0.0,0.0,0.0,0.0,0.0,0.0,0.0,0.0,1.589,1.742,1.7902,1.9522,2.0958,2.1744,2.285,2.3428,2.3143,2.3574,2.3878,2.3878,2.4061,2.419,2.419,2.419,2.4485,2.5133,2.5151,2.5547,2.6338,2.6408,2.6519,2.668,2.674,2.6762,2.6762,2.6762,2.6762,2.6772,2.6926,2.6971,2.6989,2.7146,2.7204,2.7164,2.6802,2.6676,2.6676,2.6676,2.6927,2.73,2.7756,2.7895,2.7895,2.7895,2.7895,2.7895,2.7895,2.7895,2.7895,2.7895,2.7895,2.7895,2.7895,2.7717,2.7544,2.7544,2.689,2.6231,2.6231,2.575,2.5308,2.5308,2.5326,2.5379,2.5418,2.5477,2.5491,2.5491,2.5524,2.5535,2.5535,2.5547,2.5556,2.5556,2.5556,2.5569,2.5611,2.5417,2.4857,2.3887,2.3418,2.289,2.2264,2.1728,2.1412,2.1331,2.0305,1.9418,0.0,0.0,0.0,0.0,0.0,0.0,0.0,0.0,0.0,0.0,0.0,0.0,0.0,0.0,0.0,0.0,0.0,0.0,0.0,0.0,0.0,0.0,1.8598,1.9935,2.1076,2.1842,2.2593,2.3419,2.3914,2.419,2.419,2.419,2.419,2.419,2.419,2.419,2.419,2.453,2.4915,2.5393,2.5723,2.6282,2.709,2.7108,2.7273,2.7611,2.7611,2.7611,2.7611,2.7611,2.7611,2.7603,2.7735,2.7779,2.7789,2.7911,2.7941,2.7914,0.0,0.0,0.0,0.0,2.7937,2.8139,2.8737,2.8948,2.8948,2.8948,2.8948,2.8948,2.8948,2.8948,2.8948,2.8948,2.8948,2.8948,2.8948,2.8679,2.8396,2.8396,2.7755,2.714,2.714,2.6467,2.5846,2.5846,2.5558,0.0,2.535,2.5391,2.5427,2.5427,2.5441,2.5462,2.5462,2.5473,2.5491,2.5491,2.5491,2.5535,2.5598,2.5269,0.0,0.0,0.0,2.2773,2.1934,2.2204,0.0,0.0,0.0,0.0,0.0,2.0774,0.0,0.0,2.0607,2.0427,0.0,0.0,0.0,0.0,0.0,0.0,0.0,0.0,0.0,0.0,0.0,0.0,0.0,0.0,0.0,0.0,2.1313,2.2473,2.3988,2.3556,2.3363,2.4116,2.419,2.419,2.419,2.419,2.4245,2.4318,2.4337,2.4373,2.4465,2.5154,0.0,0.0,0.0,2.7126,2.7934,2.7934,2.8301,2.9005,2.9005,2.9005,2.9005,2.9005,2.9005,2.9005,2.9005,2.9005,2.9005,2.9005,2.9005,2.8886,2.7811,2.7392,2.752,2.8507,2.8874,2.9017,2.9985,0.0,0.0,3.033,3.0343,3.0355,3.0355,3.0386,3.0404,3.0404,3.0404,3.0404,3.0404,2.9833,2.9242,2.9242,2.8626,2.8049,2.8049,2.7351,2.6755,2.6755,2.6038,2.5442,2.5442,2.5365,2.5308,2.5308,2.5361,2.5383,2.5383,2.5441,2.5488,2.5488,2.5488,0.0,2.5566,2.4865,2.4744,2.5486,2.4081,2.293,2.2207,2.3027,2.3045,2.2115,2.2955,2.3682,2.4302,2.4497,2.496,2.5549,2.1662,2.1486,0.0,0.0,0.0,0.0,0.0,0.0,0.0,0.0,0.0,0.0,0.0,0.0,0.0,0.0,0.0,2.0971,2.2118,2.3107,2.4061,2.383,2.3715,2.4152,2.419,2.419,2.419,2.419,2.4475,2.5117,2.5172,2.5448,2.6098,2.6282,2.6667,2.7321,2.7493,2.7952,2.8767,2.8767,2.8858,2.9005,2.9005,0.0,2.9005,2.9005,2.9005,2.9005,2.9005,2.9005,2.9005,2.9005,2.9005,2.898,2.8739,2.8655,2.8698,2.9136,2.927,2.9345,2.9719,2.9832,2.9832,2.9832,2.995,3.0075,3.0075,3.0241,0.0,3.0404,3.0404,3.0404,3.0404,3.0269,3.0154,3.0154,2.9486,2.8876,2.8876,2.8222,2.764,2.764,2.6948,2.6351,2.6351,2.5769,2.5308,2.5308,2.5308,2.5322,2.5322,2.5326,2.5344,2.5344,2.5344,2.5367,2.5428,2.5282,2.4985,2.4522,2.4227,2.4015,2.3926,2.4746,2.4805,2.3905,2.4746,2.4896,2.4303,2.5711,2.6456,2.6527,2.5628,2.5565,0.0,0.0,0.0,0.0,0.0,0.0,0.0,0.0,0.0,0.0,0.0,1.6918,1.8641,0.0,2.0861,2.2565,2.3129,2.354,2.4115,2.3907,2.3816,2.4161,2.4046,2.4016,2.418,2.4566,2.497,2.5374,2.5778,2.6172,2.6583,2.6979,2.7383,2.7787,2.8191,2.8583,2.9005,2.9005,2.9005,2.9005,2.9005,2.9005,2.9005,2.9005,2.9005,2.9005,2.9005,2.9005,2.9005,2.9005,2.9005,2.9005,2.9005,2.9005,2.9021,2.9299,2.9402,2.9424,2.9625,2.9705,2.9705,2.9705,2.9763,2.9853,2.9853,2.9943,3.0044,3.0044,3.0044,3.0044,3.0044,3.0115,3.0202,3.0202,2.9959,2.9756,2.9756,2.9083,2.8492,2.8492,2.7813,2.7255,2.7255,2.689,2.6308,2.5423,2.5308,2.5308,2.5308,2.5308,2.5308,2.5308,2.5308,2.5336,2.5391,2.5428,2.5277,2.4881,2.4916,2.4963,2.4993,2.5448,2.5508,2.5059,2.5918,2.6113,2.5658,2.6967,2.7587,2.7556,2.7935,2.8076,0.0,0.0,0.0,0.0,0.0,0.0,0.0,1.5442,1.6045,1.8086,1.8622,1.9369,2.1407,2.187,2.2398,2.3883,2.3886,2.3795,2.4056,2.3876,2.3806,2.4074,2.3917,2.3907,2.417,2.4934,2.5466,2.5613,2.6374,2.6906,2.706,2.7677,2.8026,2.8026,2.8656,2.9005,2.9005,2.9005,2.9005,2.9005,2.9005,2.9005,2.9005,2.9005,2.9005,2.9005,2.9005,2.9005,2.9005,2.9005,2.9005,2.9005,2.9005,2.9005,2.904,2.9235,2.932,2.9351,2.9514,2.9561,2.9561,2.9561,2.9598,2.9634,2.9634,2.967,2.9713,2.9756,2.9754,2.9763,2.9823,2.9958,3.0075,3.0075,3.0248,3.0404,3.0404,2.9852,2.9357,2.9357,2.8684,2.8126,2.8126,2.8011,2.7409,2.6019,2.5808,2.5808,2.5808,2.5654,2.5558,2.5558,2.5404,2.5327,2.5383,2.5428,2.5474,2.5471,2.5537,2.5567,2.5601,2.5815,2.5937,2.5957,2.6816,2.7246,2.7246,2.8125,2.8555,2.8574,2.9386,2.965,1.1062,1.1655,1.2842,1.507,1.4891,1.5397,0.0,1.9603,1.8833,2.0904,2.1907,2.2493,2.2777,2.3161,2.3526,2.3727,2.3714,2.3714,2.3746,2.3714,2.3714,2.3746,2.3986,2.4161,2.4208,2.4934,2.5705,2.641,2.72,2.7989,2.8693,2.8822,2.8877,2.8877,2.895,2.9005,2.9005,2.9005,2.9005,2.9005,2.9005,2.9005,2.9005,2.9005,2.9005,2.9005,2.9005,2.9005,2.9005,2.9005,2.9005,2.9005,2.9005,2.9005,2.9005,2.9021,2.9033,2.9044,2.9078,2.9089,2.9089,2.9089,2.9246,2.9434,2.9434,2.9551,2.9748,2.9916,2.9969,3.0013,3.0254,3.0343,3.0355,3.0355,3.0373,3.0404,3.0404,3.0327,3.025,3.025,2.9563,2.8973,2.8973,2.8376,2.7838,2.764,2.7601,2.7601,2.7601,2.6928,2.6447,2.6447,2.5769,2.5293,2.5308,2.5322,2.5342,2.5401,2.5418,2.5488,2.5599,2.6347,2.6788,2.6855,2.7715,2.8144,2.8164,2.9023,2.9453,2.9473,3.0332,3.0287,1.4632,1.5327,1.5851,1.684,1.7685,1.8766,2.0691,2.0735,2.0815,2.2321,2.2869,2.3131,2.3131,2.3285,2.3471,2.3671,2.3533,2.3488,2.3671,2.3533,2.3488,2.3682,2.3816,2.3907,2.3907,2.5246,2.6245,2.6565,2.7776,2.8638,2.8987,2.9005,2.9005,2.9005,2.9005,2.9005,2.9005,2.9005,2.9005,2.9005,2.9005,2.9005,2.9005,2.9005,2.9262,2.9702,2.9702,2.9971,3.0393,3.0393,3.0393,3.0356,2.9879,2.9702,2.9629,2.917,2.9005,2.9005,2.9005,2.9005,2.9005,2.9005,2.9078,2.9178,2.9178,2.9332,2.9533,2.9635,2.9739,2.9845,2.995,3.008,3.0176,3.0176,3.0292,3.0404,3.0404,3.0404,3.0404,3.0404,3.0115,2.9871,2.9871,2.9583,2.9352,2.9352,2.8525,2.7895,2.7895,2.7582,2.7351,2.7351,2.7024,2.6813,2.6813,2.6813,2.6838,2.6853,2.6895,2.6946,2.6995,2.7388,2.7628,2.7704,2.8545,2.9019,2.9062,2.9922,3.0351,3.0371,3.0723,3.0956,1.6462,1.7452,1.8023,1.8274,1.9769,2.1181,2.1122,2.1541,2.2166,2.3023,2.32,2.32,2.32,2.3129,2.3141,2.338,2.3413,2.343,2.3558,2.3611,2.3653,2.3707,2.3785,2.3774,2.3577,2.5404,2.6602,2.6602,2.8088,2.9005,2.9005,2.9005,2.9005,2.9005,2.9005,2.9115,2.9335,2.9335,2.9445,2.9647,2.9647,2.9647,2.9647,2.9647,2.9989,3.0522,3.0522,3.0852,3.1397,3.1397,3.1397,3.1342,3.076,3.0522,3.043,2.9629,2.9189,2.9005,2.9005,2.9005,2.9005,2.9005,2.9005,2.9005,2.9005,2.9134,2.931,2.9382,2.9504,2.9625,2.9687,2.9804,2.9924,2.9924,3.0109,3.0299,3.0299,3.0355,3.0404,3.0404,3.0404,3.0404,3.0404,3.0404,3.0404,3.0404,2.9371,2.8582,2.8582,2.8371,2.8145,2.7915,2.7895,2.7895,2.7895,2.7895,2.7895,2.7895,2.7957,2.7974,2.8004,2.8267,2.8438,2.8503,2.9379,2.9847,2.99,3.0566,3.1016,3.1269,3.1269,3.1719,1.4954,1.6372,1.8176,1.9346,2.0424,2.1449,2.2406,2.269,2.2845,2.3147,2.32,2.32,2.32,2.2935,2.2721,2.2733,2.3384,2.3715,2.3289,2.4087,2.4491,2.3783,2.3986,2.3927,2.3288,2.5277,2.6602,2.6602,2.8088,2.9005,2.9005,2.9005,2.9005,2.9005,2.9005,2.9372,3.0173,3.0173,3.0558,3.1342,3.1342,3.1342,3.1342,3.1342,3.1342,3.136,3.136,3.1378,3.1397,3.1397,3.1397,3.1397,3.1378,3.136,3.1268,3.0467,2.9666,2.9005,2.9005,2.9005,2.9005,2.9005,2.9005,2.9005,2.9005,2.9005,2.9067,2.933,2.9412,2.9454,2.9643,2.9705,2.9713,2.9713,2.9861,3.0013,3.0013,3.0209,3.0404,3.0404,3.0404,3.0404,3.0404,3.0404,3.0404,3.0404,3.0365,3.0327,3.0327,2.9583,2.8761,2.7992,2.7895,2.7895,2.7895,2.7895,2.7895,2.7895,2.7895,2.7933,2.7999,2.8756,2.9194,2.9274,3.0182,3.0657,3.0677,3.0818,3.1328,3.2168,3.2168,3.2598,1.6232,1.7957,1.9441,2.0071,2.1097,2.2017,2.2361,2.244,2.2497,2.2584,2.2358,2.2227,2.2541,2.2261,2.213,2.263,2.3562,2.4174,2.4021,2.495,2.5283,2.4278,2.4926,2.5153,2.4399,2.5211,2.5926,2.6234,2.7467,2.8436,2.8968,2.9005,2.9005,2.9005,2.9519,2.9934,3.021,3.0723,3.114,3.1397,3.1397,3.1397,3.1397,3.1397,3.1678,3.221,3.221,3.2504,3.2981,3.2981,3.2981,3.2944,3.2394,3.221,3.21,3.1292,3.0815,3.0448,2.9372,2.9005,2.9005,2.9005,2.9005,2.9005,2.9005,2.9123,2.9278,2.9382,2.9494,2.9598,2.9678,2.9796,2.9869,2.9739,3.0,3.0209,3.0028,3.0209,3.0404,3.0404,3.0404,3.0404,3.0404,3.0404,3.0404,3.0404,3.0404,3.0404,3.0404,3.0135,2.9865,2.9596,2.9558,2.9558,2.9558,2.9558,2.9558,2.9558,2.9558,2.958,2.958,2.9841,3.0023,3.0079,3.0447,3.0663,3.0695,3.1423,3.1914,3.2207,3.2754,3.3457,1.7448,1.8871,1.9938,2.0528,2.1253,2.1842,2.1842,2.1842,2.1842,2.1842,2.1401,2.116,2.1573,2.1209,2.1149,2.2021,2.3224,2.4138,2.4375,2.5515,2.6026,2.5272,2.5837,2.6032,2.5393,2.5629,2.6072,2.6663,2.765,2.8448,2.8968,2.9262,2.9427,2.9427,3.021,3.0779,3.1054,3.1568,3.1971,3.226,3.226,3.226,3.226,3.226,3.254,3.3036,3.3036,3.333,3.3807,3.3807,3.3807,3.3752,3.3238,3.3036,3.2931,3.2137,3.1825,3.1641,3.032,2.9666,2.9427,2.9427,2.9225,2.9005,2.9005,2.9123,2.9257,2.9257,2.9415,2.9598,2.9598,2.9729,2.9861,2.9739,3.0,3.0209,3.0047,3.0209,3.0404,3.0404,3.0404,3.0404,3.0404,3.0404,3.0404,3.0404,3.0404,3.0404,3.0404,3.0404,3.0404,3.0404,3.0404,3.0404,3.0404,3.0404,3.0404,3.0404,3.0404,3.0404,3.0404,3.0404,3.0439,3.0498,3.0561,3.0796,3.1165,3.1853,3.2519,3.3105,3.3613,3.4336,1.8382,1.9045,1.9685,2.0703,2.0975,2.0991,2.0991,2.0975,2.0927,2.0895,2.035,1.9958,2.026,1.9849,1.9834,2.0938,2.2457,2.3713,2.4358,2.5795,2.6741,2.6622,2.6683,2.6596,2.6253,2.656,2.7126,2.7915,2.862,2.9023,2.906,2.9824,3.0265,3.0265,3.1035,3.1825,3.2583,3.2638,3.3041,3.3807,3.3807,3.3807,3.3807,3.3807,3.3807,3.3807,3.3807,3.3807,3.3807,3.3807,3.3807,3.3807,3.3807,3.3807,3.3715,3.2931,3.2656,3.2546,3.1788,3.0962,3.0265,3.0265,2.9739,2.9115,2.909,2.9083,2.9083,2.9051,2.9214,2.9423,2.9423,2.9561,2.9713,2.9705,2.9861,3.0013,3.0006,3.0209,3.0404,3.0404,3.0404,3.0404,3.0404,3.0404,3.0404,3.0404,3.0404,3.0404,3.0404,3.0404,3.0404,3.0404,3.0404,3.0404,3.0404,3.0404,3.0404,3.0404,3.0404,3.0404,3.0404,3.0404,3.0453,3.0567,3.0635,3.1128,3.2061,3.2243,3.3144,3.4707,3.4746,3.5215,1.806,1.9142,2.0146,2.0403,2.0732,2.0991,2.0991,2.0606,2.0109,1.9608,1.8731,1.8024,1.7902,1.8559,1.9339,1.998,2.2661,2.4742,2.4888,2.6681,2.7658,2.6841,2.7713,2.826,2.7912,2.8724,2.9622,3.0424,2.9555,2.9262,2.9849,3.065,3.1091,3.1091,3.188,3.2381,3.2601,3.3201,3.3605,3.3807,3.3807,3.3807,3.3807,3.3807,3.3807,3.3807,3.3807,3.3807,3.3807,3.3807,3.3807,3.3807,3.3807,3.3807,3.377,3.3568,3.3495,3.3458,3.3256,3.2265,3.1091,3.1091,3.0962,3.0717,3.0309,3.019,3.0103,2.9653,2.9561,2.9616,2.9616,2.9763,2.9885,2.9748,3.0015,3.0248,3.0035,3.0209,3.0404,3.0404,3.0404,3.0404,3.0404,3.0404,3.0404,3.0404,3.0404,3.0404,3.0404,3.0404,3.0404,3.0404,3.0404,3.0404,3.0404,3.0404,3.0404,3.0404,3.0404,3.0404,3.0404,3.0404,3.071,3.1391,3.1519,3.2002,3.2895,3.3682,3.4277,3.4726,3.5371,3.5781,1.9016,1.9861,2.0475,2.0475,2.067,2.0631,1.9762,1.9264,1.864,1.7401,1.6687,1.6086,1.5499,1.6863,1.8237,1.8701,2.1643,2.4219,2.5189,2.6681,2.7712,2.7756,2.8804,2.9441,2.9259,3.0143,3.0907,3.1378,3.0558,3.0246,3.0705,3.1494,3.1935,3.1935,3.2706,3.3115,3.3115,3.3568,3.3807,3.3807,3.3807,3.3807,3.3807,3.3807,3.3807,3.3807,3.3807,3.3807,3.3807,3.3807,3.3807,3.3807,3.3807,3.3807,3.3807,3.3807,3.3807,3.3807,3.3807,3.3201,3.2394,3.2045,3.1678,3.133,3.1036,3.1017,3.0972,3.0291,3.0525,3.0877,3.0509,3.0563,3.0819,3.1055,3.1038,3.1033,3.1231,3.1399,3.15,3.15,3.15,3.15,3.15,3.15,3.15,3.15,3.15,3.1365,3.1019,3.0635,3.0404,3.0404,3.0404,3.0404,3.0404,3.0404,3.0404,3.0404,3.0404,3.0577,3.0942,3.0962,3.1382,3.2254,3.24,3.2903,3.3826,3.4406,3.4902,3.5273,3.5762,3.5996,2.0429,2.0763,2.0808,2.0718,2.0703,2.0195,1.8267,1.7639,1.6921,1.5052,1.4526,1.4106,1.3153,1.5046,1.6926,1.7437,2.0206,2.3065,2.5235,2.626,2.7365,2.8894,2.9733,3.0283,3.0503,3.1146,3.1599,3.1709,3.1727,3.1672,3.1549,3.232,3.2748,3.2748,3.344,3.3807,3.3807,3.3807,3.3807,3.3807,3.3807,3.3807,3.3807,3.3807,3.3807,3.3807,3.3807,3.3807,3.3807,3.3807,3.3807,3.3807,3.3807,3.3807,3.3807,3.3807,3.3807,3.3807,3.3807,3.3807,3.3678,3.2986,3.2284,3.1709,3.1618,3.1772,3.1792,3.1061,3.1684,3.242,3.1699,3.1685,3.2045,3.2737,3.2372,3.2045,3.2756,3.2891,3.2891,3.2891,3.2891,3.2891,3.2891,3.2891,3.2891,3.2891,3.2891,3.2641,3.1948,3.1115,3.0538,3.0404,3.05,3.0577,3.0577,3.0673,3.0731,3.0731,3.0731,3.1077,3.1833,3.1852,3.2278,3.3146,3.3278,3.3796,3.4727,3.4815,3.5253,3.5995,3.5996,3.5996,2.0639,2.1111,2.1395,2.0838,2.0703,2.0314,1.8867,1.7281,1.5724,1.4274,1.3092,1.2096,1.1368,1.3883,1.6297,1.6999,2.004,2.2985,2.4906,2.6116,2.7482,2.928,2.9905,3.0723,3.2051,3.2307,3.2669,3.333,3.3385,3.3091,3.2417,3.3146,3.3587,3.3587,3.3733,3.3807,3.3807,3.3807,3.3807,3.3807,3.3807,3.3807,3.3807,3.3807,3.3807,3.3807,3.3807,3.3807,3.3807,3.3807,3.3807,3.3807,3.3807,3.3807,3.3807,3.3807,3.3807,3.3807,3.3807,3.3807,3.377,3.3642,3.3495,3.3309,3.2864,3.276,3.272,3.2286,3.2344,3.2523,3.2594,3.266,3.2737,3.2872,3.2795,3.2737,3.2872,3.2891,3.2891,3.2891,3.2891,3.2891,3.2891,3.2891,3.2891,3.2891,3.2891,3.2852,3.2718,3.1987,3.1192,3.0481,3.1038,3.1468,3.1468,3.2083,3.2468,3.2468,3.2468,3.2526,3.2699,3.2699,3.3096,3.3974,3.4065,3.453,3.5421,3.5612,3.5776,3.5914,3.5974,3.5996,2.1141,2.171,2.2074,2.1395,2.1231,2.0513,1.7821,1.6203,1.4616,1.2254,1.1266,1.0608,0.9944,1.2548,1.5065,1.5829,1.866,2.1682,2.4418,2.5379,2.6836,2.9586,3.0454,3.1292,3.2472,3.2968,3.3385,3.377,3.3807,3.3623,3.3256,3.3587,3.3807,3.3807,3.3807,3.3807,3.3807,3.3807,3.3807,3.3807,3.3807,3.3807,3.3807,3.3807,3.3807,3.3807,3.3807,3.3807,3.3807,3.3807,3.3807,3.3807,3.3807,3.3807,3.3807,3.3807,3.3807,3.3807,3.3807,3.3807,3.3807,3.3807,3.3807,3.3742,3.348,3.3631,3.3757,3.3129,3.3497,3.3985,3.366,3.3583,3.368,3.416,3.425,3.425,3.425,3.425,3.425,3.425,3.425,3.425,3.425,3.425,3.425,3.425,3.425,3.4083,3.3622,3.3237,3.266,3.1795,3.2083,3.2314,3.2314,3.2679,3.2891,3.2891,3.2891,3.3103,3.3564,3.3583,3.3987,3.4853,3.4936,3.5185,3.5611,3.5723,3.5836,3.5901,3.5922,3.5972,2.1515,2.2194,2.2538,2.1879,2.1695,2.0692,1.6877,1.5275,1.372,1.0713,0.9884,0.958,0.9241,1.1576,1.394,1.5087,1.7484,2.039,2.3762,2.4706,2.6325,2.9788,3.0907,3.177,3.2748,3.344,3.3807,3.3807,3.3807,3.3807,3.3807,3.3807,3.3807,3.3807,3.3807,3.3807,3.3807,3.3807,3.3807,3.3807,3.3807,3.3807,3.3807,3.3807,3.3807,3.3807,3.3807,3.3807,3.3807,3.3807,3.3807,3.3807,3.3807,3.3807,3.3807,3.3807,3.3807,3.3807,3.3807,3.3807,3.3807,3.3807,3.3807,3.3807,3.3807,3.4172,3.4461,3.3843,3.4511,3.5278,3.4635,3.4468,3.4641,3.5346,3.55,3.55,3.55,3.55,3.55,3.55,3.55,3.55,3.55,3.55,3.55,3.55,3.55,3.525,3.4564,3.4468,3.4218,3.3526,3.3295,3.3179,3.3179,3.3353,3.3468,3.3468,3.3468,3.3757,3.4449,3.4468,3.4795,3.5481,3.5558,3.5582,3.5582,3.5657,3.573,3.5846,3.5873,3.6037,2.1515,2.2194,2.2538,2.1879,2.1695,2.0827,1.7475,1.5246,1.3289,1.1166,0.9794,0.9211,0.994,1.1578,1.3531,1.5813,1.7725,1.9969,2.2982,2.464,2.6697,2.9838,3.0907,3.199,3.3532,3.3752,3.3807,3.3807,3.3807,3.3807,3.3807,3.3807,3.3807,3.3807,3.3807,3.3807,3.3807,3.3807,3.3807,3.3807,3.3807,3.3807,3.3807,3.3807,3.3807,3.3807,3.3807,3.3807,3.3807,3.3807,3.3807,3.3807,3.3807,3.3807,3.3807,3.3807,3.3807,3.3807,3.3807,3.3807,3.3807,3.3807,3.3807,3.3807,3.3807,3.4012,3.4292,3.4528,3.486,3.5179,3.5343,3.5385,3.5404,3.5481,3.55,3.55,3.55,3.55,3.55,3.55,3.55,3.55,3.55,3.55,3.55,3.55,3.55,3.5462,3.5385,3.5385,3.5346,3.5269,3.4545,3.409,3.409,3.4814,3.525,3.525,3.525,3.5308,3.5385,3.5385,3.5423,3.55,3.5514,3.5508,3.5508,3.5577,3.5616,3.5631,3.5814,3.6334,2.0917,2.159,2.1934,2.1276,2.1111,2.028,1.7152,1.5069,1.3157,1.09,0.9749,0.9351,1.0075,1.1348,1.3021,1.5263,1.6492,1.8211,2.1259,2.2723,2.4927,2.8779,2.9915,3.1292,3.3573,3.3807,3.3807,3.3807,3.3807,3.3807,3.3807,3.3807,3.3807,3.3807,3.3807,3.3807,3.3807,3.3807,3.3807,3.3807,3.3807,3.3807,3.3807,3.3807,3.3807,3.3807,3.3807,3.3807,3.3807,3.3807,3.3807,3.3807,3.3807,3.3807,3.3807,3.3807,3.3807,3.3807,3.3807,3.3807,3.3807,3.3807,3.3915,3.4043,3.4043,3.4272,3.4561,3.4851,3.513,3.5369,3.546,3.55,3.55,3.55,3.55,3.55,3.55,3.55,3.55,3.55,3.55,3.55,3.55,3.55,3.55,3.55,3.55,3.55,3.55,3.55,3.55,3.55,3.5192,3.4988,3.4988,3.5308,3.55,3.55,3.55,3.55,3.55,3.55,3.55,3.55,3.55,3.55,3.55,3.5534,3.5832,3.6385,3.6517,3.7043,2.0168,2.0902,2.1291,2.0808,2.0633,1.9766,1.6843,1.4914,1.3149,1.1058,0.9939,0.9646,1.055,1.1434,1.2656,1.4668,1.568,1.7156,1.9867,2.1434,2.365,2.7282,2.8376,2.9921,3.2688,3.3473,3.3807,3.3807,3.3807,3.3807,3.3807,3.3807,3.3807,3.3807,3.3807,3.3807,3.3807,3.3807,3.3807,3.3807,3.3807,3.3807,3.3807,3.3807,3.3807,3.3807,3.3807,3.3807,3.3807,3.3807,3.3807,3.3807,3.3807,3.3807,3.3807,3.3807,3.3807,3.3807,3.3807,3.3855,3.3928,3.3928,3.4117,3.4368,3.4438,3.4626,3.487,3.5053,3.5297,3.55,3.55,3.55,3.55,3.55,3.55,3.55,3.55,3.55,3.55,3.55,3.55,3.55,3.55,3.55,3.55,3.55,3.55,3.55,3.55,3.55,3.55,3.55,3.55,3.55,3.55,3.55,3.55,3.55,3.55,3.55,3.55,3.55,3.55,3.55,3.55,3.5615,3.5846,3.5846,3.6337,3.7228,3.7298,3.7848,1.9346,2.0198,2.0703,2.0703,2.0458,1.9484,1.6719,1.4796,1.3217,1.1859,1.0479,1.0004,1.1677,1.1983,1.2556,1.424,1.574,1.7335,1.9169,2.1353,2.3495,2.5412,2.633,2.7915,3.0668,3.2675,3.3807,3.3807,3.3807,3.3807,3.3807,3.3807,3.3807,3.3807,3.3807,3.3807,3.3807,3.3807,3.3807,3.3807,3.3807,3.3807,3.3807,3.3807,3.3807,3.3807,3.3807,3.3807,3.3807,3.3807,3.3807,3.3807,3.3807,3.3807,3.3807,3.3807,3.3807,3.3807,3.3807,3.3974,3.4206,3.4206,3.4412,3.4734,3.5008,3.5096,3.5096,3.5096,3.5297,3.55,3.55,3.55,3.55,3.55,3.55,3.55,3.55,3.55,3.55,3.55,3.55,3.55,3.55,3.55,3.55,3.55,3.55,3.55,3.55,3.55,3.55,3.55,3.55,3.55,3.55,3.55,3.55,3.55,3.55,3.55,3.55,3.55,3.55,3.55,3.55,3.5885,3.6692,3.6692,3.7142,3.7995,3.8072,3.8652,1.697,1.7603,1.7896,1.7606,1.7471,1.6991,1.5436,1.3914,1.2662,1.2015,1.112,1.0764,1.1809,1.2531,1.3624,1.5663,1.64,1.7426,1.9512,2.1542,2.3713,2.6182,2.9502,3.1928,3.2811,3.3441,3.3807,3.3807,3.3807,3.3807,3.3807,3.3807,3.3807,3.3807,3.3807,3.3807,3.3807,3.3807,3.3807,3.3807,3.3807,3.3807,3.3807,3.3807,3.3807,3.3807,3.3807,3.3807,3.3807,3.3807,3.3807,3.3807,3.3807,3.3807,3.3807,3.3807,3.3807,3.3829,3.4006,3.4123,3.4253,3.4475,3.4744,3.499,3.5079,3.5105,3.513,3.5312,3.5439,3.55,3.55,3.55,3.55,3.55,3.55,3.55,3.55,3.55,3.55,3.55,3.55,3.55,3.55,3.55,3.55,3.55,3.55,3.55,3.55,3.55,3.55,3.55,3.55,3.55,3.55,3.55,3.55,3.55,3.55,3.55,3.55,3.55,3.575,3.6308,3.6327,3.6731,3.7584,3.7584,3.8059,3.8974,3.9596,4.0129,1.4944,1.5919,1.644,1.628,1.6175,1.5782,1.4567,1.3322,1.2373,1.2148,1.1503,1.1278,1.2338,1.3008,1.3853,1.5225,1.6157,1.7324,1.9121,2.1347,2.3814,2.6534,3.0328,3.2711,3.2711,3.3368,3.3807,3.3807,3.3807,3.3807,3.3807,3.3807,3.3807,3.3807,3.3807,3.3807,3.3807,3.3807,3.3807,3.3807,3.3807,3.3807,3.3807,3.3807,3.3972,3.4247,3.3935,3.3972,0.0,3.3935,3.3807,3.3807,3.3807,3.3807,3.3802,3.3897,3.3948,3.3999,3.4288,3.4438,3.4566,3.4784,3.5025,3.5239,3.5239,3.5239,3.5289,3.5446,3.55,3.55,3.55,3.55,3.55,3.55,3.55,3.55,3.55,3.55,3.55,3.55,3.55,3.55,3.55,3.55,3.55,3.55,3.55,3.55,3.55,3.55,3.5615,3.5923,3.5942,3.6096,3.6423,3.5865,3.5635,3.5923,3.5942,3.6096,3.6423,3.6442,3.6673,3.718,3.7199,3.7623,3.8488,3.8796,3.9247,3.9825,4.0422,4.0776,0.0,1.4788,1.5804,1.6043,1.5903,1.5353,1.3907,1.2828,0.0,1.2195,1.162,1.1594,1.3185,1.3481,1.3549,1.3769,1.553,1.7256,1.8371,2.1237,2.4193,2.6809,2.9481,3.1102,3.1102,3.2743,3.3807,3.3807,3.3807,3.3807,3.3807,3.3807,3.3807,3.3807,3.3807,3.3807,3.3807,3.3807,3.3807,3.3807,3.3807,3.3825,3.3899,3.3899,3.4325,3.5059,3.4302,3.4412,3.5041,3.4284,3.3985,3.3994,3.3939,3.3934,3.3981,3.424,3.4328,3.4393,3.4764,3.5069,3.5276,3.5293,3.5469,3.5673,3.5673,3.5596,3.55,3.55,3.55,3.55,3.55,3.55,3.55,3.55,3.55,3.55,3.55,3.55,3.55,3.55,3.55,3.55,3.55,3.55,3.5519,3.5577,3.5596,3.5615,3.5673,3.5673,3.5962,3.6712,3.6788,3.7123,3.793,3.6558,3.6,3.675,3.6788,3.7161,3.7969,3.8007,3.8027,3.8084,3.8142,3.8584,3.94,4.015,4.0496,4.0496,4.063,4.0692,1.0366,0.0,1.2257,1.2164,1.2092,1.1941,0.0,1.1002,1.07,1.1265,1.1231,1.1739,1.3844,1.4233,1.4986,1.7247,1.8042,1.8938,2.0587,2.4472,2.7951,3.0073,3.1971,3.3126,3.3126,3.3528,3.3807,3.3807,3.3807,3.3807,3.3807,3.3807,3.3807,3.3807,3.3807,3.3807,3.3807,3.3807,3.3807,3.3807,3.3807,3.4119,3.4729,3.4729,3.5169,3.5973,3.5789,3.5826,3.5973,3.5789,3.5823,3.5962,3.5336,3.5235,3.542,3.5485,3.5507,3.5644,3.6578,3.6965,3.7045,3.726,3.7355,3.7411,3.7411,3.6519,3.55,3.55,3.55,3.55,3.55,3.55,3.55,3.55,3.55,3.55,3.55,3.55,3.55,3.55,3.55,3.55,3.55,3.55,3.5712,3.6327,3.6423,3.6654,3.7334,3.7411,3.7488,3.768,3.77,3.7777,3.7988,3.7642,3.7488,3.768,3.77,3.7796,3.7988,3.8007,3.8315,3.8977,3.9611,4.0015,4.0227,4.0419,4.0496,4.0496,4.0523,4.0629,0.9041,1.0519,1.1979,1.1992,1.2248,1.2415,1.2065,1.1515,1.1173,1.157,1.1654,1.2229,1.4149,1.4895,1.5879,1.7817,1.9106,2.0819,2.357,2.7015,2.9879,3.1487,3.2943,3.3807,3.3807,3.3807,3.3807,3.3807,3.3807,3.3807,3.3807,3.3807,3.3807,3.3807,3.3807,3.3807,3.3807,3.3807,3.3807,3.3807,3.3807,3.4215,3.5004,3.5004,3.5665,3.6831,3.645,3.6583,3.7013,3.6643,3.6663,3.6888,3.6456,3.637,3.6512,3.6623,3.6691,3.6777,3.7528,3.7775,3.7811,3.7959,3.8007,3.8007,3.8007,3.7373,3.6654,3.6654,3.6365,3.6058,3.6058,3.6058,3.6058,3.6058,3.6365,3.6654,3.6654,3.6654,3.6654,3.6654,3.6654,3.6654,3.6654,3.6654,3.6788,3.7238,3.7296,3.7469,3.795,3.8007,3.8142,3.8546,3.8604,3.8738,3.9123,3.9142,3.8988,3.8623,3.8604,3.8757,3.9123,3.9142,3.9381,3.9842,4.0285,4.0496,4.0496,4.0496,4.0496,4.0496,4.0496,4.0568,0.9016,1.1211,1.3241,1.2949,1.3532,1.3996,1.3371,1.2745,1.2331,1.2432,1.2551,1.3142,1.478,1.5824,1.6807,1.7947,2.0086,2.2859,2.6477,2.8842,3.0667,3.1944,3.3104,3.3807,3.3807,3.3807,3.3807,3.3807,3.3807,3.3807,3.3807,3.3807,3.3807,3.3807,3.3807,3.3807,3.3807,3.3807,3.3807,3.3807,3.3807,3.4302,3.5206,3.5206,3.613,3.7709,3.7028,3.7257,3.8109,3.743,3.7336,3.7633,3.749,3.7484,3.7545,3.7783,3.7855,3.7919,3.8262,3.8373,3.8373,3.8373,3.8373,3.8373,3.8373,3.8373,3.8373,3.8373,3.768,3.6904,3.6904,3.6904,3.6904,3.6904,3.7469,3.8007,3.8007,3.8007,3.8007,3.8007,3.8007,3.8007,3.8007,3.8007,3.8046,3.818,3.82,3.8238,3.8373,3.8373,3.8661,3.94,3.9477,3.9765,4.0439,4.0496,4.0208,3.9534,3.9477,3.9785,4.0477,4.0496,4.0496,4.0496,4.0496,4.0496,4.0496,4.0496,4.0496,4.0496,4.0496,4.0589,1.0972,1.3052,1.4022,1.1216,1.1579,1.2618,1.2483,1.2381,1.2483,1.31,1.3735,1.4883,1.7287,1.7845,1.8926,2.1872,2.3497,2.5285,2.7866,2.9363,3.0772,3.2321,3.3271,3.3807,3.3807,3.3807,3.3807,3.3807,3.3807,3.3807,3.3807,3.3807,3.3807,3.3807,3.3807,3.3807,3.3807,3.3807,3.3807,3.3807,3.3807,3.4614,3.6101,3.6101,3.7114,3.8863,3.8733,3.8913,3.9322,3.9209,3.9364,3.9575,3.8842,3.8725,3.8988,3.9019,3.9046,3.915,3.9865,4.0131,4.0131,4.0131,4.0131,4.0131,4.0131,4.0131,4.0131,4.0131,3.8988,3.7796,3.7796,3.7796,3.7796,3.7796,3.7892,3.8007,3.8007,3.8007,3.8007,3.8007,3.8007,3.8007,3.8007,3.8007,3.8257,3.8996,3.9111,3.9361,4.0035,4.0131,4.0169,4.0304,4.0323,4.0362,4.0496,4.0496,4.0458,4.0323,4.0323,4.0362,4.0496,4.0496,4.0496,4.0496,4.0496,4.0496,4.0496,4.0496,4.0496,4.0496,4.0496,4.0971,1.0022,1.1895,1.3304,1.2304,1.4249,1.6291,1.5862,1.5792,1.5854,1.6014,1.6453,1.7252,1.8631,1.952,2.0994,2.3955,2.5965,2.7603,2.8861,3.0456,3.1858,3.2802,3.3428,3.3807,3.3807,3.3807,3.3807,3.3807,3.3807,3.3807,3.3807,3.3807,3.3807,3.3807,3.3807,3.3807,3.3807,3.4215,3.4454,3.4454,3.4454,3.533,3.6942,3.6657,3.7463,3.9112,3.9289,3.9564,3.988,3.988,4.0062,4.0283,3.9881,3.9805,3.9958,3.9958,3.9958,3.9996,4.0362,4.0496,4.0496,4.0496,4.0496,4.0496,4.0496,4.0496,4.0496,4.0496,3.9631,3.87,3.87,3.87,3.87,3.87,3.9027,3.9361,3.9361,3.9361,3.9361,3.9361,3.9361,3.9361,3.9361,3.9361,3.9496,3.99,3.9958,4.0073,4.0458,4.0496,4.0496,4.0496,4.0496,4.0496,4.0496,4.0496,4.0496,4.0496,4.0496,4.0496,4.0496,4.0496,4.0496,4.0496,4.0496,4.0496,4.0496,4.0496,4.0746,4.12,4.12,4.169,0.9522,1.1148,1.2925,1.4038,1.6527,1.8748,1.8937,1.8868,1.8848,1.9145,1.9418,1.9775,2.0326,2.1662,2.3341,2.5354,2.7714,2.9442,2.9875,3.148,3.2783,3.3285,3.3606,3.3807,3.3807,3.3807,3.3807,3.3807,3.3807,3.3807,3.3807,3.3807,3.3807,3.3807,3.3807,3.3807,3.3807,3.4601,3.4912,3.4729,3.4995,3.5897,3.7288,3.695,3.771,3.9339,3.9611,3.9912,4.0186,4.0186,4.0302,4.0496,4.0496,4.0496,4.0496,4.0496,4.0496,4.0496,4.0496,4.0496,4.0496,4.0496,4.0496,4.0496,4.0496,4.0496,4.0496,4.0496,4.0054,3.9573,3.9573,3.9573,3.9573,3.9573,4.0054,4.0496,4.0496,4.0496,4.0496,4.0496,4.0496,4.0496,4.0496,4.0496,4.0496,4.0496,4.0496,4.0496,4.0496,4.0496,4.0496,4.0496,4.0496,4.0496,4.0496,4.0496,4.0496,4.0496,4.0496,4.0496,4.0496,4.0496,4.0496,4.0496,4.0496,4.0496,4.0496,4.0708,4.1143,4.1788,4.2,4.2566,1.1485,1.2865,1.4041,1.5479,1.5506,1.5976,1.9096,1.925,1.932,2.148,2.1946,2.2264,2.3295,2.4988,2.6279,2.6473,2.8539,3.0381,3.1157,3.2019,3.2894,3.3656,3.3775,3.3807,3.3807,3.3807,3.3807,3.3807,3.3807,3.3807,3.3807,3.3807,3.3807,3.3807,3.3807,3.3807,3.3807,3.4601,3.4619,3.3899,3.4964,3.5926,3.677,3.6971,3.8144,4.0022,4.0042,4.0223,4.0473,4.0473,4.0481,4.0496,4.0496,4.0496,4.0496,4.0496,4.0496,4.0496,4.0496,4.0496,4.0496,4.0496,4.0496,4.0496,4.0496,4.0496,4.0496,4.0496,4.0458,4.0419,4.0419,4.0419,4.0419,4.0419,4.0458,4.0496,4.0496,4.0496,4.0496,4.0496,4.0496,4.0496,4.0496,4.0496,4.0496,4.0496,4.0496,4.0496,4.0496,4.0496,4.0496,4.0496,4.0496,4.0496,4.0496,4.0496,4.0496,4.0496,4.0496,4.0496,4.0496,4.0496,4.0496,4.0496,4.0496,4.0496,4.0496,4.1316,4.1731,4.1808,4.2624,4.3431,0.9958,1.1951,1.4081,1.5282,1.6542,1.7947,1.9732,2.1559,2.3067,2.3736,2.444,2.491,2.4821,2.5771,2.6602,2.6602,2.8631,3.0485,3.1286,3.21,3.2894,3.3697,3.3807,3.3807,3.3807,3.3807,3.3807,3.3807,3.3807,3.3807,3.3807,3.3807,3.3807,3.3807,3.3807,3.3876,3.4056,3.4877,3.499,3.4371,3.513,3.6011,3.6956,3.7265,3.809,3.9338,4.0038,4.0417,4.0496,4.0496,4.0496,4.0496,4.0496,4.0496,4.0496,4.0496,4.0496,4.0496,4.0496,4.0496,4.0496,4.0496,4.0496,4.0496,4.0496,4.0496,4.0496,4.0496,4.0496,4.0496,4.0496,4.0496,4.0496,4.0496,4.0496,4.0496,4.0496,4.0496,4.0496,4.0496,4.0496,4.0496,4.0496,4.0496,4.0496,4.0496,4.0496,4.0496,4.0496,4.0496,4.0496,4.0496,4.0496,4.0496,4.0496,4.0496,4.0496,4.0496,4.0496,4.0496,4.0496,4.0496,4.0496,4.0496,4.0496,4.0766,4.1316,4.1643,4.2335,4.3355,4.3682,4.4297,0.9721,1.1932,1.4459,1.5414,1.7591,1.9691,2.0508,2.2931,2.5104,2.5379,2.6052,2.6429,2.5888,2.6227,2.6675,2.6943,2.8796,3.0393,3.0944,3.1935,3.2803,3.3366,3.3642,3.3807,3.3807,3.3807,3.3807,3.3807,3.3807,3.3807,3.3807,3.3807,3.3807,3.3807,3.3876,3.4006,3.4188,3.4909,3.5112,3.4832,3.5206,3.6045,3.7282,3.7573,3.8319,3.9381,4.0164,4.0496,4.0496,4.0496,4.0496,4.0496,4.0496,4.0496,4.0496,4.0496,4.0496,4.0496,4.0496,4.0496,4.0496,4.0496,4.0496,4.0496,4.0496,4.0496,4.0496,4.0496,4.0496,4.0496,4.0496,4.0496,4.0496,4.0496,4.0496,4.0496,4.0496,4.0496,4.0496,4.0496,4.0496,4.0496,4.0496,4.0496,4.0496,4.0496,4.0496,4.0496,4.0496,4.0496,4.0496,4.0496,4.0496,4.0496,4.0496,4.0496,4.0496,4.0496,4.0496,4.0496,4.0496,4.0496,4.0496,4.0496,4.0766,4.12,4.1788,4.2335,4.3181,4.4316,4.4586,4.5037,1.1481,1.3303,1.5392,1.6204,1.8371,2.0526,2.1325,2.2913,2.4685,2.63,2.662,2.6602,2.6602,2.6602,2.6869,2.7658,2.9145,3.0191,3.021,3.1574,3.2583,3.2601,3.3311,3.3807,3.3807,3.3807,3.3807,3.3807,3.3807,3.3807,3.3807,3.3807,3.3807,3.3788,3.4068,3.42,3.42,3.454,3.4851,3.5105,3.5105,3.5971,3.76,3.7886,3.8911,4.0496,4.0496,4.0496,4.0496,4.0496,4.0496,4.0496,4.0496,4.0496,4.0496,4.0496,4.0496,4.0496,4.0496,4.0496,4.0496,4.0496,4.0496,4.0496,4.0496,4.0496,4.0496,4.0496,4.0496,4.0496,4.0496,4.0496,4.0496,4.0496,4.0496,4.0496,4.0496,4.0496,4.0496,4.0496,4.0496,4.0496,4.0496,4.0496,4.0496,4.0496,4.0496,4.0496,4.0496,4.0496,4.0496,4.0496,4.0496,4.0496,4.0496,4.0496,4.0496,4.0496,4.0496,4.0496,4.0496,4.0516,4.0516,4.0516,4.1373,4.1808,4.1827,4.3489,4.4297,4.4335,4.521,4.5594,1.0645,1.2983,1.5607,1.6403,1.9423,2.2264,2.2502,2.4279,2.6327,2.7959,2.7842,2.7438,2.7438,2.7438,2.7512,2.775,2.8686,2.9537,3.0118,3.1109,3.1971,3.2528,3.3311,3.3807,3.3807,3.3807,3.3807,3.3807,3.3807,3.3807,3.3807,3.3807,3.3889,3.408,3.4159,3.4405,3.4832,3.4925,3.5113,3.5376,3.5376,3.594,3.6984,3.767,3.8604,3.9688,4.0246,4.0496,4.0496,4.0496,4.0496,4.0496,4.0496,4.0496,4.0496,4.0496,4.0496,4.0496,4.0496,4.0496,4.0496,4.0496,4.0496,4.0496,4.0496,4.0496,4.0496,4.0496,4.0496,4.0496,4.0496,4.0496,4.0496,4.0496,4.0496,4.0496,4.0496,4.0496,4.0496,4.0496,4.0496,4.0496,4.0496,4.0496,4.0496,4.0496,4.0496,4.0496,4.0496,4.0496,4.0496,4.0496,4.0496,4.0496,4.0496,4.0496,4.0496,4.0496,4.0496,4.0496,4.0496,4.1085,4.1412,4.1412,4.2277,4.2989,4.3566,4.4066,4.4624,4.521,4.5576,4.574,1.2554,1.4871,1.7362,1.8841,2.112,2.3244,2.4217,2.5556,2.706,2.8675,2.8356,2.7897,2.8227,2.8026,2.7897,2.8227,2.8776,2.9333,2.9813,3.0635,3.15,3.2347,3.3152,3.3783,3.4123,3.4037,3.3961,3.3961,3.385,3.3855,3.3948,3.3961,3.4093,3.439,3.451,3.4726,3.5096,3.5207,3.5346,3.55,3.55,3.5923,3.6731,3.7603,3.8642,3.9804,4.0285,4.0496,4.0496,4.0496,4.0496,4.0496,4.0496,4.0496,4.0496,4.0496,4.0496,4.0496,4.0496,4.0496,4.0496,4.0496,4.0496,4.0496,4.0496,4.0496,4.0496,4.0496,4.0496,4.0496,4.0496,4.0496,4.0496,4.0496,4.0496,4.0496,4.0496,4.0496,4.0496,4.0496,4.0496,4.0496,4.0496,4.0496,4.0496,4.0496,4.0496,4.0496,4.0496,4.0496,4.0496,4.0496,4.0496,4.0496,4.0496,4.0496,4.065,4.0989,4.1008,4.1189,4.1559,4.1728,4.1962,4.2316,4.3193,4.3894,4.4376,4.474,4.52,4.5729,4.5795,4.5836,1.5816,1.7753,1.9693,2.2254,2.3006,2.3703,2.597,2.6557,2.706,2.8675,2.8429,2.8136,2.8877,2.8411,2.8165,2.8911,2.9235,2.9412,2.9414,3.0274,3.1186,3.1996,3.2788,3.3627,3.4495,3.43,3.416,3.4235,3.4024,3.3986,3.4223,3.4253,3.4401,3.4724,3.4972,3.5113,3.513,3.5376,3.55,3.55,3.55,3.5923,3.6731,3.7526,3.8796,4.04,4.0477,4.0496,4.0496,4.0496,4.0496,4.0496,4.0496,4.0496,4.0496,4.0496,4.0496,4.0496,4.0496,4.0496,4.0496,4.0496,4.0496,4.0496,4.0496,4.0496,4.0496,4.0496,4.0496,4.0496,4.0496,4.0496,4.0496,4.0496,4.0496,4.0496,4.0496,4.0496,4.0496,4.0496,4.0496,4.0496,4.0496,4.0496,4.0496,4.0496,4.0496,4.0496,4.0496,4.0496,4.0496,4.0496,4.0496,4.0535,4.0612,4.0631,4.0985,4.1859,4.1936,4.2343,4.3303,4.2519,4.2414,4.3227,4.4156,4.4627,4.4627,4.5478,4.5899,4.5899,4.5912,4.5916,1.4269,1.6096,1.8163,2.1272,2.3015,2.4245,2.5393,2.6153,2.706,2.8675,2.8858,2.8785,2.8968,2.8858,2.8864,2.9241,2.9361,2.9454,2.9616,3.0376,3.0969,3.1167,3.1883,3.2731,3.3608,3.3614,3.3865,3.4545,3.4548,3.4518,3.4582,3.4582,3.4724,3.4999,3.5079,3.5207,3.5398,3.546,3.55,3.55,3.55,3.5923,3.6712,3.6885,3.7911,3.9592,4.0227,4.0496,4.0496,4.0496,4.0496,4.0496,4.0496,4.0496,4.0496,4.0496,4.0496,4.0496,4.0496,4.0496,4.0496,4.0496,4.0496,4.0496,4.0496,4.0496,4.0496,4.0496,4.0496,4.0496,4.0496,4.0496,4.0496,4.0496,4.0496,4.0496,4.0496,4.0496,4.0496,4.0496,4.0496,4.0496,4.0496,4.0496,4.0496,4.0496,4.0496,4.0496,4.0496,4.0496,4.0496,4.0496,4.0496,4.0785,4.147,4.1527,4.1905,4.2841,4.2905,4.3329,4.435,4.4077,4.4053,4.4345,4.5172,4.559,4.559,4.5793,4.5899,4.5903,4.6001,4.6069,1.4835,1.6764,1.8849,2.2125,2.3648,2.4552,2.5365,2.5873,2.6661,2.8356,2.8883,2.9005,2.9005,2.91,2.9235,2.9382,2.9551,2.9712,2.9829,3.0323,3.0822,3.1222,3.1653,3.2243,3.3089,3.3037,3.3335,3.4196,3.4149,3.4319,3.4851,3.4898,3.5008,3.5289,3.5289,3.5361,3.55,3.55,3.55,3.55,3.55,3.5712,3.6173,3.7392,3.843,3.9342,4.015,4.0496,4.0496,4.0496,4.0496,4.0496,4.0496,4.0496,4.0496,4.0496,4.0496,4.0496,4.0496,4.0496,4.0496,4.0496,4.0496,4.0496,4.0496,4.0496,4.0496,4.0496,4.0496,4.0496,4.0496,4.0496,4.0496,4.0496,4.0496,4.0496,4.0496,4.0496,4.0496,4.0496,4.0496,4.0496,4.0496,4.0496,4.0496,4.0496,4.0496,4.0496,4.0496,4.0496,4.0669,4.1085,4.1123,4.1497,4.2384,4.2469,4.2879,4.3859,4.3922,4.4355,4.5332,4.5305,4.5276,4.5261,4.5756,4.5992,4.5992,4.605,4.6087,4.6087,4.6152,4.6199,1.541,1.7858,2.0225,2.3235,2.4255,2.4662,2.5334,2.564,2.6185,2.7675,2.8422,2.8856,2.9086,2.9278,2.9414,2.9484,2.978,3.0013,3.0068,3.026,3.0673,3.1391,3.1487,3.1795,3.2602,3.2493,3.2779,3.3788,3.3653,3.4015,3.5108,3.5174,3.5273,3.5493,3.55,3.55,3.55,3.55,3.55,3.55,3.55,3.55,3.5577,3.7834,3.8931,3.913,4.0092,4.0496,4.0496,4.0496,4.0496,4.0496,4.0496,4.0496,4.0496,4.0496,4.0496,4.0496,4.0496,4.0496,4.0496,4.0496,4.0496,4.0496,4.0496,4.0496,4.0496,4.0496,4.0496,4.0496,4.0496,4.0496,4.0496,4.0496,4.0496,4.0496,4.0496,4.0496,4.0496,4.0496,4.0496,4.0496,4.0496,4.0496,4.0496,4.0496,4.0496,4.0496,4.0496,4.0696,4.1123,4.1828,4.2005,4.2458,4.3379,4.3468,4.3883,4.4877,4.4943,4.5297,4.6101,4.6122,4.6082,4.5978,4.608,4.6122,4.6122,4.6247,4.6308,4.6308,4.6308,4.6308,1.3243,1.6995,2.0786,2.2694,2.3848,2.4541,2.4644,2.5338,2.6029,2.626,2.7195,2.8299,2.9401,2.9494,2.9513,2.9861,2.9969,3.0082,3.0311,3.0373,3.0442,3.0558,3.0577,3.0904,3.1775,3.1827,3.2449,3.4031,3.4107,3.4484,3.5407,3.5446,3.5453,3.55,3.55,3.55,3.55,3.55,3.55,3.55,3.55,3.55,3.5538,3.6577,3.7469,3.8257,3.9823,4.0496,4.0496,4.0496,4.0496,4.0496,4.0496,4.0496,4.0496,4.0496,4.0496,4.0496,4.0496,4.0496,4.0496,4.0496,4.0496,4.0496,4.0496,4.0496,4.0496,4.0496,4.0496,4.0496,4.0496,4.0496,4.0496,4.0496,4.0496,4.0496,4.0496,4.0496,4.0496,4.0496,4.0496,4.0496,4.0496,4.0496,4.0496,4.0496,4.0496,4.0496,4.0496,4.1513,4.2291,4.2383,4.2869,4.3538,4.4427,4.4504,4.49,4.586,4.5902,4.6025,4.6268,4.6269,4.6268,4.6247,4.6268,4.6269,4.6269,4.6289,4.6308,4.6308,4.6308,4.6308,1.4483,1.719,1.979,2.25,2.3558,2.408,2.466,2.5115,2.5607,2.6219,2.6585,2.7241,2.87,2.9024,2.9277,2.99,3.0129,3.026,3.0373,3.0404,3.0404,3.0404,3.0404,3.0558,3.0923,3.0962,3.1487,3.2718,3.3218,3.3853,3.4737,3.5231,3.55,3.55,3.55,3.55,3.55,3.55,3.55,3.55,3.55,3.55,3.5538,3.6327,3.718,3.8065,3.9304,4.0073,4.0496,4.0496,4.0496,4.0496,4.0496,4.0496,4.0496,4.0496,4.0496,4.0496,4.0496,4.0496,4.0496,4.0496,4.0496,4.0496,4.0496,4.0496,4.0496,4.0496,4.0496,4.0496,4.0496,4.0496,4.0496,4.0496,4.0496,4.0496,4.0496,4.0496,4.0496,4.0496,4.0496,4.0496,4.0496,4.0893,4.1239,4.1239,4.1673,4.2014,4.2014,4.2599,4.3199,4.368,4.3964,4.4495,4.542,4.5481,4.5687,4.6181,4.6203,4.6246,4.6308,4.6308,4.6308,4.6308,4.6308,4.6308,4.6308,4.6308,4.6308,4.6308,4.6308,4.6308,1.4727,1.642,1.7969,2.1243,2.2623,2.3467,2.4479,2.4881,2.5308,2.61,2.6027,2.6266,2.7676,2.841,2.9017,2.9669,3.0113,3.0404,3.0404,3.0404,3.0404,3.0404,3.0404,3.0404,3.0404,3.0404,3.075,3.1641,3.2256,3.3064,3.4148,3.4814,3.5269,3.5481,3.55,3.55,3.55,3.55,3.55,3.55,3.55,3.55,3.5519,3.6115,3.6865,3.7738,3.8834,3.965,4.0208,4.0419,4.0496,4.0496,4.0496,4.0496,4.0496,4.0496,4.0496,4.0496,4.0496,4.0496,4.0496,4.0496,4.0496,4.0496,4.0496,4.0496,4.0496,4.0496,4.0496,4.0496,4.0496,4.0496,4.0496,4.0496,4.0496,4.0496,4.0496,4.0496,4.0496,4.0496,4.0689,4.0839,4.0872,4.1593,4.221,4.236,4.2976,4.3563,4.3933,4.4074,4.439,4.5049,4.5105,4.5382,4.6087,4.6147,4.6199,4.6289,4.6308,4.6308,4.6308,4.6308,4.6308,4.6308,4.6308,4.6308,4.6308,4.6308,4.6308,4.6308,4.6308,4.6308,1.1875,1.3484,1.5336,1.7981,2.0521,2.2628,2.3629,2.4591,2.5298,2.536,2.5351,2.5609,2.6537,2.7841,2.8886,2.9106,2.9846,3.0404,3.0404,3.0404,3.0404,3.0404,3.0404,3.0404,3.0404,3.0404,3.075,3.1641,3.1737,3.2487,3.4109,3.4244,3.4641,3.5462,3.55,3.55,3.55,3.55,3.55,3.55,3.55,3.55,3.55,3.5538,3.6,3.6865,3.8565,3.9323,3.9419,4.0189,4.0496,4.0496,4.0496,4.0496,4.0496,4.0496,4.0496,4.0496,4.0496,4.0496,4.0496,4.0496,4.0496,4.0496,4.0496,4.0496,4.0496,4.0496,4.0496,4.0496,4.0496,4.0496,4.0496,4.0496,4.0496,4.0496,4.0496,4.0496,4.0496,4.0496,4.1162,4.1763,4.1899,4.2582,4.331,4.3887,4.4015,4.4552,4.5952,4.6132,4.6171,4.621,4.621,4.625,4.6289,4.6289,4.6289,4.6308,4.6308,4.6308,4.6308,4.6308,4.6308,4.6308,4.6308,4.6308,4.6308,4.6308,4.6308,4.6308,4.6308,4.6308,1.1659,1.2517,1.3708,1.6849,1.9215,2.1153,2.2688,2.4215,2.5308,2.5308,2.5308,2.5404,2.5712,2.665,2.7766,2.8904,2.9357,2.9756,3.0327,3.0404,3.0404,3.0404,3.0404,3.0404,3.0404,3.0404,3.0538,3.0846,3.1385,3.2199,3.3314,3.3898,3.4603,3.5462,3.55,3.55,3.55,3.55,3.55,3.55,3.55,3.55,3.55,3.55,3.5654,3.5981,3.7142,3.8277,3.9323,3.9611,4.0035,4.0496,4.0496,4.0496,4.0496,4.0496,4.0496,4.0496,4.0496,4.0496,4.0496,4.0496,4.0496,4.0496,4.0496,4.0496,4.0496,4.0496,4.0496,4.0496,4.0496,4.0496,4.0496,4.0496,4.0496,4.0496,4.0496,4.0496,4.0688,4.1344,4.1712,4.2009,4.2286,4.334,4.4195,4.4277,4.4922,4.5565,4.609,4.6247,4.6308,4.6308,4.6308,4.6308,4.6308,4.6308,4.6308,4.6308,4.6308,4.6308,4.6308,4.6308,4.6308,4.6308,4.6308,4.6308,4.6308,4.6308,4.6308,4.6308,4.6308,4.6308,1.0998,1.1489,1.2442,1.5577,1.7283,1.8885,2.1563,2.3112,2.4154,2.4769,2.5115,2.5308,2.5308,2.5769,2.6621,2.8025,2.8511,2.889,2.9486,2.9788,2.9967,2.9967,3.0212,3.0404,3.0404,3.0404,3.0404,3.0404,3.0942,3.1621,3.2449,3.3295,3.4295,3.5462,3.55,3.55,3.55,3.55,3.55,3.55,3.55,3.55,3.55,3.55,3.55,3.5538,3.6077,3.7103,3.8469,3.9073,3.9611,4.0131,4.04,4.0496,4.0496,4.0496,4.0496,4.0496,4.0496,4.0496,4.0496,4.0496,4.0496,4.0496,4.0496,4.0496,4.0496,4.0496,4.0496,4.0496,4.0496,4.0496,4.0496,4.0496,4.0523,4.0574,4.0574,4.0812,4.1201,4.1859,4.2485,4.2971,4.3106,4.4273,4.5147,4.5043,4.568,4.6173,4.6173,4.6247,4.6308,4.6308,4.6308,4.6308,4.6308,4.6308,4.6308,4.6308,4.6308,4.6308,4.6308,4.6308,4.6308,4.6308,4.6308,4.6308,4.6308,4.6308,4.6308,4.6308,4.6308,4.6308,0.0,0.0,0.0,1.398,1.4682,1.5885,2.0188,2.1225,2.1827,2.3673,2.4659,2.5207,2.5288,2.5308,2.5577,2.6428,2.7294,2.7876,2.7895,2.8569,2.9069,2.9107,2.9852,3.0365,3.0404,3.0404,3.0404,3.0404,3.0404,3.0788,3.166,3.2487,3.3718,3.5404,3.5481,3.55,3.55,3.55,3.55,3.55,3.55,3.55,3.55,3.55,3.55,3.55,3.55,3.5942,3.6788,3.8527,3.9246,3.9381,4.0169,4.0477,4.0496,4.0496,4.0496,4.0496,4.0496,4.0496,4.0496,4.0496,4.0496,4.0496,4.0496,4.0496,4.0496,4.0496,4.0496,4.0496,4.0496,4.0496,4.0496,4.0504,4.0603,4.0717,4.0742,4.1437,4.205,4.205,4.3481,4.4655,4.4482,4.536,4.6147,4.6289,4.6308,4.6308,4.6308,4.6308,4.6308,4.6308,4.6308,4.6308,4.6308,4.6308,4.6308,4.6308,4.6308,4.6308,4.6308,4.6308,4.6308,4.6308,4.6308,4.6308,4.6308,4.6308,4.6308,4.6308,4.6308,4.6308,0.9864,0.0,0.0,0.0,0.0,0.0,1.7111,1.8196,1.9513,2.2534,2.2804,2.3055,2.4952,2.5308,2.5385,2.5615,2.639,2.7178,2.7818,2.8088,2.8453,2.903,2.9319,2.9717,3.0346,3.0404,3.0404,3.0404,3.0404,3.0788,3.166,3.3064,3.4064,3.4545,3.5173,3.55,3.55,3.55,3.55,3.55,3.55,3.55,3.55,3.55,3.55,3.55,3.55,3.5635,3.5904,3.6988,3.8161,3.9323,3.9554,3.9996,4.0496,4.0496,4.0496,4.0496,4.0496,4.0496,4.0496,4.0496,4.0496,4.0496,4.0496,4.0496,4.0496,4.0496,4.0496,4.0496,4.0496,4.0496,4.0515,4.0623,4.0667,4.0887,4.1577,4.2463,4.3153,4.3153,4.4067,4.5033,4.5676,4.6031,4.6268,4.6289,4.6308,4.6308,4.6308,4.6308,4.6308,4.6308,4.6308,4.6308,4.6308,4.6308,4.6308,4.6308,4.6308,4.6308,4.6308,4.6308,4.6308,4.6308,4.6308,4.6308,4.6308,4.6308,4.6308,4.6308,4.6308,4.6308,1.0946,1.1082,1.1655,1.2374,0.0,0.0,1.6169,1.667,1.7551,2.103,2.1598,2.2027,2.3899,2.4543,2.4793,2.4793,2.5505,2.6231,2.6736,2.7121,2.7525,2.8005,2.8376,2.8929,2.9775,2.9871,3.0,3.0365,3.0404,3.0788,3.166,3.2929,3.3821,3.4186,3.5045,3.55,3.55,3.55,3.55,3.55,3.55,3.55,3.55,3.55,3.55,3.55,3.55,3.55,3.5538,3.6,3.7007,3.8296,3.9015,3.9592,4.0035,4.0381,4.0496,4.0496,4.0496,4.0496,4.0496,4.0496,4.0496,4.0496,4.0496,4.0496,4.0496,4.0496,4.0496,4.0512,4.0574,4.0575,4.0616,4.0721,4.0771,4.1066,4.1984,4.2945,4.3734,4.4089,4.4862,4.5656,4.6211,4.6308,4.6308,4.6308,4.6308,4.6308,4.6308,4.6308,4.6308,4.6308,4.6308,4.6308,4.6308,4.6308,4.6308,4.6308,4.6308,4.6308,4.6308,4.6308,4.6308,4.6308,4.6308,4.6308,4.6308,4.6308,4.6308,4.6308,4.6308,4.6308,1.2706,1.2635,0.0,1.4307,1.3246,0.0,1.6188,1.5926,1.5861,1.9066,2.0227,2.0996,2.2158,2.3086,2.3687,2.3687,2.4524,2.5192,2.5288,2.5962,2.6486,2.6582,2.7274,2.8068,2.8896,2.905,2.941,3.0192,3.0346,3.0731,3.1506,3.2333,3.316,3.4032,3.4911,3.5404,3.55,3.55,3.55,3.55,3.55,3.55,3.55,3.55,3.55,3.55,3.55,3.55,3.55,3.55,3.5962,3.6865,3.8507,3.9207,3.94,4.0208,4.0496,4.0496,4.0496,4.0496,4.0496,4.0496,4.0496,4.0496,4.0496,4.0496,4.0496,4.0519,4.0527,4.0552,4.0686,4.0707,4.0721,4.0789,4.0914,4.1271,4.2235,4.3118,4.3963,4.4881,4.5736,4.6308,4.6308,4.6308,4.6308,4.6308,4.6308,4.6308,4.6308,4.6308,4.6308,4.6308,4.6308,4.6308,4.6308,4.6308,4.6308,4.6308,4.6308,4.6308,4.6308,4.6308,4.6308,4.6308,4.6308,4.6308,4.6308,4.6308,4.6308,4.6308,4.6308,4.6308,1.4841,1.5395,1.6003,1.4373,1.5163,0.0,1.4043,1.385,1.4453,1.5895,1.5715,1.6216,1.9181,2.0442,2.1043,2.1043,2.2893,2.4567,2.5212,2.5442,2.5808,2.6524,2.6755,2.7198,2.8049,2.8723,2.9165,2.9338,3.0,3.0462,3.0635,3.1468,3.2314,3.3122,3.4007,3.4795,3.5481,3.55,3.55,3.55,3.55,3.55,3.55,3.55,3.55,3.55,3.55,3.55,3.55,3.55,3.5962,3.6788,3.7853,3.8681,3.94,4.0208,4.0496,4.0496,4.0496,4.0496,4.0496,4.0496,4.0496,4.0496,4.0496,4.0496,4.0527,4.0636,4.0655,4.0672,4.0757,4.0784,4.0813,4.0922,4.0988,4.1456,4.3082,4.3574,4.416,4.5722,4.6172,4.6308,4.6308,4.6308,4.6308,4.6308,4.6308,4.6308,4.6308,4.6308,4.6308,4.6308,4.6308,4.6308,4.6308,4.6308,4.6308,4.6308,4.6308,4.6308,4.6308,4.6308,4.6308,4.6308,4.6308,4.6308,4.6308,4.6308,4.6308,4.6308,4.6308,4.6308,1.6656,1.6821,1.7316,1.6499,1.6348,0.0,0.0,1.4502,1.4465,1.6647,1.5709,1.5543,1.9012,1.9658,1.9792,2.0231,2.2062,2.3432,2.3404,2.45,2.5462,2.5904,2.5942,2.6288,2.7178,2.7621,2.8203,2.905,2.9506,2.9948,3.0385,3.1231,3.1891,3.2295,3.3551,3.4417,3.4853,3.5269,3.55,3.55,3.55,3.55,3.55,3.55,3.55,3.55,3.55,3.55,3.55,3.55,3.5731,3.6231,3.7507,3.8277,3.8796,4.0035,4.0496,4.0496,4.0496,4.0496,4.0496,4.0496,4.0496,4.0496,4.0496,4.0545,4.0616,4.0674,4.0715,4.0776,4.0864,4.0908,4.0925,4.1076,4.1103,4.1576,4.332,4.3691,4.4219,4.5957,4.6308,4.6308,4.6308,4.6308,4.6308,4.6308,4.6308,4.6308,4.6308,4.6308,4.6308,4.6308,4.6308,4.6308,4.6308,4.6308,4.6308,4.6308,4.6308,4.6308,4.6308,4.6308,4.6308,4.6308,4.6308,4.6308,4.6308,4.6308,4.6308,4.6308,4.6308,4.6308,1.8873,1.8634,1.8844,1.8844,1.7742,1.6715,0.0,0.0,0.0,1.7516,1.6381,1.5904,1.9,1.8988,1.868,1.9231,2.1004,2.1908,2.0716,2.2865,2.4577,2.4577,2.4865,2.5346,2.6043,2.612,2.6871,2.8723,2.8703,2.9063,3.0096,3.0981,3.1525,3.1698,3.316,3.4032,3.4205,3.5064,3.55,3.55,3.55,3.55,3.55,3.55,3.55,3.55,3.55,3.55,3.55,3.55,3.55,3.5673,3.7353,3.8007,3.82,3.9881,4.0496,4.0496,4.0496,4.0496,4.0496,4.0496,4.0496,4.0504,4.0523,4.0616,4.0709,4.0751,4.0799,4.0867,4.0998,4.1049,4.1076,4.1171,4.1191,4.166,4.334,4.3691,4.4219,4.5957,4.6308,4.6308,4.6308,4.6308,4.6308,4.6308,4.6308,4.6308,4.6308,4.6308,4.6308,4.6308,4.6308,4.6308,4.6308,4.6308,4.6308,4.6308,4.6308,4.6308,4.6308,4.6308,4.6308,4.6308,4.6308,4.6308,4.6308,4.6308,4.6308,4.6308,4.6308,4.6308,2.2444,2.276,2.2654,1.9708,2.0465,2.06,1.5497,0.0,1.5888,1.4725,0.0,1.4632,1.658,0.0,0.0,1.5885,1.8481,1.9754,1.7407,1.9888,2.1923,2.1923,2.3297,2.4283,2.4379,2.4379,2.5394,2.7857,2.7313,2.7582,2.9165,3.0063,3.0904,3.1679,3.2583,3.341,3.4186,3.5064,3.55,3.55,3.55,3.55,3.55,3.55,3.55,3.55,3.55,3.55,3.55,3.55,3.55,3.5673,3.7353,3.8007,3.82,3.9881,4.0496,4.0496,4.0496,4.0496,4.0496,4.0496,4.0496,4.0527,4.0649,4.0686,4.0735,4.0919,4.0962,4.1017,4.1149,4.1171,4.1171,4.1191,4.1191,4.166,4.334,4.3691,4.4219,4.5957,4.6308,4.6308,4.6308,4.6308,4.6308,4.6308,4.6308,4.6308,4.6308,4.6308,4.6308,4.6308,4.6308,4.6308,4.6308,4.6308,4.6308,4.6308,4.6308,4.6308,4.6308,4.6308,4.6308,4.6308,4.6308,4.6308,4.6308,4.6308,4.6308,4.6308,4.6308,4.6308,2.3047,2.3067,2.2874,2.0931,2.0527,1.9815,1.6792,1.6311,1.6564,1.6811,0.0,0.0,0.0,0.0,0.0,0.0,1.7465,1.7542,1.5965,1.7388,1.9158,2.0635,2.1446,2.2278,2.324,2.3355,2.4394,2.6948,2.5914,2.6318,2.8953,2.9448,3.0044,3.0923,3.2218,3.3083,3.343,3.4808,3.55,3.55,3.55,3.55,3.55,3.55,3.55,3.55,3.55,3.55,3.55,3.55,3.55,3.5673,3.7353,3.8007,3.82,3.9881,4.0496,4.0496,4.0496,4.0496,4.0496,4.0496,4.0552,4.063,4.068,4.0777,4.0899,4.0981,4.1054,4.1128,4.1191,4.1191,4.1191,4.1191,4.1191,4.166,4.334,4.3691,4.4219,4.5957,4.6308,4.6308,4.6308,4.6308,4.6308,4.6308,4.6308,4.6308,4.6308,4.6308,4.6308,4.6308,4.6308,4.6308,4.6308,4.6308,4.6308,4.6308,4.6308,4.6308,4.6308,4.6308,4.6308,4.6308,4.6308,4.6308,4.6308,4.6308,4.6308,4.6308,4.6308,4.6308,2.3658,2.3485,2.3101,2.1562,2.0254,1.895,1.7372,1.693,1.718,1.8395,1.8065,0.0,0.0,0.0,1.6484,1.7257,0.0,1.6369,1.5038,1.5596,1.683,1.8673,1.9523,2.0523,2.1966,2.1681,2.2566,2.5351,2.4202,2.4856,2.8222,2.8857,2.939,3.0019,3.1698,3.2679,3.2891,3.4391,3.525,3.55,3.55,3.55,3.55,3.55,3.55,3.55,3.55,3.55,3.55,3.55,3.55,3.5673,3.7353,3.8007,3.82,3.9881,4.0496,4.0496,4.0496,4.0496,4.0496,4.0496,4.0582,4.0703,4.0729,4.0851,4.1017,4.1031,4.1127,4.1191,4.1191,4.1191,4.1191,4.1191,4.1367,4.1933,4.3398,4.3887,4.4492,4.6016,4.6308,4.6308,4.6308,4.6308,4.6308,4.6308,4.6308,4.6308,4.6308,4.6308,4.6308,4.6308,4.6308,4.6308,4.6308,4.6308,4.6308,4.6308,4.6308,4.6308,4.6308,4.6308,4.6308,4.6308,4.6308,4.6308,4.6308,4.6308,4.6308,4.6308,4.6308,4.6308,2.5231,2.5231,2.4423,2.1154,2.0308,1.9385,1.6038,1.6522,1.768,1.7738,1.9042,2.0192,2.0288,1.9527,1.8357,1.6795,1.718,0.0,0.0,1.4689,1.5269,1.5346,1.7545,1.9392,2.0288,1.885,1.9277,2.2663,2.2081,2.3062,2.6505,2.8222,2.9107,2.9146,3.0833,3.2102,3.2891,3.3801,3.4661,3.55,3.55,3.55,3.55,3.55,3.55,3.55,3.55,3.55,3.55,3.55,3.55,3.5673,3.7353,3.8007,3.82,3.9881,4.0496,4.0496,4.0496,4.0496,4.0496,4.0496,4.0582,4.0707,4.0779,4.0883,4.1025,4.115,4.1191,4.1191,4.1191,4.1191,4.1191,4.1191,4.1797,4.2617,4.3516,4.4355,4.5215,4.6133,4.6308,4.6308,4.6308,4.6308,4.6308,4.6308,4.6308,4.6308,4.6308,4.6308,4.6308,4.6308,4.6308,4.6308,4.6308,4.6308,4.6308,4.6308,4.6308,4.6308,4.6308,4.6308,4.6308,4.6308,4.6308,4.6308,4.6308,4.6308,4.6308,4.6308,4.6308,4.6308,2.5308,2.5308,2.4769,2.2504,2.1119,1.9692,1.7388,1.7738,1.8395,1.7815,1.9504,2.0923,2.0404,1.9119,1.7949,1.7391,1.6626,1.5407,0.0,1.2868,1.2906,1.3486,1.5795,1.7468,1.7753,1.7777,1.893,2.1791,2.121,2.2454,2.6445,2.7706,2.8549,2.9088,3.0794,3.2083,3.2891,3.3763,3.4641,3.55,3.55,3.55,3.55,3.55,3.55,3.55,3.55,3.55,3.55,3.55,3.55,3.5673,3.7353,3.8007,3.82,3.9881,4.0496,4.0496,4.0496,4.0496,4.0519,4.0603,4.0688,4.0784,4.0902,4.1025,4.1149,4.1191,4.1191,4.1191,4.1191,4.1191,4.1191,4.1191,4.1816,4.2637,4.3516,4.4375,4.5254,4.6133,4.6308,4.6308,4.6308,4.6308,4.6308,4.6308,4.6308,4.6308,4.6308,4.6308,4.6308,4.6308,4.6308,4.6308,4.6308,4.6308,4.6308,4.6308,4.6308,4.6308,4.6308,4.6308,4.6308,4.6308,4.6308,4.6308,4.6308,4.6308,4.6308,4.6308,4.6308,4.6308,2.5308,2.5308,2.4904,2.3216,2.1985,2.0658,1.8623,1.9065,1.9642,1.8792,2.0158,2.1446,2.1235,1.9545,1.8198,1.8198,1.6829,1.5043,0.0,1.2498,1.2413,1.267,1.4398,1.5823,1.6439,1.6447,1.7739,2.0939,2.0369,2.1604,2.5569,2.7146,2.8149,2.8665,3.0333,3.1775,3.2891,3.3449,3.4334,3.55,3.55,3.55,3.55,3.55,3.55,3.55,3.55,3.55,3.55,3.55,3.55,3.5673,3.7353,3.8007,3.82,3.9881,4.0496,4.0496,4.0496,4.0496,4.0527,4.0668,4.0757,4.0836,4.0959,4.1083,4.1191,4.1191,4.1191,4.1191,4.1191,4.1191,4.1269,4.1562,4.2266,4.3105,4.3965,4.4844,4.5625,4.6191,4.6308,4.6308,4.6308,4.6308,4.6308,4.6308,4.6308,4.6308,4.6308,4.6308,4.6308,4.6308,4.6308,4.6308,4.6308,4.6308,4.6308,4.6308,4.6308,4.6308,4.6308,4.6308,4.6308,4.6308,4.6308,4.6308,4.6308,4.6308,4.6308,4.6308,4.6308,4.6308]}]]